Wetterdaten: Samstag, 18.05.2024
Datum Zeit Temp. I. Temp. A. Feuchte I. Feuchte A. Luftdruck Regen Wind Richtung Richtung Sonnenschein Solar Taupunkt Windchill Windböen
18.05.2024 00:00 22,3 °C 13,6 °C 55 % 83 % 1009,1 hPa 0,0 l/m² 4,5 km/h (1 Bft) O-NO 68 ° 0 min 0 W/m² 10,8 °C 13,6 °C 8,0 km/h (2 Bft)
18.05.2024 00:02 22,4 °C 13,6 °C 55 % 83 % 1009,2 hPa 0,0 l/m² 5,4 km/h (2 Bft) O 79 ° 0 min 0 W/m² 10,8 °C 13,6 °C 8,0 km/h (2 Bft)
18.05.2024 00:03 22,4 °C 13,6 °C 55 % 83 % 1009,1 hPa 0,0 l/m² 6,0 km/h (2 Bft) O-NO 78 ° 0 min 0 W/m² 10,8 °C 13,6 °C 6,4 km/h (2 Bft)
18.05.2024 00:05 22,4 °C 13,6 °C 55 % 83 % 1009,1 hPa 0,0 l/m² 7,2 km/h (2 Bft) O-NO 76 ° 0 min 0 W/m² 10,8 °C 13,1 °C 11,3 km/h (2 Bft)
18.05.2024 00:07 22,3 °C 13,5 °C 55 % 83 % 1009,1 hPa 0,0 l/m² 4,9 km/h (1 Bft) NO 52 ° 0 min 0 W/m² 10,7 °C 13,5 °C 9,7 km/h (2 Bft)
18.05.2024 00:09 22,4 °C 13,4 °C 55 % 83 % 1009,0 hPa 0,0 l/m² 6,3 km/h (2 Bft) O-NO 75 ° 0 min 0 W/m² 10,6 °C 13,4 °C 9,7 km/h (2 Bft)
18.05.2024 00:11 22,3 °C 13,4 °C 55 % 83 % 1009,0 hPa 0,0 l/m² 5,0 km/h (1 Bft) O-NO 77 ° 0 min 0 W/m² 10,6 °C 13,4 °C 8,0 km/h (2 Bft)
18.05.2024 00:12 22,4 °C 13,3 °C 55 % 83 % 1009,0 hPa 0,0 l/m² 6,1 km/h (2 Bft) O-NO 73 ° 0 min 0 W/m² 10,5 °C 13,3 °C 8,0 km/h (2 Bft)
18.05.2024 00:13 22,3 °C 13,3 °C 55 % 84 % 1009,0 hPa 0,0 l/m² 5,0 km/h (1 Bft) NO 54 ° 0 min 0 W/m² 10,7 °C 13,3 °C 6,4 km/h (2 Bft)
18.05.2024 00:15 22,4 °C 13,2 °C 55 % 84 % 1009,1 hPa 0,0 l/m² 5,0 km/h (1 Bft) O-NO 74 ° 0 min 0 W/m² 10,6 °C 13,2 °C 11,3 km/h (2 Bft)
18.05.2024 00:17 22,3 °C 13,1 °C 55 % 84 % 1009,0 hPa 0,0 l/m² 4,3 km/h (1 Bft) O-NO 77 ° 0 min 0 W/m² 10,5 °C 13,1 °C 6,4 km/h (2 Bft)
18.05.2024 00:19 22,3 °C 13,0 °C 55 % 84 % 1009,1 hPa 0,0 l/m² 1,8 km/h (1 Bft) O-NO 59 ° 0 min 0 W/m² 10,4 °C 13,0 °C 4,8 km/h (1 Bft)
18.05.2024 00:21 22,3 °C 13,0 °C 55 % 84 % 1009,0 hPa 0,0 l/m² 4,2 km/h (1 Bft) NO 54 ° 0 min 0 W/m² 10,4 °C 13,0 °C 6,4 km/h (2 Bft)
18.05.2024 00:22 22,3 °C 12,9 °C 55 % 84 % 1009,0 hPa 0,0 l/m² 3,6 km/h (1 Bft) O-NO 72 ° 0 min 0 W/m² 10,3 °C 12,9 °C 6,4 km/h (2 Bft)
18.05.2024 00:23 22,3 °C 12,9 °C 55 % 84 % 1009,1 hPa 0,0 l/m² 2,0 km/h (1 Bft) O-NO 71 ° 0 min 0 W/m² 10,3 °C 12,9 °C 4,8 km/h (1 Bft)
18.05.2024 00:25 22,3 °C 13,0 °C 55 % 84 % 1009,1 hPa 0,0 l/m² 1,6 km/h (1 Bft) O-NO 63 ° 0 min 0 W/m² 10,4 °C 13,0 °C 3,2 km/h (1 Bft)
18.05.2024 00:27 22,3 °C 13,0 °C 55 % 84 % 1009,0 hPa 0,0 l/m² 4,1 km/h (1 Bft) O-NO 59 ° 0 min 0 W/m² 10,4 °C 13,0 °C 6,4 km/h (2 Bft)
18.05.2024 00:29 22,3 °C 13,1 °C 55 % 84 % 1009,0 hPa 0,0 l/m² 3,8 km/h (1 Bft) NO 51 ° 0 min 0 W/m² 10,5 °C 13,1 °C 6,4 km/h (2 Bft)
18.05.2024 00:31 22,3 °C 13,1 °C 55 % 85 % 1009,0 hPa 0,0 l/m² 3,9 km/h (1 Bft) O-NO 57 ° 0 min 0 W/m² 10,6 °C 13,1 °C 6,4 km/h (2 Bft)
18.05.2024 00:32 22,3 °C 13,1 °C 55 % 85 % 1009,0 hPa 0,0 l/m² 4,9 km/h (1 Bft) O-NO 63 ° 0 min 0 W/m² 10,6 °C 13,1 °C 6,4 km/h (2 Bft)
18.05.2024 00:33 22,3 °C 13,1 °C 55 % 85 % 1009,0 hPa 0,0 l/m² 4,1 km/h (1 Bft) O-NO 63 ° 0 min 0 W/m² 10,6 °C 13,1 °C 4,8 km/h (1 Bft)
18.05.2024 00:35 22,3 °C 13,1 °C 55 % 85 % 1009,0 hPa 0,0 l/m² 4,4 km/h (1 Bft) O-NO 65 ° 0 min 0 W/m² 10,6 °C 13,1 °C 8,0 km/h (2 Bft)
18.05.2024 00:37 22,3 °C 13,2 °C 55 % 84 % 1008,9 hPa 0,0 l/m² 3,5 km/h (1 Bft) NO 53 ° 0 min 0 W/m² 10,6 °C 13,2 °C 8,0 km/h (2 Bft)
18.05.2024 00:39 22,3 °C 13,1 °C 55 % 84 % 1008,9 hPa 0,0 l/m² 5,1 km/h (1 Bft) O-NO 65 ° 0 min 0 W/m² 10,5 °C 13,1 °C 8,0 km/h (2 Bft)
18.05.2024 00:41 22,3 °C 13,2 °C 55 % 84 % 1008,9 hPa 0,0 l/m² 4,1 km/h (1 Bft) NO 51 ° 0 min 0 W/m² 10,6 °C 13,2 °C 8,0 km/h (2 Bft)
18.05.2024 00:42 22,3 °C 13,2 °C 55 % 84 % 1008,9 hPa 0,0 l/m² 4,0 km/h (1 Bft) O-NO 71 ° 0 min 0 W/m² 10,6 °C 13,2 °C 6,4 km/h (2 Bft)
18.05.2024 00:43 22,3 °C 13,2 °C 55 % 84 % 1008,9 hPa 0,0 l/m² 4,0 km/h (1 Bft) O-NO 70 ° 0 min 0 W/m² 10,6 °C 13,2 °C 6,4 km/h (2 Bft)
18.05.2024 00:47 22,3 °C 13,3 °C 55 % 84 % 1008,9 hPa 0,0 l/m² 4,6 km/h (1 Bft) O-NO 57 ° 0 min 0 W/m² 10,7 °C 13,3 °C 8,0 km/h (2 Bft)
18.05.2024 00:49 22,3 °C 13,3 °C 55 % 84 % 1008,8 hPa 0,0 l/m² 4,4 km/h (1 Bft) NO 41 ° 0 min 0 W/m² 10,7 °C 13,3 °C 8,0 km/h (2 Bft)
18.05.2024 00:51 22,3 °C 13,3 °C 55 % 84 % 1008,9 hPa 0,0 l/m² 3,6 km/h (1 Bft) NO 45 ° 0 min 0 W/m² 10,7 °C 13,3 °C 6,4 km/h (2 Bft)
18.05.2024 00:52 22,3 °C 13,3 °C 55 % 84 % 1008,9 hPa 0,0 l/m² 5,6 km/h (2 Bft) NO 47 ° 0 min 0 W/m² 10,7 °C 13,3 °C 8,0 km/h (2 Bft)
18.05.2024 00:53 22,3 °C 13,4 °C 55 % 84 % 1008,8 hPa 0,0 l/m² 3,3 km/h (1 Bft) NO 44 ° 0 min 0 W/m² 10,8 °C 13,4 °C 4,8 km/h (1 Bft)
18.05.2024 00:55 22,3 °C 13,4 °C 55 % 84 % 1008,9 hPa 0,0 l/m² 4,3 km/h (1 Bft) NO 50 ° 0 min 0 W/m² 10,8 °C 13,4 °C 6,4 km/h (2 Bft)
18.05.2024 00:57 22,3 °C 13,4 °C 55 % 84 % 1008,9 hPa 0,0 l/m² 3,4 km/h (1 Bft) NO 49 ° 0 min 0 W/m² 10,8 °C 13,4 °C 6,4 km/h (2 Bft)
18.05.2024 00:59 22,3 °C 13,4 °C 55 % 84 % 1008,9 hPa 0,0 l/m² 4,8 km/h (1 Bft) O-NO 63 ° 0 min 0 W/m² 10,8 °C 13,4 °C 9,7 km/h (2 Bft)
18.05.2024 01:01 22,3 °C 13,4 °C 55 % 84 % 1008,9 hPa 0,0 l/m² 4,7 km/h (1 Bft) O-NO 60 ° 0 min 0 W/m² 10,8 °C 13,4 °C 9,7 km/h (2 Bft)
18.05.2024 01:02 22,3 °C 13,4 °C 55 % 84 % 1008,8 hPa 0,0 l/m² 3,6 km/h (1 Bft) O 84 ° 0 min 0 W/m² 10,8 °C 13,4 °C 6,4 km/h (2 Bft)
18.05.2024 01:03 22,3 °C 13,4 °C 55 % 84 % 1008,8 hPa 0,0 l/m² 3,3 km/h (1 Bft) O-NO 69 ° 0 min 0 W/m² 10,8 °C 13,4 °C 6,4 km/h (2 Bft)
18.05.2024 01:05 22,3 °C 13,5 °C 55 % 84 % 1008,9 hPa 0,0 l/m² 5,0 km/h (1 Bft) NO 49 ° 0 min 0 W/m² 10,8 °C 13,5 °C 8,0 km/h (2 Bft)
18.05.2024 01:07 22,3 °C 13,5 °C 55 % 84 % 1009,0 hPa 0,0 l/m² 2,7 km/h (1 Bft) O-NO 73 ° 0 min 0 W/m² 10,8 °C 13,5 °C 6,4 km/h (2 Bft)
18.05.2024 01:09 22,3 °C 13,5 °C 55 % 84 % 1008,9 hPa 0,0 l/m² 4,6 km/h (1 Bft) O-NO 67 ° 0 min 0 W/m² 10,8 °C 13,5 °C 6,4 km/h (2 Bft)
18.05.2024 01:11 22,3 °C 13,5 °C 55 % 84 % 1008,8 hPa 0,0 l/m² 3,3 km/h (1 Bft) O-NO 71 ° 0 min 0 W/m² 10,8 °C 13,5 °C 6,4 km/h (2 Bft)
18.05.2024 01:12 22,3 °C 13,4 °C 55 % 84 % 1008,9 hPa 0,0 l/m² 5,3 km/h (1 Bft) NO 48 ° 0 min 0 W/m² 10,8 °C 13,4 °C 8,0 km/h (2 Bft)
18.05.2024 01:13 22,3 °C 13,5 °C 55 % 84 % 1008,8 hPa 0,0 l/m² 4,7 km/h (1 Bft) O-NO 62 ° 0 min 0 W/m² 10,8 °C 13,5 °C 6,4 km/h (2 Bft)
18.05.2024 01:15 22,3 °C 13,5 °C 55 % 84 % 1008,9 hPa 0,0 l/m² 5,6 km/h (2 Bft) O-NO 71 ° 0 min 0 W/m² 10,8 °C 13,5 °C 11,3 km/h (2 Bft)
18.05.2024 01:17 22,3 °C 13,5 °C 55 % 84 % 1008,9 hPa 0,0 l/m² 3,7 km/h (1 Bft) NO 54 ° 0 min 0 W/m² 10,8 °C 13,5 °C 6,4 km/h (2 Bft)
18.05.2024 01:19 22,3 °C 13,5 °C 55 % 84 % 1008,9 hPa 0,0 l/m² 4,0 km/h (1 Bft) N-NO 23 ° 0 min 0 W/m² 10,8 °C 13,5 °C 6,4 km/h (2 Bft)
18.05.2024 01:21 22,3 °C 13,5 °C 55 % 84 % 1008,9 hPa 0,0 l/m² 7,1 km/h (2 Bft) O-NO 75 ° 0 min 0 W/m² 10,8 °C 13,1 °C 9,7 km/h (2 Bft)
18.05.2024 01:22 22,3 °C 13,5 °C 55 % 84 % 1008,9 hPa 0,0 l/m² 4,5 km/h (1 Bft) NO 49 ° 0 min 0 W/m² 10,8 °C 13,5 °C 6,4 km/h (2 Bft)
18.05.2024 01:23 22,3 °C 13,6 °C 55 % 84 % 1008,9 hPa 0,0 l/m² 3,5 km/h (1 Bft) NO 49 ° 0 min 0 W/m² 10,9 °C 13,6 °C 6,4 km/h (2 Bft)
18.05.2024 01:25 22,3 °C 13,6 °C 55 % 84 % 1008,9 hPa 0,0 l/m² 2,2 km/h (1 Bft) NO 49 ° 0 min 0 W/m² 10,9 °C 13,6 °C 4,8 km/h (1 Bft)
18.05.2024 01:27 22,3 °C 13,6 °C 55 % 84 % 1009,0 hPa 0,0 l/m² 4,0 km/h (1 Bft) O-NO 58 ° 0 min 0 W/m² 10,9 °C 13,6 °C 6,4 km/h (2 Bft)
18.05.2024 01:29 22,3 °C 13,5 °C 55 % 84 % 1008,9 hPa 0,0 l/m² 3,6 km/h (1 Bft) NO 53 ° 0 min 0 W/m² 10,8 °C 13,5 °C 8,0 km/h (2 Bft)
18.05.2024 01:31 22,3 °C 13,5 °C 55 % 84 % 1008,9 hPa 0,0 l/m² 3,2 km/h (1 Bft) O-NO 67 ° 0 min 0 W/m² 10,8 °C 13,5 °C 6,4 km/h (2 Bft)
18.05.2024 01:32 22,3 °C 13,5 °C 55 % 84 % 1008,8 hPa 0,0 l/m² 1,1 km/h (1 Bft) O-NO 67 ° 0 min 0 W/m² 10,8 °C 13,5 °C 3,2 km/h (1 Bft)
18.05.2024 01:33 22,3 °C 13,4 °C 55 % 84 % 1008,8 hPa 0,0 l/m² 4,3 km/h (1 Bft) O-NO 72 ° 0 min 0 W/m² 10,8 °C 13,4 °C 6,4 km/h (2 Bft)
18.05.2024 01:35 22,3 °C 13,4 °C 55 % 84 % 1008,9 hPa 0,0 l/m² 4,7 km/h (1 Bft) O 80 ° 0 min 0 W/m² 10,8 °C 13,4 °C 6,4 km/h (2 Bft)
18.05.2024 01:37 22,3 °C 13,4 °C 55 % 84 % 1008,9 hPa 0,0 l/m² 4,5 km/h (1 Bft) O 80 ° 0 min 0 W/m² 10,8 °C 13,4 °C 6,4 km/h (2 Bft)
18.05.2024 01:39 22,3 °C 13,4 °C 55 % 84 % 1008,9 hPa 0,0 l/m² 4,5 km/h (1 Bft) O-NO 69 ° 0 min 0 W/m² 10,8 °C 13,4 °C 6,4 km/h (2 Bft)
18.05.2024 01:41 22,3 °C 13,4 °C 55 % 84 % 1009,0 hPa 0,0 l/m² 3,6 km/h (1 Bft) O 80 ° 0 min 0 W/m² 10,8 °C 13,4 °C 6,4 km/h (2 Bft)
18.05.2024 01:42 22,2 °C 13,4 °C 55 % 84 % 1008,9 hPa 0,0 l/m² 2,1 km/h (1 Bft) O 80 ° 0 min 0 W/m² 10,8 °C 13,4 °C 3,2 km/h (1 Bft)
18.05.2024 01:43 22,3 °C 13,4 °C 55 % 84 % 1009,0 hPa 0,0 l/m² 1,5 km/h (1 Bft) O 80 ° 0 min 0 W/m² 10,8 °C 13,4 °C 3,2 km/h (1 Bft)
18.05.2024 01:45 22,3 °C 13,4 °C 55 % 85 % 1008,9 hPa 0,0 l/m² 0,3 km/h (0 Bft) O 80 ° 0 min 0 W/m² 10,9 °C 13,4 °C 3,2 km/h (1 Bft)
18.05.2024 01:47 22,2 °C 13,4 °C 55 % 85 % 1008,9 hPa 0,0 l/m² 0,1 km/h (0 Bft) O 80 ° 0 min 0 W/m² 10,9 °C 13,4 °C 1,6 km/h (1 Bft)
18.05.2024 01:49 22,3 °C 13,3 °C 55 % 85 % 1008,9 hPa 0,0 l/m² 0,6 km/h (0 Bft) O 80 ° 0 min 0 W/m² 10,8 °C 13,3 °C 3,2 km/h (1 Bft)
18.05.2024 01:51 22,3 °C 13,4 °C 55 % 85 % 1008,9 hPa 0,0 l/m² 2,4 km/h (1 Bft) NO 53 ° 0 min 0 W/m² 10,9 °C 13,4 °C 4,8 km/h (1 Bft)
18.05.2024 01:52 22,3 °C 13,4 °C 55 % 85 % 1008,9 hPa 0,0 l/m² 0,3 km/h (0 Bft) NO 53 ° 0 min 0 W/m² 10,9 °C 13,4 °C 3,2 km/h (1 Bft)
18.05.2024 01:53 22,3 °C 13,4 °C 55 % 85 % 1008,9 hPa 0,0 l/m² 3,0 km/h (1 Bft) NO 53 ° 0 min 0 W/m² 10,9 °C 13,4 °C 6,4 km/h (2 Bft)
18.05.2024 01:55 22,3 °C 13,4 °C 55 % 85 % 1008,9 hPa 0,0 l/m² 3,2 km/h (1 Bft) O 87 ° 0 min 0 W/m² 10,9 °C 13,4 °C 8,0 km/h (2 Bft)
18.05.2024 01:57 22,2 °C 13,5 °C 55 % 85 % 1008,8 hPa 0,0 l/m² 2,0 km/h (1 Bft) O-NO 65 ° 0 min 0 W/m² 11,0 °C 13,5 °C 6,4 km/h (2 Bft)
18.05.2024 01:59 22,2 °C 13,5 °C 55 % 85 % 1008,9 hPa 0,0 l/m² 3,3 km/h (1 Bft) O-NO 67 ° 0 min 0 W/m² 11,0 °C 13,5 °C 6,4 km/h (2 Bft)
18.05.2024 02:01 22,3 °C 13,5 °C 55 % 84 % 1008,8 hPa 0,0 l/m² 2,2 km/h (1 Bft) O-NO 65 ° 0 min 0 W/m² 10,8 °C 13,5 °C 6,4 km/h (2 Bft)
18.05.2024 02:02 22,3 °C 13,5 °C 55 % 84 % 1008,9 hPa 0,0 l/m² 3,0 km/h (1 Bft) O-NO 65 ° 0 min 0 W/m² 10,8 °C 13,5 °C 4,8 km/h (1 Bft)
18.05.2024 02:03 22,3 °C 13,5 °C 55 % 84 % 1008,9 hPa 0,0 l/m² 2,2 km/h (1 Bft) O-NO 57 ° 0 min 0 W/m² 10,8 °C 13,5 °C 4,8 km/h (1 Bft)
18.05.2024 02:05 22,3 °C 13,5 °C 55 % 85 % 1008,8 hPa 0,0 l/m² 3,4 km/h (1 Bft) O-NO 67 ° 0 min 0 W/m² 11,0 °C 13,5 °C 4,8 km/h (1 Bft)
18.05.2024 02:07 22,2 °C 13,4 °C 55 % 85 % 1008,8 hPa 0,0 l/m² 4,4 km/h (1 Bft) O 81 ° 0 min 0 W/m² 10,9 °C 13,4 °C 6,4 km/h (2 Bft)
18.05.2024 02:09 22,2 °C 13,4 °C 55 % 85 % 1008,8 hPa 0,0 l/m² 3,7 km/h (1 Bft) O 79 ° 0 min 0 W/m² 10,9 °C 13,4 °C 6,4 km/h (2 Bft)
18.05.2024 02:11 22,3 °C 13,4 °C 55 % 85 % 1008,8 hPa 0,0 l/m² 3,0 km/h (1 Bft) NO 46 ° 0 min 0 W/m² 10,9 °C 13,4 °C 8,0 km/h (2 Bft)
18.05.2024 02:12 22,2 °C 13,3 °C 55 % 85 % 1008,8 hPa 0,0 l/m² 2,0 km/h (1 Bft) NO 46 ° 0 min 0 W/m² 10,8 °C 13,3 °C 4,8 km/h (1 Bft)
18.05.2024 02:13 22,2 °C 13,3 °C 55 % 85 % 1008,8 hPa 0,0 l/m² 2,5 km/h (1 Bft) NO 51 ° 0 min 0 W/m² 10,8 °C 13,3 °C 6,4 km/h (2 Bft)
18.05.2024 02:15 22,3 °C 13,4 °C 55 % 85 % 1008,8 hPa 0,0 l/m² 4,1 km/h (1 Bft) NO 49 ° 0 min 0 W/m² 10,9 °C 13,4 °C 6,4 km/h (2 Bft)
18.05.2024 02:17 22,2 °C 13,4 °C 55 % 85 % 1008,7 hPa 0,0 l/m² 4,3 km/h (1 Bft) O-NO 65 ° 0 min 0 W/m² 10,9 °C 13,4 °C 6,4 km/h (2 Bft)
18.05.2024 02:19 22,2 °C 13,4 °C 55 % 85 % 1008,7 hPa 0,0 l/m² 4,2 km/h (1 Bft) O-NO 61 ° 0 min 0 W/m² 10,9 °C 13,4 °C 6,4 km/h (2 Bft)
18.05.2024 02:21 22,2 °C 13,3 °C 55 % 85 % 1008,7 hPa 0,0 l/m² 4,0 km/h (1 Bft) O-NO 65 ° 0 min 0 W/m² 10,8 °C 13,3 °C 6,4 km/h (2 Bft)
18.05.2024 02:22 22,2 °C 13,3 °C 55 % 85 % 1008,7 hPa 0,0 l/m² 3,6 km/h (1 Bft) O-NO 67 ° 0 min 0 W/m² 10,8 °C 13,3 °C 6,4 km/h (2 Bft)
18.05.2024 02:23 22,2 °C 13,3 °C 55 % 85 % 1008,7 hPa 0,0 l/m² 4,2 km/h (1 Bft) O-NO 69 ° 0 min 0 W/m² 10,8 °C 13,3 °C 4,8 km/h (1 Bft)
18.05.2024 02:25 22,2 °C 13,4 °C 55 % 85 % 1008,7 hPa 0,0 l/m² 4,1 km/h (1 Bft) O-NO 71 ° 0 min 0 W/m² 10,9 °C 13,4 °C 4,8 km/h (1 Bft)
18.05.2024 02:27 22,2 °C 13,3 °C 55 % 85 % 1008,7 hPa 0,0 l/m² 4,1 km/h (1 Bft) O-NO 66 ° 0 min 0 W/m² 10,8 °C 13,3 °C 6,4 km/h (2 Bft)
18.05.2024 02:29 22,3 °C 13,3 °C 55 % 85 % 1008,7 hPa 0,0 l/m² 4,4 km/h (1 Bft) O-NO 76 ° 0 min 0 W/m² 10,8 °C 13,3 °C 6,4 km/h (2 Bft)
18.05.2024 02:31 22,2 °C 13,3 °C 55 % 86 % 1008,7 hPa 0,0 l/m² 5,3 km/h (1 Bft) O-NO 69 ° 0 min 0 W/m² 11,0 °C 13,3 °C 6,4 km/h (2 Bft)
18.05.2024 02:32 22,2 °C 13,3 °C 55 % 86 % 1008,7 hPa 0,0 l/m² 4,7 km/h (1 Bft) O-NO 76 ° 0 min 0 W/m² 11,0 °C 13,3 °C 6,4 km/h (2 Bft)
18.05.2024 02:33 22,2 °C 13,3 °C 55 % 86 % 1008,7 hPa 0,0 l/m² 4,0 km/h (1 Bft) O-NO 74 ° 0 min 0 W/m² 11,0 °C 13,3 °C 4,8 km/h (1 Bft)
18.05.2024 02:34 22,2 °C 13,3 °C 55 % 86 % 1008,7 hPa 0,0 l/m² 3,7 km/h (1 Bft) O-NO 75 ° 0 min 0 W/m² 11,0 °C 13,3 °C 8,0 km/h (2 Bft)
18.05.2024 02:36 22,2 °C 13,3 °C 55 % 86 % 1008,7 hPa 0,0 l/m² 3,9 km/h (1 Bft) O-NO 74 ° 0 min 0 W/m² 11,0 °C 13,3 °C 8,0 km/h (2 Bft)
18.05.2024 02:38 22,2 °C 13,3 °C 55 % 86 % 1008,6 hPa 0,0 l/m² 4,8 km/h (1 Bft) NO 56 ° 0 min 0 W/m² 11,0 °C 13,3 °C 6,4 km/h (2 Bft)
18.05.2024 02:40 22,2 °C 13,3 °C 55 % 85 % 1008,7 hPa 0,0 l/m² 4,0 km/h (1 Bft) O-NO 58 ° 0 min 0 W/m² 10,8 °C 13,3 °C 6,4 km/h (2 Bft)
18.05.2024 02:42 22,3 °C 13,4 °C 55 % 85 % 1008,7 hPa 0,0 l/m² 4,1 km/h (1 Bft) O-NO 60 ° 0 min 0 W/m² 10,9 °C 13,4 °C 6,4 km/h (2 Bft)
18.05.2024 02:43 22,3 °C 13,4 °C 55 % 85 % 1008,7 hPa 0,0 l/m² 5,0 km/h (1 Bft) O-NO 60 ° 0 min 0 W/m² 10,9 °C 13,4 °C 6,4 km/h (2 Bft)
18.05.2024 02:44 22,3 °C 13,4 °C 55 % 85 % 1008,7 hPa 0,0 l/m² 3,3 km/h (1 Bft) NO 41 ° 0 min 0 W/m² 10,9 °C 13,4 °C 6,4 km/h (2 Bft)
18.05.2024 02:46 22,2 °C 13,5 °C 55 % 85 % 1008,7 hPa 0,0 l/m² 2,8 km/h (1 Bft) NO 52 ° 0 min 0 W/m² 11,0 °C 13,5 °C 6,4 km/h (2 Bft)
18.05.2024 02:48 22,2 °C 13,5 °C 55 % 85 % 1008,7 hPa 0,0 l/m² 5,5 km/h (2 Bft) O-NO 70 ° 0 min 0 W/m² 11,0 °C 13,5 °C 9,7 km/h (2 Bft)
18.05.2024 02:50 22,2 °C 13,6 °C 55 % 84 % 1008,7 hPa 0,0 l/m² 4,5 km/h (1 Bft) O-NO 64 ° 0 min 0 W/m² 10,9 °C 13,6 °C 9,7 km/h (2 Bft)
18.05.2024 02:52 22,2 °C 13,6 °C 55 % 84 % 1008,7 hPa 0,0 l/m² 3,9 km/h (1 Bft) O-NO 62 ° 0 min 0 W/m² 10,9 °C 13,6 °C 8,0 km/h (2 Bft)
18.05.2024 02:53 22,2 °C 13,6 °C 55 % 84 % 1008,7 hPa 0,0 l/m² 3,5 km/h (1 Bft) O-NO 67 ° 0 min 0 W/m² 10,9 °C 13,6 °C 4,8 km/h (1 Bft)
18.05.2024 02:54 22,2 °C 13,6 °C 55 % 84 % 1008,7 hPa 0,0 l/m² 3,5 km/h (1 Bft) O-NO 66 ° 0 min 0 W/m² 10,9 °C 13,6 °C 4,8 km/h (1 Bft)
18.05.2024 02:55 22,2 °C 13,6 °C 55 % 84 % 1008,7 hPa 0,0 l/m² 6,7 km/h (2 Bft) O-NO 60 ° 0 min 0 W/m² 10,9 °C 13,4 °C 9,7 km/h (2 Bft)
18.05.2024 02:57 22,2 °C 13,6 °C 55 % 84 % 1008,7 hPa 0,0 l/m² 4,4 km/h (1 Bft) O-NO 77 ° 0 min 0 W/m² 10,9 °C 13,6 °C 8,0 km/h (2 Bft)
18.05.2024 02:59 22,2 °C 13,6 °C 55 % 84 % 1008,7 hPa 0,0 l/m² 4,1 km/h (1 Bft) O-NO 70 ° 0 min 0 W/m² 10,9 °C 13,6 °C 8,0 km/h (2 Bft)
18.05.2024 03:00 22,2 °C 13,6 °C 55 % 84 % 1008,7 hPa 0,0 l/m² 4,8 km/h (1 Bft) O-NO 67 ° 0 min 0 W/m² 10,9 °C 13,6 °C 8,0 km/h (2 Bft)
18.05.2024 03:01 22,2 °C 13,6 °C 55 % 84 % 1008,7 hPa 0,0 l/m² 6,4 km/h (2 Bft) O-NO 67 ° 0 min 0 W/m² 10,9 °C 13,6 °C 8,0 km/h (2 Bft)
18.05.2024 03:08 22,2 °C 13,4 °C 55 % 84 % 1008,6 hPa 0,0 l/m² 4,9 km/h (1 Bft) O-NO 67 ° 0 min 0 W/m² 10,8 °C 13,4 °C 12,9 km/h (3 Bft)
18.05.2024 03:09 22,2 °C 13,4 °C 55 % 85 % 1008,6 hPa 0,0 l/m² 3,6 km/h (1 Bft) O-NO 71 ° 0 min 0 W/m² 10,9 °C 13,4 °C 6,4 km/h (2 Bft)
18.05.2024 03:11 22,2 °C 13,3 °C 55 % 84 % 1008,6 hPa 0,0 l/m² 4,7 km/h (1 Bft) O-NO 78 ° 0 min 0 W/m² 10,7 °C 13,3 °C 8,0 km/h (2 Bft)
18.05.2024 03:12 22,2 °C 13,3 °C 55 % 85 % 1008,6 hPa 0,0 l/m² 5,7 km/h (2 Bft) O-NO 62 ° 0 min 0 W/m² 10,8 °C 13,3 °C 8,0 km/h (2 Bft)
18.05.2024 03:14 22,2 °C 13,3 °C 55 % 85 % 1008,6 hPa 0,0 l/m² 5,1 km/h (1 Bft) O 83 ° 0 min 0 W/m² 10,8 °C 13,3 °C 8,0 km/h (2 Bft)
18.05.2024 03:16 22,2 °C 13,2 °C 55 % 85 % 1008,6 hPa 0,0 l/m² 4,9 km/h (1 Bft) O-NO 72 ° 0 min 0 W/m² 10,7 °C 13,2 °C 8,0 km/h (2 Bft)
18.05.2024 03:18 22,2 °C 13,2 °C 55 % 85 % 1008,6 hPa 0,0 l/m² 5,8 km/h (2 Bft) O-NO 71 ° 0 min 0 W/m² 10,7 °C 13,2 °C 9,7 km/h (2 Bft)
18.05.2024 03:20 22,2 °C 13,2 °C 55 % 85 % 1008,6 hPa 0,0 l/m² 4,4 km/h (1 Bft) O-NO 60 ° 0 min 0 W/m² 10,7 °C 13,2 °C 6,4 km/h (2 Bft)
18.05.2024 03:21 22,2 °C 13,2 °C 55 % 86 % 1008,6 hPa 0,0 l/m² 1,7 km/h (1 Bft) O-NO 60 ° 0 min 0 W/m² 10,9 °C 13,2 °C 4,8 km/h (1 Bft)
18.05.2024 03:22 22,2 °C 13,2 °C 55 % 86 % 1008,6 hPa 0,0 l/m² 1,9 km/h (1 Bft) O-NO 71 ° 0 min 0 W/m² 10,9 °C 13,2 °C 4,8 km/h (1 Bft)
18.05.2024 03:23 22,2 °C 13,2 °C 55 % 86 % 1008,6 hPa 0,0 l/m² 5,3 km/h (1 Bft) O-NO 76 ° 0 min 0 W/m² 10,9 °C 13,2 °C 8,0 km/h (2 Bft)
18.05.2024 03:25 22,2 °C 13,2 °C 55 % 86 % 1008,5 hPa 0,0 l/m² 5,5 km/h (2 Bft) O-NO 72 ° 0 min 0 W/m² 10,9 °C 13,2 °C 11,3 km/h (2 Bft)
18.05.2024 03:27 22,2 °C 13,2 °C 55 % 86 % 1008,6 hPa 0,0 l/m² 5,6 km/h (2 Bft) O 92 ° 0 min 0 W/m² 10,9 °C 13,2 °C 9,7 km/h (2 Bft)
18.05.2024 03:29 22,2 °C 13,3 °C 55 % 86 % 1008,6 hPa 0,0 l/m² 6,2 km/h (2 Bft) O-NO 59 ° 0 min 0 W/m² 11,0 °C 13,3 °C 9,7 km/h (2 Bft)
18.05.2024 03:31 22,2 °C 13,3 °C 55 % 85 % 1008,6 hPa 0,0 l/m² 3,2 km/h (1 Bft) O-NO 76 ° 0 min 0 W/m² 10,8 °C 13,3 °C 8,0 km/h (2 Bft)
18.05.2024 03:32 22,2 °C 13,3 °C 55 % 86 % 1008,6 hPa 0,0 l/m² 2,7 km/h (1 Bft) O-NO 57 ° 0 min 0 W/m² 11,0 °C 13,3 °C 8,0 km/h (2 Bft)
18.05.2024 03:33 22,2 °C 13,3 °C 55 % 85 % 1008,6 hPa 0,0 l/m² 5,3 km/h (1 Bft) NO 53 ° 0 min 0 W/m² 10,8 °C 13,3 °C 8,0 km/h (2 Bft)
18.05.2024 03:34 22,2 °C 13,3 °C 55 % 85 % 1008,6 hPa 0,0 l/m² 6,2 km/h (2 Bft) NO 56 ° 0 min 0 W/m² 10,8 °C 13,3 °C 9,7 km/h (2 Bft)
18.05.2024 03:36 22,2 °C 13,3 °C 55 % 85 % 1008,5 hPa 0,0 l/m² 2,1 km/h (1 Bft) N-NO 18 ° 0 min 0 W/m² 10,8 °C 13,3 °C 6,4 km/h (2 Bft)
18.05.2024 03:38 22,2 °C 13,4 °C 55 % 85 % 1008,6 hPa 0,0 l/m² 2,6 km/h (1 Bft) O-NO 59 ° 0 min 0 W/m² 10,9 °C 13,4 °C 4,8 km/h (1 Bft)
18.05.2024 03:40 22,2 °C 13,4 °C 55 % 85 % 1008,5 hPa 0,0 l/m² 3,7 km/h (1 Bft) N-NO 24 ° 0 min 0 W/m² 10,9 °C 13,4 °C 6,4 km/h (2 Bft)
18.05.2024 03:41 22,2 °C 13,4 °C 55 % 85 % 1008,5 hPa 0,0 l/m² 2,7 km/h (1 Bft) NO 35 ° 0 min 0 W/m² 10,9 °C 13,4 °C 6,4 km/h (2 Bft)
18.05.2024 03:43 22,2 °C 13,4 °C 55 % 85 % 1008,5 hPa 0,0 l/m² 2,2 km/h (1 Bft) NO 37 ° 0 min 0 W/m² 10,9 °C 13,4 °C 4,8 km/h (1 Bft)
18.05.2024 03:44 22,2 °C 13,4 °C 55 % 85 % 1008,5 hPa 0,0 l/m² 1,9 km/h (1 Bft) NO 37 ° 0 min 0 W/m² 10,9 °C 13,4 °C 4,8 km/h (1 Bft)
18.05.2024 03:47 22,2 °C 13,4 °C 55 % 85 % 1008,4 hPa 0,0 l/m² 4,1 km/h (1 Bft) O-NO 69 ° 0 min 0 W/m² 10,9 °C 13,4 °C 8,0 km/h (2 Bft)
18.05.2024 03:49 22,2 °C 13,4 °C 55 % 85 % 1008,5 hPa 0,0 l/m² 5,2 km/h (1 Bft) O-NO 61 ° 0 min 0 W/m² 10,9 °C 13,4 °C 8,0 km/h (2 Bft)
18.05.2024 03:51 22,2 °C 13,4 °C 55 % 85 % 1008,5 hPa 0,0 l/m² 6,0 km/h (2 Bft) NO 56 ° 0 min 0 W/m² 10,9 °C 13,4 °C 9,7 km/h (2 Bft)
18.05.2024 03:52 22,2 °C 13,4 °C 55 % 85 % 1008,5 hPa 0,0 l/m² 4,3 km/h (1 Bft) O-NO 74 ° 0 min 0 W/m² 10,9 °C 13,4 °C 6,4 km/h (2 Bft)
18.05.2024 03:53 22,2 °C 13,4 °C 55 % 85 % 1008,5 hPa 0,0 l/m² 6,2 km/h (2 Bft) NO 53 ° 0 min 0 W/m² 10,9 °C 13,4 °C 8,0 km/h (2 Bft)
18.05.2024 03:55 22,2 °C 13,4 °C 55 % 85 % 1008,5 hPa 0,0 l/m² 2,0 km/h (1 Bft) O-NO 75 ° 0 min 0 W/m² 10,9 °C 13,4 °C 6,4 km/h (2 Bft)
18.05.2024 03:57 22,2 °C 13,4 °C 55 % 85 % 1008,5 hPa 0,0 l/m² 4,5 km/h (1 Bft) O-NO 61 ° 0 min 0 W/m² 10,9 °C 13,4 °C 9,7 km/h (2 Bft)
18.05.2024 03:59 22,2 °C 13,3 °C 55 % 85 % 1008,6 hPa 0,0 l/m² 4,2 km/h (1 Bft) O-NO 71 ° 0 min 0 W/m² 10,8 °C 13,3 °C 6,4 km/h (2 Bft)
18.05.2024 04:01 22,2 °C 13,2 °C 55 % 85 % 1008,6 hPa 0,0 l/m² 4,0 km/h (1 Bft) O-NO 59 ° 0 min 0 W/m² 10,7 °C 13,2 °C 6,4 km/h (2 Bft)
18.05.2024 04:02 22,2 °C 13,2 °C 55 % 85 % 1008,6 hPa 0,0 l/m² 3,2 km/h (1 Bft) O-NO 77 ° 0 min 0 W/m² 10,7 °C 13,2 °C 4,8 km/h (1 Bft)
18.05.2024 04:03 22,2 °C 13,2 °C 55 % 85 % 1008,5 hPa 0,0 l/m² 3,4 km/h (1 Bft) O-NO 67 ° 0 min 0 W/m² 10,7 °C 13,2 °C 4,8 km/h (1 Bft)
18.05.2024 04:04 22,2 °C 13,1 °C 55 % 85 % 1008,5 hPa 0,0 l/m² 4,6 km/h (1 Bft) NO 45 ° 0 min 0 W/m² 10,6 °C 13,1 °C 6,4 km/h (2 Bft)
18.05.2024 04:06 22,2 °C 13,1 °C 55 % 85 % 1008,6 hPa 0,0 l/m² 5,0 km/h (1 Bft) O-NO 64 ° 0 min 0 W/m² 10,6 °C 13,1 °C 8,0 km/h (2 Bft)
18.05.2024 04:08 22,2 °C 13,1 °C 55 % 85 % 1008,6 hPa 0,0 l/m² 2,8 km/h (1 Bft) O-NO 58 ° 0 min 0 W/m² 10,6 °C 13,1 °C 4,8 km/h (1 Bft)
18.05.2024 04:10 22,2 °C 13,0 °C 55 % 86 % 1008,5 hPa 0,0 l/m² 3,7 km/h (1 Bft) O-NO 59 ° 0 min 0 W/m² 10,7 °C 13,0 °C 6,4 km/h (2 Bft)
18.05.2024 04:11 22,2 °C 13,0 °C 55 % 86 % 1008,6 hPa 0,0 l/m² 3,0 km/h (1 Bft) O-NO 65 ° 0 min 0 W/m² 10,7 °C 13,0 °C 6,4 km/h (2 Bft)
18.05.2024 04:13 22,2 °C 12,9 °C 55 % 86 % 1008,6 hPa 0,0 l/m² 5,1 km/h (1 Bft) O-NO 76 ° 0 min 0 W/m² 10,6 °C 12,9 °C 11,3 km/h (2 Bft)
18.05.2024 04:14 22,2 °C 12,9 °C 55 % 86 % 1008,6 hPa 0,0 l/m² 3,9 km/h (1 Bft) O-NO 65 ° 0 min 0 W/m² 10,6 °C 12,9 °C 8,0 km/h (2 Bft)
18.05.2024 04:16 22,2 °C 12,9 °C 55 % 86 % 1008,6 hPa 0,0 l/m² 2,6 km/h (1 Bft) O-NO 76 ° 0 min 0 W/m² 10,6 °C 12,9 °C 4,8 km/h (1 Bft)
18.05.2024 04:18 22,2 °C 12,8 °C 55 % 86 % 1008,6 hPa 0,0 l/m² 3,0 km/h (1 Bft) O-NO 76 ° 0 min 0 W/m² 10,5 °C 12,8 °C 4,8 km/h (1 Bft)
18.05.2024 04:20 22,2 °C 12,8 °C 55 % 87 % 1008,5 hPa 0,0 l/m² 2,5 km/h (1 Bft) O-NO 76 ° 0 min 0 W/m² 10,7 °C 12,8 °C 4,8 km/h (1 Bft)
18.05.2024 04:21 22,2 °C 12,7 °C 55 % 87 % 1008,6 hPa 0,0 l/m² 2,5 km/h (1 Bft) O-NO 76 ° 0 min 0 W/m² 10,6 °C 12,7 °C 3,2 km/h (1 Bft)
18.05.2024 04:23 22,2 °C 12,7 °C 55 % 87 % 1008,5 hPa 0,0 l/m² 2,3 km/h (1 Bft) O-NO 76 ° 0 min 0 W/m² 10,6 °C 12,7 °C 3,2 km/h (1 Bft)
18.05.2024 04:24 22,2 °C 12,7 °C 55 % 87 % 1008,5 hPa 0,0 l/m² 2,5 km/h (1 Bft) O-NO 76 ° 0 min 0 W/m² 10,6 °C 12,7 °C 4,8 km/h (1 Bft)
18.05.2024 04:26 22,2 °C 12,6 °C 55 % 87 % 1008,5 hPa 0,0 l/m² 2,5 km/h (1 Bft) O-NO 76 ° 0 min 0 W/m² 10,5 °C 12,6 °C 3,2 km/h (1 Bft)
18.05.2024 04:28 22,2 °C 12,5 °C 55 % 87 % 1008,5 hPa 0,0 l/m² 4,0 km/h (1 Bft) O 80 ° 0 min 0 W/m² 10,4 °C 12,5 °C 8,0 km/h (2 Bft)
18.05.2024 04:30 22,2 °C 12,4 °C 55 % 87 % 1008,5 hPa 0,0 l/m² 2,6 km/h (1 Bft) O-NO 78 ° 0 min 0 W/m² 10,3 °C 12,4 °C 4,8 km/h (1 Bft)
18.05.2024 04:31 22,1 °C 12,4 °C 55 % 88 % 1008,5 hPa 0,0 l/m² 2,0 km/h (1 Bft) O 82 ° 0 min 0 W/m² 10,5 °C 12,4 °C 4,8 km/h (1 Bft)
18.05.2024 04:33 22,2 °C 12,4 °C 55 % 88 % 1008,5 hPa 0,0 l/m² 1,2 km/h (1 Bft) O 81 ° 0 min 0 W/m² 10,5 °C 12,4 °C 3,2 km/h (1 Bft)
18.05.2024 04:34 22,1 °C 12,4 °C 55 % 88 % 1008,5 hPa 0,0 l/m² 1,1 km/h (1 Bft) O 81 ° 0 min 0 W/m² 10,5 °C 12,4 °C 3,2 km/h (1 Bft)
18.05.2024 04:36 22,1 °C 12,4 °C 55 % 88 % 1008,5 hPa 0,0 l/m² 2,4 km/h (1 Bft) NO 56 ° 0 min 0 W/m² 10,5 °C 12,4 °C 6,4 km/h (2 Bft)
18.05.2024 04:38 22,2 °C 12,4 °C 55 % 88 % 1008,6 hPa 0,0 l/m² 2,9 km/h (1 Bft) NO 55 ° 0 min 0 W/m² 10,5 °C 12,4 °C 4,8 km/h (1 Bft)
18.05.2024 04:39 22,1 °C 12,4 °C 55 % 88 % 1008,5 hPa 0,0 l/m² 0,7 km/h (0 Bft) NO 55 ° 0 min 0 W/m² 10,5 °C 12,4 °C 1,6 km/h (1 Bft)
18.05.2024 04:40 22,1 °C 12,4 °C 55 % 88 % 1008,5 hPa 0,0 l/m² 1,3 km/h (1 Bft) NO 55 ° 0 min 0 W/m² 10,5 °C 12,4 °C 3,2 km/h (1 Bft)
18.05.2024 04:42 22,2 °C 12,4 °C 55 % 88 % 1008,5 hPa 0,0 l/m² 3,1 km/h (1 Bft) O-NO 59 ° 0 min 0 W/m² 10,5 °C 12,4 °C 6,4 km/h (2 Bft)
18.05.2024 04:44 22,2 °C 12,4 °C 55 % 88 % 1008,5 hPa 0,0 l/m² 2,1 km/h (1 Bft) O-NO 59 ° 0 min 0 W/m² 10,5 °C 12,4 °C 4,8 km/h (1 Bft)
18.05.2024 04:46 22,1 °C 12,4 °C 55 % 88 % 1008,5 hPa 0,0 l/m² 2,5 km/h (1 Bft) O-NO 74 ° 0 min 0 W/m² 10,5 °C 12,4 °C 4,8 km/h (1 Bft)
18.05.2024 04:48 22,2 °C 12,4 °C 55 % 88 % 1008,5 hPa 0,0 l/m² 4,8 km/h (1 Bft) O-NO 76 ° 0 min 0 W/m² 10,5 °C 12,4 °C 6,4 km/h (2 Bft)
18.05.2024 04:50 22,2 °C 12,4 °C 55 % 89 % 1008,5 hPa 0,0 l/m² 3,1 km/h (1 Bft) O-NO 74 ° 0 min 0 W/m² 10,6 °C 12,4 °C 4,8 km/h (1 Bft)
18.05.2024 04:51 22,2 °C 12,4 °C 55 % 89 % 1008,5 hPa 0,0 l/m² 2,6 km/h (1 Bft) O-NO 74 ° 0 min 0 W/m² 10,6 °C 12,4 °C 4,8 km/h (1 Bft)
18.05.2024 04:52 22,2 °C 12,4 °C 55 % 89 % 1008,5 hPa 0,0 l/m² 1,4 km/h (1 Bft) O-NO 74 ° 0 min 0 W/m² 10,6 °C 12,4 °C 3,2 km/h (1 Bft)
18.05.2024 04:54 22,2 °C 12,4 °C 55 % 89 % 1008,4 hPa 0,0 l/m² 2,5 km/h (1 Bft) O-NO 74 ° 0 min 0 W/m² 10,6 °C 12,4 °C 3,2 km/h (1 Bft)
18.05.2024 04:56 22,1 °C 12,4 °C 55 % 89 % 1008,5 hPa 0,0 l/m² 1,9 km/h (1 Bft) O-NO 74 ° 0 min 0 W/m² 10,6 °C 12,4 °C 3,2 km/h (1 Bft)
18.05.2024 04:58 22,1 °C 12,4 °C 55 % 89 % 1008,5 hPa 0,0 l/m² 2,1 km/h (1 Bft) O-NO 74 ° 0 min 0 W/m² 10,6 °C 12,4 °C 3,2 km/h (1 Bft)
18.05.2024 05:00 22,1 °C 12,3 °C 55 % 89 % 1008,5 hPa 0,0 l/m² 2,3 km/h (1 Bft) O-NO 74 ° 0 min 0 W/m² 10,5 °C 12,3 °C 3,2 km/h (1 Bft)
18.05.2024 05:01 22,2 °C 12,3 °C 55 % 89 % 1008,5 hPa 0,0 l/m² 0,9 km/h (0 Bft) O-NO 69 ° 0 min 0 W/m² 10,5 °C 12,3 °C 4,8 km/h (1 Bft)
18.05.2024 05:03 22,1 °C 12,3 °C 55 % 89 % 1008,5 hPa 0,0 l/m² 0,5 km/h (0 Bft) O-NO 69 ° 0 min 0 W/m² 10,5 °C 12,3 °C 3,2 km/h (1 Bft)
18.05.2024 05:05 22,1 °C 12,3 °C 55 % 89 % 1008,5 hPa 0,0 l/m² 0,4 km/h (0 Bft) O-NO 69 ° 0 min 0 W/m² 10,5 °C 12,3 °C 1,6 km/h (1 Bft)
18.05.2024 05:07 22,1 °C 12,4 °C 55 % 89 % 1008,4 hPa 0,0 l/m² 1,3 km/h (1 Bft) O-NO 69 ° 0 min 0 W/m² 10,6 °C 12,4 °C 4,8 km/h (1 Bft)
18.05.2024 05:09 22,2 °C 12,4 °C 55 % 89 % 1008,4 hPa 0,0 l/m² 0,8 km/h (0 Bft) O-NO 69 ° 0 min 0 W/m² 10,6 °C 12,4 °C 3,2 km/h (1 Bft)
18.05.2024 05:11 22,2 °C 12,4 °C 55 % 89 % 1008,5 hPa 0,0 l/m² 0,0 km/h (0 Bft) O-NO 69 ° 0 min 0 W/m² 10,6 °C 12,4 °C 0,0 km/h (0 Bft)
18.05.2024 05:12 22,1 °C 12,4 °C 55 % 89 % 1008,4 hPa 0,0 l/m² 0,1 km/h (0 Bft) O-NO 69 ° 0 min 0 W/m² 10,6 °C 12,4 °C 1,6 km/h (1 Bft)
18.05.2024 05:13 22,1 °C 12,4 °C 55 % 89 % 1008,5 hPa 0,0 l/m² 1,1 km/h (1 Bft) O-NO 69 ° 0 min 0 W/m² 10,6 °C 12,4 °C 3,2 km/h (1 Bft)
18.05.2024 05:15 22,1 °C 12,5 °C 55 % 89 % 1008,5 hPa 0,0 l/m² 0,3 km/h (0 Bft) O-NO 69 ° 0 min 0 W/m² 10,7 °C 12,5 °C 1,6 km/h (1 Bft)
18.05.2024 05:17 22,1 °C 12,5 °C 55 % 89 % 1008,5 hPa 0,0 l/m² 1,3 km/h (1 Bft) O-NO 69 ° 0 min 0 W/m² 10,7 °C 12,5 °C 4,8 km/h (1 Bft)
18.05.2024 05:19 22,1 °C 12,6 °C 55 % 89 % 1008,5 hPa 0,0 l/m² 1,2 km/h (1 Bft) O-NO 69 ° 0 min 0 W/m² 10,8 °C 12,6 °C 3,2 km/h (1 Bft)
18.05.2024 05:21 22,1 °C 12,6 °C 55 % 89 % 1008,5 hPa 0,0 l/m² 1,8 km/h (1 Bft) O-NO 69 ° 0 min 0 W/m² 10,8 °C 12,6 °C 4,8 km/h (1 Bft)
18.05.2024 05:22 22,1 °C 12,6 °C 55 % 89 % 1008,5 hPa 0,0 l/m² 3,5 km/h (1 Bft) NO 42 ° 0 min 0 W/m² 10,8 °C 12,6 °C 6,4 km/h (2 Bft)
18.05.2024 05:23 22,1 °C 12,6 °C 55 % 89 % 1008,5 hPa 0,0 l/m² 2,4 km/h (1 Bft) NO 42 ° 0 min 0 W/m² 10,8 °C 12,6 °C 4,8 km/h (1 Bft)
18.05.2024 05:25 22,1 °C 12,7 °C 55 % 89 % 1008,5 hPa 0,0 l/m² 3,8 km/h (1 Bft) NO 34 ° 0 min 0 W/m² 10,9 °C 12,7 °C 8,0 km/h (2 Bft)
18.05.2024 05:27 22,1 °C 12,7 °C 55 % 89 % 1008,6 hPa 0,0 l/m² 3,0 km/h (1 Bft) N-NO 19 ° 0 min 0 W/m² 10,9 °C 12,7 °C 6,4 km/h (2 Bft)
18.05.2024 05:29 22,1 °C 12,7 °C 55 % 89 % 1008,7 hPa 0,0 l/m² 3,1 km/h (1 Bft) N-NO 17 ° 0 min 0 W/m² 10,9 °C 12,7 °C 4,8 km/h (1 Bft)
18.05.2024 05:31 22,1 °C 12,8 °C 55 % 89 % 1008,6 hPa 0,0 l/m² 2,8 km/h (1 Bft) N-NO 19 ° 0 min 0 W/m² 11,0 °C 12,8 °C 4,8 km/h (1 Bft)
18.05.2024 05:32 22,1 °C 12,8 °C 55 % 89 % 1008,6 hPa 0,0 l/m² 2,3 km/h (1 Bft) N-NO 20 ° 0 min 0 W/m² 11,0 °C 12,8 °C 4,8 km/h (1 Bft)
18.05.2024 05:33 22,1 °C 12,8 °C 55 % 89 % 1008,6 hPa 0,0 l/m² 0,8 km/h (0 Bft) N-NO 20 ° 0 min 0 W/m² 11,0 °C 12,8 °C 3,2 km/h (1 Bft)
18.05.2024 05:35 22,1 °C 12,8 °C 55 % 89 % 1008,6 hPa 0,0 l/m² 1,2 km/h (1 Bft) N-NO 20 ° 0 min 0 W/m² 11,0 °C 12,8 °C 3,2 km/h (1 Bft)
18.05.2024 05:37 22,1 °C 12,8 °C 55 % 89 % 1008,6 hPa 0,0 l/m² 1,4 km/h (1 Bft) N-NO 20 ° 0 min 5 W/m² 11,0 °C 12,8 °C 4,8 km/h (1 Bft)
18.05.2024 05:39 22,1 °C 12,9 °C 55 % 89 % 1008,6 hPa 0,0 l/m² 1,1 km/h (1 Bft) N-NO 20 ° 0 min 5 W/m² 11,1 °C 12,9 °C 3,2 km/h (1 Bft)
18.05.2024 05:41 22,1 °C 12,9 °C 55 % 89 % 1008,6 hPa 0,0 l/m² 0,6 km/h (0 Bft) N-NO 20 ° 0 min 5 W/m² 11,1 °C 12,9 °C 3,2 km/h (1 Bft)
18.05.2024 05:42 22,1 °C 12,9 °C 55 % 89 % 1008,6 hPa 0,0 l/m² 0,2 km/h (0 Bft) N-NO 20 ° 0 min 5 W/m² 11,1 °C 12,9 °C 1,6 km/h (1 Bft)
18.05.2024 05:43 22,1 °C 12,9 °C 55 % 89 % 1008,6 hPa 0,0 l/m² 1,5 km/h (1 Bft) N-NO 20 ° 0 min 5 W/m² 11,1 °C 12,9 °C 3,2 km/h (1 Bft)
18.05.2024 05:45 22,1 °C 12,9 °C 55 % 89 % 1008,7 hPa 0,0 l/m² 1,0 km/h (0 Bft) N-NO 20 ° 0 min 7 W/m² 11,1 °C 12,9 °C 3,2 km/h (1 Bft)
18.05.2024 05:47 22,1 °C 12,9 °C 55 % 89 % 1008,7 hPa 0,0 l/m² 2,4 km/h (1 Bft) N-NO 32 ° 0 min 7 W/m² 11,1 °C 12,9 °C 4,8 km/h (1 Bft)
18.05.2024 05:49 22,1 °C 12,9 °C 55 % 89 % 1008,7 hPa 0,0 l/m² 2,1 km/h (1 Bft) NO 35 ° 0 min 7 W/m² 11,1 °C 12,9 °C 4,8 km/h (1 Bft)
18.05.2024 05:51 22,1 °C 13,0 °C 55 % 89 % 1008,7 hPa 0,0 l/m² 3,0 km/h (1 Bft) N-NO 30 ° 0 min 7 W/m² 11,2 °C 13,0 °C 4,8 km/h (1 Bft)
18.05.2024 05:52 22,1 °C 13,0 °C 55 % 89 % 1008,7 hPa 0,0 l/m² 1,4 km/h (1 Bft) N-NO 20 ° 0 min 9 W/m² 11,2 °C 13,0 °C 4,8 km/h (1 Bft)
18.05.2024 05:53 22,1 °C 13,0 °C 55 % 89 % 1008,7 hPa 0,0 l/m² 1,3 km/h (1 Bft) N-NO 21 ° 0 min 9 W/m² 11,2 °C 13,0 °C 3,2 km/h (1 Bft)
18.05.2024 05:55 22,1 °C 13,0 °C 55 % 89 % 1008,7 hPa 0,0 l/m² 3,0 km/h (1 Bft) NO 36 ° 0 min 9 W/m² 11,2 °C 13,0 °C 4,8 km/h (1 Bft)
18.05.2024 05:57 22,1 °C 13,1 °C 55 % 89 % 1008,7 hPa 0,0 l/m² 2,6 km/h (1 Bft) NO 38 ° 0 min 9 W/m² 11,3 °C 13,1 °C 6,4 km/h (2 Bft)
18.05.2024 05:59 22,1 °C 13,1 °C 55 % 89 % 1008,7 hPa 0,0 l/m² 3,3 km/h (1 Bft) NO 34 ° 0 min 11 W/m² 11,3 °C 13,1 °C 6,4 km/h (2 Bft)
18.05.2024 06:01 22,1 °C 13,1 °C 55 % 89 % 1008,7 hPa 0,0 l/m² 1,9 km/h (1 Bft) NO 38 ° 0 min 11 W/m² 11,3 °C 13,1 °C 6,4 km/h (2 Bft)
18.05.2024 06:02 22,1 °C 13,1 °C 55 % 89 % 1008,7 hPa 0,0 l/m² 4,6 km/h (1 Bft) NO 45 ° 0 min 11 W/m² 11,3 °C 13,1 °C 6,4 km/h (2 Bft)
18.05.2024 06:03 22,1 °C 13,1 °C 55 % 89 % 1008,7 hPa 0,0 l/m² 3,8 km/h (1 Bft) NO 47 ° 0 min 12 W/m² 11,3 °C 13,1 °C 4,8 km/h (1 Bft)
18.05.2024 06:05 22,1 °C 13,1 °C 55 % 89 % 1008,7 hPa 0,0 l/m² 1,2 km/h (1 Bft) NO 47 ° 0 min 12 W/m² 11,3 °C 13,1 °C 3,2 km/h (1 Bft)
18.05.2024 06:07 22,1 °C 13,1 °C 55 % 89 % 1008,7 hPa 0,0 l/m² 3,4 km/h (1 Bft) NO 50 ° 0 min 14 W/m² 11,3 °C 13,1 °C 4,8 km/h (1 Bft)
18.05.2024 06:09 22,1 °C 13,1 °C 55 % 89 % 1008,7 hPa 0,0 l/m² 3,8 km/h (1 Bft) NO 55 ° 0 min 16 W/m² 11,3 °C 13,1 °C 8,0 km/h (2 Bft)
18.05.2024 06:11 22,1 °C 13,2 °C 55 % 89 % 1008,7 hPa 0,0 l/m² 3,5 km/h (1 Bft) NO 50 ° 0 min 18 W/m² 11,4 °C 13,2 °C 6,4 km/h (2 Bft)
18.05.2024 06:12 22,1 °C 13,2 °C 55 % 89 % 1008,6 hPa 0,0 l/m² 3,3 km/h (1 Bft) O-NO 57 ° 0 min 21 W/m² 11,4 °C 13,2 °C 6,4 km/h (2 Bft)
18.05.2024 06:13 22,1 °C 13,2 °C 55 % 89 % 1008,6 hPa 0,0 l/m² 2,7 km/h (1 Bft) O-NO 59 ° 0 min 25 W/m² 11,4 °C 13,2 °C 4,8 km/h (1 Bft)
18.05.2024 06:15 22,1 °C 13,2 °C 55 % 89 % 1008,6 hPa 0,0 l/m² 2,3 km/h (1 Bft) O-NO 63 ° 0 min 28 W/m² 11,4 °C 13,2 °C 4,8 km/h (1 Bft)
18.05.2024 06:17 22,1 °C 13,2 °C 55 % 89 % 1008,6 hPa 0,0 l/m² 0,6 km/h (0 Bft) O-NO 63 ° 0 min 33 W/m² 11,4 °C 13,2 °C 3,2 km/h (1 Bft)
18.05.2024 06:19 22,1 °C 13,2 °C 55 % 89 % 1008,6 hPa 0,0 l/m² 1,3 km/h (1 Bft) NO 47 ° 0 min 37 W/m² 11,4 °C 13,2 °C 4,8 km/h (1 Bft)
18.05.2024 06:21 22,1 °C 13,2 °C 55 % 89 % 1008,6 hPa 0,0 l/m² 1,6 km/h (1 Bft) NO 44 ° 0 min 39 W/m² 11,4 °C 13,2 °C 3,2 km/h (1 Bft)
18.05.2024 06:22 22,1 °C 13,2 °C 55 % 89 % 1008,7 hPa 0,0 l/m² 3,0 km/h (1 Bft) NO 44 ° 0 min 39 W/m² 11,4 °C 13,2 °C 4,8 km/h (1 Bft)
18.05.2024 06:23 22,1 °C 13,2 °C 55 % 89 % 1008,7 hPa 0,0 l/m² 2,4 km/h (1 Bft) NO 40 ° 0 min 40 W/m² 11,4 °C 13,2 °C 4,8 km/h (1 Bft)
18.05.2024 06:25 22,1 °C 13,3 °C 55 % 89 % 1008,7 hPa 0,0 l/m² 2,1 km/h (1 Bft) NO 42 ° 0 min 42 W/m² 11,5 °C 13,3 °C 4,8 km/h (1 Bft)
18.05.2024 06:27 22,1 °C 13,3 °C 55 % 89 % 1008,7 hPa 0,0 l/m² 3,4 km/h (1 Bft) NO 37 ° 0 min 44 W/m² 11,5 °C 13,3 °C 6,4 km/h (2 Bft)
18.05.2024 06:29 22,1 °C 13,3 °C 55 % 89 % 1008,7 hPa 0,0 l/m² 2,4 km/h (1 Bft) NO 38 ° 0 min 42 W/m² 11,5 °C 13,3 °C 4,8 km/h (1 Bft)
18.05.2024 06:31 22,1 °C 13,3 °C 55 % 89 % 1008,8 hPa 0,0 l/m² 3,0 km/h (1 Bft) NO 40 ° 0 min 40 W/m² 11,5 °C 13,3 °C 6,4 km/h (2 Bft)
18.05.2024 06:32 22,1 °C 13,4 °C 55 % 89 % 1008,8 hPa 0,0 l/m² 2,7 km/h (1 Bft) NO 51 ° 0 min 40 W/m² 11,6 °C 13,4 °C 8,0 km/h (2 Bft)
18.05.2024 06:33 22,1 °C 13,4 °C 55 % 89 % 1008,8 hPa 0,0 l/m² 3,9 km/h (1 Bft) N-NO 31 ° 0 min 39 W/m² 11,6 °C 13,4 °C 6,4 km/h (2 Bft)
18.05.2024 06:35 22,1 °C 13,4 °C 55 % 89 % 1008,8 hPa 0,0 l/m² 3,7 km/h (1 Bft) O-NO 61 ° 0 min 39 W/m² 11,6 °C 13,4 °C 8,0 km/h (2 Bft)
18.05.2024 06:37 22,1 °C 13,4 °C 55 % 89 % 1008,9 hPa 0,0 l/m² 2,1 km/h (1 Bft) N-NO 29 ° 0 min 39 W/m² 11,6 °C 13,4 °C 6,4 km/h (2 Bft)
18.05.2024 06:39 22,1 °C 13,4 °C 55 % 89 % 1008,9 hPa 0,0 l/m² 3,7 km/h (1 Bft) NO 42 ° 0 min 40 W/m² 11,6 °C 13,4 °C 8,0 km/h (2 Bft)
18.05.2024 06:41 22,1 °C 13,4 °C 55 % 89 % 1008,8 hPa 0,0 l/m² 1,3 km/h (1 Bft) NO 45 ° 0 min 42 W/m² 11,6 °C 13,4 °C 4,8 km/h (1 Bft)
18.05.2024 06:42 22,1 °C 13,5 °C 55 % 89 % 1008,9 hPa 0,0 l/m² 4,0 km/h (1 Bft) O-NO 72 ° 0 min 42 W/m² 11,7 °C 13,5 °C 8,0 km/h (2 Bft)
18.05.2024 06:43 22,1 °C 13,5 °C 55 % 89 % 1008,9 hPa 0,0 l/m² 2,7 km/h (1 Bft) O-NO 58 ° 0 min 42 W/m² 11,7 °C 13,5 °C 6,4 km/h (2 Bft)
18.05.2024 06:45 22,1 °C 13,5 °C 55 % 88 % 1008,8 hPa 0,0 l/m² 5,6 km/h (2 Bft) NO 40 ° 0 min 42 W/m² 11,6 °C 13,5 °C 9,7 km/h (2 Bft)
18.05.2024 06:47 22,1 °C 13,5 °C 55 % 88 % 1008,9 hPa 0,0 l/m² 5,3 km/h (1 Bft) NO 52 ° 0 min 42 W/m² 11,6 °C 13,5 °C 8,0 km/h (2 Bft)
18.05.2024 06:48 22,1 °C 13,6 °C 55 % 88 % 1008,9 hPa 0,0 l/m² 3,7 km/h (1 Bft) N-NO 29 ° 0 min 42 W/m² 11,6 °C 13,6 °C 4,8 km/h (1 Bft)
18.05.2024 06:50 22,1 °C 13,6 °C 55 % 88 % 1008,9 hPa 0,0 l/m² 2,8 km/h (1 Bft) O-NO 58 ° 0 min 44 W/m² 11,6 °C 13,6 °C 8,0 km/h (2 Bft)
18.05.2024 06:51 22,1 °C 13,6 °C 55 % 88 % 1008,9 hPa 0,0 l/m² 2,8 km/h (1 Bft) O-NO 70 ° 0 min 46 W/m² 11,6 °C 13,6 °C 4,8 km/h (1 Bft)
18.05.2024 06:53 22,1 °C 13,6 °C 55 % 88 % 1008,9 hPa 0,0 l/m² 4,1 km/h (1 Bft) O-NO 57 ° 2 min 53 W/m² 11,6 °C 13,6 °C 8,0 km/h (2 Bft)
18.05.2024 06:55 22,1 °C 13,6 °C 55 % 88 % 1008,9 hPa 0,0 l/m² 2,4 km/h (1 Bft) NO 51 ° 2 min 58 W/m² 11,6 °C 13,6 °C 4,8 km/h (1 Bft)
18.05.2024 06:57 22,1 °C 13,6 °C 55 % 88 % 1008,9 hPa 0,0 l/m² 4,1 km/h (1 Bft) O-NO 61 ° 2 min 60 W/m² 11,6 °C 13,6 °C 8,0 km/h (2 Bft)
18.05.2024 06:59 22,1 °C 13,6 °C 55 % 88 % 1008,8 hPa 0,0 l/m² 1,2 km/h (1 Bft) O-NO 61 ° 2 min 60 W/m² 11,6 °C 13,6 °C 4,8 km/h (1 Bft)
18.05.2024 07:01 22,1 °C 13,6 °C 55 % 88 % 1008,8 hPa 0,0 l/m² 4,4 km/h (1 Bft) O 82 ° 2 min 62 W/m² 11,6 °C 13,6 °C 6,4 km/h (2 Bft)
18.05.2024 07:03 22,1 °C 13,6 °C 55 % 88 % 1008,9 hPa 0,0 l/m² 4,1 km/h (1 Bft) NO 56 ° 2 min 65 W/m² 11,6 °C 13,6 °C 6,4 km/h (2 Bft)
18.05.2024 07:05 22,1 °C 13,6 °C 55 % 88 % 1008,9 hPa 0,0 l/m² 2,0 km/h (1 Bft) O-NO 57 ° 2 min 70 W/m² 11,6 °C 13,6 °C 4,8 km/h (1 Bft)
18.05.2024 07:07 22,1 °C 13,7 °C 55 % 88 % 1008,8 hPa 0,0 l/m² 0,5 km/h (0 Bft) O-NO 57 ° 2 min 74 W/m² 11,7 °C 13,7 °C 1,6 km/h (1 Bft)
18.05.2024 07:09 22,0 °C 13,7 °C 55 % 88 % 1008,8 hPa 0,0 l/m² 1,0 km/h (0 Bft) O 86 ° 2 min 77 W/m² 11,7 °C 13,7 °C 4,8 km/h (1 Bft)
18.05.2024 07:11 22,1 °C 13,7 °C 55 % 88 % 1008,8 hPa 0,0 l/m² 3,0 km/h (1 Bft) O 86 ° 2 min 81 W/m² 11,7 °C 13,7 °C 4,8 km/h (1 Bft)
18.05.2024 07:13 22,1 °C 13,7 °C 55 % 88 % 1008,8 hPa 0,0 l/m² 3,4 km/h (1 Bft) O 82 ° 2 min 83 W/m² 11,7 °C 13,7 °C 6,4 km/h (2 Bft)
18.05.2024 07:15 22,1 °C 13,7 °C 55 % 88 % 1008,9 hPa 0,0 l/m² 6,4 km/h (2 Bft) O-NO 74 ° 2 min 88 W/m² 11,7 °C 13,7 °C 8,0 km/h (2 Bft)
18.05.2024 07:17 22,1 °C 13,7 °C 55 % 88 % 1008,9 hPa 0,0 l/m² 4,9 km/h (1 Bft) O-NO 72 ° 2 min 98 W/m² 11,7 °C 13,7 °C 6,4 km/h (2 Bft)
18.05.2024 07:19 22,0 °C 13,8 °C 55 % 88 % 1008,9 hPa 0,0 l/m² 3,1 km/h (1 Bft) O-NO 76 ° 2 min 104 W/m² 11,8 °C 13,8 °C 6,4 km/h (2 Bft)
18.05.2024 07:20 22,0 °C 13,8 °C 55 % 88 % 1008,9 hPa 0,0 l/m² 3,7 km/h (1 Bft) O 87 ° 1 min 105 W/m² 11,8 °C 13,8 °C 6,4 km/h (2 Bft)
18.05.2024 07:21 22,0 °C 13,8 °C 55 % 88 % 1008,8 hPa 0,0 l/m² 1,6 km/h (1 Bft) O 87 ° 1 min 113 W/m² 11,8 °C 13,8 °C 3,2 km/h (1 Bft)
18.05.2024 07:22 22,0 °C 13,8 °C 55 % 88 % 1008,8 hPa 0,0 l/m² 3,0 km/h (1 Bft) NO 37 ° 1 min 116 W/m² 11,8 °C 13,8 °C 4,8 km/h (1 Bft)
18.05.2024 07:24 22,0 °C 13,9 °C 55 % 88 % 1008,8 hPa 0,0 l/m² 0,6 km/h (0 Bft) NO 37 ° 2 min 123 W/m² 11,9 °C 13,9 °C 3,2 km/h (1 Bft)
18.05.2024 07:26 22,0 °C 14,1 °C 55 % 88 % 1008,8 hPa 0,0 l/m² 1,4 km/h (1 Bft) O-NO 57 ° 2 min 130 W/m² 12,1 °C 14,1 °C 6,4 km/h (2 Bft)
18.05.2024 07:28 22,0 °C 14,1 °C 55 % 87 % 1008,8 hPa 0,0 l/m² 3,2 km/h (1 Bft) O-NO 60 ° 2 min 128 W/m² 12,0 °C 14,1 °C 6,4 km/h (2 Bft)
18.05.2024 07:30 22,0 °C 14,1 °C 55 % 87 % 1008,9 hPa 0,0 l/m² 2,0 km/h (1 Bft) O 88 ° 2 min 128 W/m² 12,0 °C 14,1 °C 4,8 km/h (1 Bft)
18.05.2024 07:32 22,0 °C 14,2 °C 55 % 87 % 1009,0 hPa 0,0 l/m² 6,8 km/h (2 Bft) O-NO 71 ° 2 min 132 W/m² 12,1 °C 14,0 °C 8,0 km/h (2 Bft)
18.05.2024 07:34 22,1 °C 14,2 °C 55 % 87 % 1009,0 hPa 0,0 l/m² 6,2 km/h (2 Bft) O-NO 68 ° 2 min 144 W/m² 12,1 °C 14,2 °C 8,0 km/h (2 Bft)
18.05.2024 07:36 22,0 °C 14,1 °C 55 % 87 % 1009,0 hPa 0,0 l/m² 6,0 km/h (2 Bft) O 80 ° 2 min 155 W/m² 12,0 °C 14,1 °C 8,0 km/h (2 Bft)
18.05.2024 07:38 22,1 °C 14,2 °C 55 % 87 % 1009,0 hPa 0,0 l/m² 4,8 km/h (1 Bft) O 84 ° 2 min 162 W/m² 12,1 °C 14,2 °C 9,7 km/h (2 Bft)
18.05.2024 07:40 22,0 °C 14,2 °C 55 % 87 % 1009,0 hPa 0,0 l/m² 3,1 km/h (1 Bft) O-NO 78 ° 2 min 149 W/m² 12,1 °C 14,2 °C 4,8 km/h (1 Bft)
18.05.2024 07:42 22,0 °C 14,2 °C 55 % 87 % 1009,0 hPa 0,0 l/m² 1,6 km/h (1 Bft) O-NO 78 ° 2 min 135 W/m² 12,1 °C 14,2 °C 3,2 km/h (1 Bft)
18.05.2024 07:44 22,0 °C 14,3 °C 55 % 87 % 1009,0 hPa 0,0 l/m² 4,4 km/h (1 Bft) O-NO 61 ° 2 min 123 W/m² 12,2 °C 14,3 °C 6,4 km/h (2 Bft)
18.05.2024 07:46 22,0 °C 14,3 °C 55 % 87 % 1009,1 hPa 0,0 l/m² 3,5 km/h (1 Bft) O 86 ° 2 min 118 W/m² 12,2 °C 14,3 °C 4,8 km/h (1 Bft)
18.05.2024 07:48 22,0 °C 14,3 °C 55 % 87 % 1009,1 hPa 0,0 l/m² 3,4 km/h (1 Bft) O-NO 66 ° 2 min 116 W/m² 12,2 °C 14,3 °C 6,4 km/h (2 Bft)
18.05.2024 07:50 22,0 °C 14,3 °C 55 % 86 % 1009,1 hPa 0,0 l/m² 3,0 km/h (1 Bft) NO 42 ° 2 min 118 W/m² 12,0 °C 14,3 °C 4,8 km/h (1 Bft)
18.05.2024 07:52 22,0 °C 14,3 °C 55 % 86 % 1009,1 hPa 0,0 l/m² 2,7 km/h (1 Bft) O-NO 62 ° 2 min 113 W/m² 12,0 °C 14,3 °C 6,4 km/h (2 Bft)
18.05.2024 07:54 22,0 °C 14,4 °C 55 % 86 % 1009,0 hPa 0,0 l/m² 4,3 km/h (1 Bft) O-NO 72 ° 2 min 111 W/m² 12,1 °C 14,4 °C 6,4 km/h (2 Bft)
18.05.2024 07:56 22,0 °C 14,3 °C 55 % 86 % 1009,1 hPa 0,0 l/m² 3,7 km/h (1 Bft) NO 52 ° 2 min 113 W/m² 12,0 °C 14,3 °C 6,4 km/h (2 Bft)
18.05.2024 07:58 22,0 °C 14,4 °C 55 % 87 % 1009,1 hPa 0,0 l/m² 3,2 km/h (1 Bft) O-NO 70 ° 2 min 130 W/m² 12,3 °C 14,4 °C 6,4 km/h (2 Bft)
18.05.2024 08:00 22,0 °C 14,4 °C 55 % 86 % 1009,1 hPa 0,0 l/m² 3,0 km/h (1 Bft) O-NO 71 ° 2 min 148 W/m² 12,1 °C 14,4 °C 6,4 km/h (2 Bft)
18.05.2024 08:02 22,0 °C 14,5 °C 55 % 86 % 1009,2 hPa 0,0 l/m² 1,9 km/h (1 Bft) O-NO 65 ° 2 min 162 W/m² 12,2 °C 14,5 °C 6,4 km/h (2 Bft)
18.05.2024 08:04 22,0 °C 14,6 °C 55 % 86 % 1009,1 hPa 0,0 l/m² 2,2 km/h (1 Bft) NO 55 ° 2 min 174 W/m² 12,3 °C 14,6 °C 4,8 km/h (1 Bft)
18.05.2024 08:06 22,0 °C 14,6 °C 55 % 86 % 1009,2 hPa 0,0 l/m² 1,1 km/h (1 Bft) NO 55 ° 2 min 176 W/m² 12,3 °C 14,6 °C 4,8 km/h (1 Bft)
18.05.2024 08:08 22,0 °C 14,7 °C 55 % 86 % 1009,2 hPa 0,0 l/m² 0,0 km/h (0 Bft) NO 55 ° 2 min 178 W/m² 12,4 °C 14,7 °C 0,0 km/h (0 Bft)
18.05.2024 08:10 22,0 °C 14,7 °C 55 % 86 % 1009,1 hPa 0,0 l/m² 1,2 km/h (1 Bft) O-NO 63 ° 2 min 197 W/m² 12,4 °C 14,7 °C 4,8 km/h (1 Bft)
18.05.2024 08:12 22,0 °C 14,8 °C 55 % 86 % 1009,2 hPa 0,0 l/m² 2,1 km/h (1 Bft) O-NO 63 ° 2 min 216 W/m² 12,5 °C 14,8 °C 4,8 km/h (1 Bft)
18.05.2024 08:14 22,0 °C 14,9 °C 55 % 86 % 1009,1 hPa 0,0 l/m² 1,4 km/h (1 Bft) O-NO 63 ° 2 min 216 W/m² 12,6 °C 14,9 °C 3,2 km/h (1 Bft)
18.05.2024 08:16 22,0 °C 14,9 °C 55 % 85 % 1009,1 hPa 0,0 l/m² 0,0 km/h (0 Bft) O-NO 63 ° 2 min 213 W/m² 12,4 °C 14,9 °C 0,0 km/h (0 Bft)
18.05.2024 08:18 22,0 °C 14,8 °C 55 % 84 % 1009,1 hPa 0,0 l/m² 0,0 km/h (0 Bft) O-NO 63 ° 2 min 206 W/m² 12,1 °C 14,8 °C 0,0 km/h (0 Bft)
18.05.2024 08:20 22,0 °C 14,8 °C 55 % 85 % 1009,2 hPa 0,0 l/m² 0,6 km/h (0 Bft) O-NO 63 ° 2 min 192 W/m² 12,3 °C 14,8 °C 1,6 km/h (1 Bft)
18.05.2024 08:22 22,0 °C 14,9 °C 56 % 85 % 1009,3 hPa 0,0 l/m² 2,6 km/h (1 Bft) O-NO 63 ° 2 min 172 W/m² 12,4 °C 14,9 °C 3,2 km/h (1 Bft)
18.05.2024 08:24 22,1 °C 14,9 °C 56 % 85 % 1009,3 hPa 0,0 l/m² 3,2 km/h (1 Bft) O-NO 63 ° 2 min 176 W/m² 12,4 °C 14,9 °C 4,8 km/h (1 Bft)
18.05.2024 08:26 22,1 °C 14,9 °C 56 % 85 % 1009,3 hPa 0,0 l/m² 1,7 km/h (1 Bft) O-NO 63 ° 2 min 190 W/m² 12,4 °C 14,9 °C 4,8 km/h (1 Bft)
18.05.2024 08:28 22,1 °C 15,0 °C 56 % 85 % 1009,3 hPa 0,0 l/m² 3,1 km/h (1 Bft) NO 49 ° 2 min 181 W/m² 12,5 °C 15,0 °C 6,4 km/h (2 Bft)
18.05.2024 08:30 22,1 °C 15,1 °C 56 % 84 % 1009,3 hPa 0,0 l/m² 3,8 km/h (1 Bft) O-NO 61 ° 2 min 174 W/m² 12,4 °C 15,1 °C 6,4 km/h (2 Bft)
18.05.2024 08:32 22,1 °C 15,1 °C 56 % 84 % 1009,4 hPa 0,0 l/m² 3,5 km/h (1 Bft) O-NO 63 ° 2 min 178 W/m² 12,4 °C 15,1 °C 6,4 km/h (2 Bft)
18.05.2024 08:34 22,1 °C 15,0 °C 56 % 84 % 1009,3 hPa 0,0 l/m² 1,7 km/h (1 Bft) O-NO 63 ° 2 min 183 W/m² 12,3 °C 15,0 °C 4,8 km/h (1 Bft)
18.05.2024 08:36 22,1 °C 15,0 °C 56 % 84 % 1009,3 hPa 0,0 l/m² 1,9 km/h (1 Bft) O-NO 63 ° 2 min 186 W/m² 12,3 °C 15,0 °C 3,2 km/h (1 Bft)
18.05.2024 08:38 22,1 °C 15,0 °C 56 % 84 % 1009,4 hPa 0,0 l/m² 4,9 km/h (1 Bft) O-NO 76 ° 2 min 179 W/m² 12,3 °C 15,0 °C 6,4 km/h (2 Bft)
18.05.2024 08:40 22,1 °C 15,1 °C 56 % 84 % 1009,4 hPa 0,0 l/m² 5,3 km/h (1 Bft) O-NO 73 ° 2 min 181 W/m² 12,4 °C 15,1 °C 6,4 km/h (2 Bft)
18.05.2024 08:42 22,1 °C 15,0 °C 57 % 84 % 1009,4 hPa 0,0 l/m² 3,9 km/h (1 Bft) NO 44 ° 2 min 199 W/m² 12,3 °C 15,0 °C 6,4 km/h (2 Bft)
18.05.2024 08:44 22,1 °C 15,2 °C 57 % 84 % 1009,4 hPa 0,0 l/m² 1,0 km/h (0 Bft) NO 44 ° 2 min 237 W/m² 12,5 °C 15,2 °C 3,2 km/h (1 Bft)
18.05.2024 08:46 22,1 °C 15,2 °C 57 % 82 % 1009,4 hPa 0,0 l/m² 0,1 km/h (0 Bft) NO 44 ° 2 min 301 W/m² 12,1 °C 15,2 °C 1,6 km/h (1 Bft)
18.05.2024 08:48 22,1 °C 15,3 °C 57 % 83 % 1009,4 hPa 0,0 l/m² 1,7 km/h (1 Bft) NO 44 ° 2 min 348 W/m² 12,4 °C 15,3 °C 4,8 km/h (1 Bft)
18.05.2024 08:50 22,1 °C 15,6 °C 57 % 81 % 1009,4 hPa 0,0 l/m² 2,2 km/h (1 Bft) NO 44 ° 2 min 292 W/m² 12,3 °C 15,6 °C 4,8 km/h (1 Bft)
18.05.2024 08:52 22,1 °C 15,4 °C 57 % 80 % 1009,4 hPa 0,0 l/m² 1,1 km/h (1 Bft) NO 44 ° 2 min 274 W/m² 12,0 °C 15,4 °C 3,2 km/h (1 Bft)
18.05.2024 08:54 22,1 °C 15,5 °C 57 % 80 % 1009,4 hPa 0,0 l/m² 0,0 km/h (0 Bft) NO 44 ° 2 min 239 W/m² 12,1 °C 15,5 °C 0,0 km/h (0 Bft)
18.05.2024 08:56 22,1 °C 15,5 °C 57 % 80 % 1009,4 hPa 0,0 l/m² 0,8 km/h (0 Bft) NO 44 ° 2 min 193 W/m² 12,1 °C 15,5 °C 3,2 km/h (1 Bft)
18.05.2024 08:58 22,2 °C 15,4 °C 57 % 80 % 1009,5 hPa 0,0 l/m² 0,0 km/h (0 Bft) NO 44 ° 2 min 181 W/m² 12,0 °C 15,4 °C 0,0 km/h (0 Bft)
18.05.2024 09:00 22,1 °C 15,4 °C 57 % 80 % 1009,5 hPa 0,0 l/m² 1,4 km/h (1 Bft) NO 44 ° 2 min 181 W/m² 12,0 °C 15,4 °C 3,2 km/h (1 Bft)
18.05.2024 09:01 22,2 °C 15,4 °C 57 % 81 % 1009,5 hPa 0,0 l/m² 0,1 km/h (0 Bft) NO 44 ° 1 min 178 W/m² 12,2 °C 15,4 °C 1,6 km/h (1 Bft)
18.05.2024 09:02 22,2 °C 15,4 °C 57 % 80 % 1009,5 hPa 0,0 l/m² 0,0 km/h (0 Bft) NO 44 ° 1 min 176 W/m² 12,0 °C 15,4 °C 0,0 km/h (0 Bft)
18.05.2024 09:03 22,2 °C 15,4 °C 57 % 81 % 1009,5 hPa 0,0 l/m² 1,3 km/h (1 Bft) O-NO 76 ° 1 min 171 W/m² 12,2 °C 15,4 °C 4,8 km/h (1 Bft)
18.05.2024 09:05 22,2 °C 15,3 °C 57 % 82 % 1009,4 hPa 0,0 l/m² 4,2 km/h (1 Bft) O 86 ° 2 min 167 W/m² 12,2 °C 15,3 °C 6,4 km/h (2 Bft)
18.05.2024 09:07 22,1 °C 15,2 °C 57 % 82 % 1009,5 hPa 0,0 l/m² 3,4 km/h (1 Bft) O 86 ° 2 min 172 W/m² 12,1 °C 15,2 °C 4,8 km/h (1 Bft)
18.05.2024 09:09 22,2 °C 15,1 °C 57 % 82 % 1009,4 hPa 0,0 l/m² 2,5 km/h (1 Bft) O 86 ° 2 min 192 W/m² 12,0 °C 15,1 °C 4,8 km/h (1 Bft)
18.05.2024 09:11 22,2 °C 15,1 °C 57 % 83 % 1009,3 hPa 0,0 l/m² 2,6 km/h (1 Bft) O 84 ° 2 min 195 W/m² 12,2 °C 15,1 °C 4,8 km/h (1 Bft)
18.05.2024 09:13 22,2 °C 15,1 °C 57 % 83 % 1009,4 hPa 0,0 l/m² 2,4 km/h (1 Bft) O 84 ° 2 min 195 W/m² 12,2 °C 15,1 °C 3,2 km/h (1 Bft)
18.05.2024 09:15 22,2 °C 15,2 °C 57 % 84 % 1009,5 hPa 0,0 l/m² 3,6 km/h (1 Bft) O-NO 71 ° 2 min 192 W/m² 12,5 °C 15,2 °C 4,8 km/h (1 Bft)
18.05.2024 09:17 22,2 °C 15,2 °C 57 % 83 % 1009,4 hPa 0,0 l/m² 3,6 km/h (1 Bft) O-NO 71 ° 2 min 195 W/m² 12,3 °C 15,2 °C 4,8 km/h (1 Bft)
18.05.2024 09:19 22,2 °C 15,3 °C 57 % 84 % 1009,5 hPa 0,0 l/m² 2,6 km/h (1 Bft) NO 56 ° 2 min 206 W/m² 12,6 °C 15,3 °C 4,8 km/h (1 Bft)
18.05.2024 09:21 22,2 °C 15,2 °C 57 % 83 % 1009,5 hPa 0,0 l/m² 1,9 km/h (1 Bft) NO 56 ° 2 min 213 W/m² 12,3 °C 15,2 °C 3,2 km/h (1 Bft)
18.05.2024 09:23 22,2 °C 15,3 °C 57 % 84 % 1009,5 hPa 0,0 l/m² 1,1 km/h (1 Bft) NO 56 ° 2 min 223 W/m² 12,6 °C 15,3 °C 3,2 km/h (1 Bft)
18.05.2024 09:25 22,2 °C 15,3 °C 56 % 85 % 1009,6 hPa 0,0 l/m² 0,4 km/h (0 Bft) NO 56 ° 2 min 257 W/m² 12,8 °C 15,3 °C 1,6 km/h (1 Bft)
18.05.2024 09:27 22,2 °C 15,3 °C 56 % 84 % 1009,4 hPa 0,0 l/m² 0,0 km/h (0 Bft) NO 56 ° 2 min 302 W/m² 12,6 °C 15,3 °C 0,0 km/h (0 Bft)
18.05.2024 09:29 22,1 °C 15,4 °C 56 % 86 % 1009,4 hPa 0,0 l/m² 1,6 km/h (1 Bft) O-NO 60 ° 2 min 352 W/m² 13,1 °C 15,4 °C 4,8 km/h (1 Bft)
18.05.2024 09:31 22,2 °C 15,4 °C 56 % 84 % 1009,5 hPa 0,0 l/m² 3,8 km/h (1 Bft) O-NO 77 ° 2 min 341 W/m² 12,7 °C 15,4 °C 6,4 km/h (2 Bft)
18.05.2024 09:33 22,2 °C 15,5 °C 56 % 85 % 1009,6 hPa 0,0 l/m² 0,7 km/h (0 Bft) O-NO 77 ° 2 min 322 W/m² 13,0 °C 15,5 °C 3,2 km/h (1 Bft)
18.05.2024 09:35 22,2 °C 15,7 °C 56 % 84 % 1009,5 hPa 0,0 l/m² 0,7 km/h (0 Bft) O-NO 77 ° 2 min 309 W/m² 13,0 °C 15,7 °C 3,2 km/h (1 Bft)
18.05.2024 09:37 22,2 °C 15,6 °C 56 % 83 % 1009,5 hPa 0,0 l/m² 0,9 km/h (0 Bft) O-NO 77 ° 2 min 281 W/m² 12,7 °C 15,6 °C 3,2 km/h (1 Bft)
18.05.2024 09:39 22,1 °C 15,8 °C 56 % 85 % 1009,5 hPa 0,0 l/m² 2,7 km/h (1 Bft) NO 53 ° 2 min 262 W/m² 13,3 °C 15,8 °C 6,4 km/h (2 Bft)
18.05.2024 09:41 22,2 °C 15,7 °C 56 % 83 % 1009,5 hPa 0,0 l/m² 3,5 km/h (1 Bft) O-NO 66 ° 2 min 250 W/m² 12,8 °C 15,7 °C 8,0 km/h (2 Bft)
18.05.2024 09:43 22,2 °C 15,6 °C 56 % 83 % 1009,6 hPa 0,0 l/m² 2,3 km/h (1 Bft) O-NO 60 ° 2 min 236 W/m² 12,7 °C 15,6 °C 4,8 km/h (1 Bft)
18.05.2024 09:44 22,2 °C 15,6 °C 56 % 84 % 1009,6 hPa 0,0 l/m² 3,2 km/h (1 Bft) NO 40 ° 1 min 232 W/m² 12,9 °C 15,6 °C 4,8 km/h (1 Bft)
18.05.2024 09:45 22,2 °C 15,6 °C 56 % 83 % 1009,6 hPa 0,0 l/m² 3,4 km/h (1 Bft) N-NO 32 ° 1 min 229 W/m² 12,7 °C 15,6 °C 4,8 km/h (1 Bft)
18.05.2024 09:46 22,2 °C 15,6 °C 56 % 85 % 1009,6 hPa 0,0 l/m² 2,8 km/h (1 Bft) O-NO 57 ° 1 min 221 W/m² 13,1 °C 15,6 °C 8,0 km/h (2 Bft)
18.05.2024 09:48 22,2 °C 15,7 °C 56 % 84 % 1009,6 hPa 0,0 l/m² 5,1 km/h (1 Bft) O-NO 58 ° 2 min 209 W/m² 13,0 °C 15,7 °C 8,0 km/h (2 Bft)
18.05.2024 09:50 22,2 °C 15,7 °C 56 % 84 % 1009,6 hPa 0,0 l/m² 2,5 km/h (1 Bft) O-NO 58 ° 2 min 199 W/m² 13,0 °C 15,7 °C 6,4 km/h (2 Bft)
18.05.2024 09:52 22,1 °C 15,6 °C 56 % 84 % 1009,6 hPa 0,0 l/m² 3,8 km/h (1 Bft) NO 38 ° 2 min 204 W/m² 12,9 °C 15,6 °C 6,4 km/h (2 Bft)
18.05.2024 09:54 22,1 °C 15,7 °C 56 % 83 % 1009,6 hPa 0,0 l/m² 2,5 km/h (1 Bft) NO 38 ° 2 min 223 W/m² 12,8 °C 15,7 °C 4,8 km/h (1 Bft)
18.05.2024 09:56 22,2 °C 15,7 °C 56 % 84 % 1009,7 hPa 0,0 l/m² 3,1 km/h (1 Bft) O 100 ° 2 min 253 W/m² 13,0 °C 15,7 °C 6,4 km/h (2 Bft)
18.05.2024 09:58 22,2 °C 15,7 °C 56 % 84 % 1009,7 hPa 0,0 l/m² 3,8 km/h (1 Bft) NO 52 ° 2 min 295 W/m² 13,0 °C 15,7 °C 4,8 km/h (1 Bft)
18.05.2024 09:59 22,2 °C 15,7 °C 56 % 83 % 1009,7 hPa 0,0 l/m² 3,2 km/h (1 Bft) NO 52 ° 1 min 325 W/m² 12,8 °C 15,7 °C 4,8 km/h (1 Bft)
18.05.2024 10:00 22,2 °C 15,7 °C 56 % 83 % 1009,7 hPa 0,0 l/m² 1,7 km/h (1 Bft) NO 52 ° 1 min 371 W/m² 12,8 °C 15,7 °C 3,2 km/h (1 Bft)
18.05.2024 10:01 22,2 °C 15,7 °C 56 % 84 % 1009,7 hPa 0,0 l/m² 0,9 km/h (0 Bft) NO 52 ° 1 min 392 W/m² 13,0 °C 15,7 °C 1,6 km/h (1 Bft)
18.05.2024 10:03 22,2 °C 15,7 °C 56 % 82 % 1009,7 hPa 0,0 l/m² 1,0 km/h (0 Bft) NO 52 ° 2 min 396 W/m² 12,6 °C 15,7 °C 4,8 km/h (1 Bft)
18.05.2024 10:05 22,2 °C 15,8 °C 56 % 83 % 1009,6 hPa 0,0 l/m² 4,6 km/h (1 Bft) O 84 ° 2 min 396 W/m² 12,9 °C 15,8 °C 8,0 km/h (2 Bft)
18.05.2024 10:07 22,2 °C 15,9 °C 56 % 84 % 1009,6 hPa 0,0 l/m² 4,9 km/h (1 Bft) O-SO 113 ° 2 min 380 W/m² 13,2 °C 15,9 °C 8,0 km/h (2 Bft)
18.05.2024 10:09 22,2 °C 16,1 °C 56 % 84 % 1009,6 hPa 0,0 l/m² 5,2 km/h (1 Bft) O 97 ° 2 min 367 W/m² 13,4 °C 16,1 °C 9,7 km/h (2 Bft)
18.05.2024 10:11 22,2 °C 15,9 °C 56 % 83 % 1009,7 hPa 0,0 l/m² 3,8 km/h (1 Bft) O 80 ° 2 min 362 W/m² 13,0 °C 15,9 °C 6,4 km/h (2 Bft)
18.05.2024 10:13 22,2 °C 16,1 °C 56 % 83 % 1009,6 hPa 0,0 l/m² 5,0 km/h (1 Bft) O 94 ° 2 min 373 W/m² 13,2 °C 16,1 °C 9,7 km/h (2 Bft)
18.05.2024 10:15 22,2 °C 16,2 °C 56 % 82 % 1009,6 hPa 0,0 l/m² 6,4 km/h (2 Bft) O-NO 58 ° 2 min 366 W/m² 13,1 °C 16,2 °C 9,7 km/h (2 Bft)
18.05.2024 10:17 22,2 °C 16,3 °C 56 % 80 % 1009,6 hPa 0,0 l/m² 4,3 km/h (1 Bft) O-NO 60 ° 2 min 364 W/m² 12,8 °C 16,3 °C 8,0 km/h (2 Bft)
18.05.2024 10:19 22,2 °C 16,3 °C 56 % 80 % 1009,7 hPa 0,0 l/m² 3,5 km/h (1 Bft) NO 56 ° 2 min 350 W/m² 12,8 °C 16,3 °C 6,4 km/h (2 Bft)
18.05.2024 10:21 22,2 °C 16,3 °C 56 % 82 % 1009,6 hPa 0,0 l/m² 2,4 km/h (1 Bft) O-NO 78 ° 2 min 345 W/m² 13,2 °C 16,3 °C 4,8 km/h (1 Bft)
18.05.2024 10:23 22,3 °C 16,3 °C 56 % 81 % 1009,7 hPa 0,0 l/m² 5,3 km/h (1 Bft) NO 51 ° 2 min 338 W/m² 13,0 °C 16,3 °C 9,7 km/h (2 Bft)
18.05.2024 10:25 22,2 °C 16,4 °C 56 % 81 % 1009,7 hPa 0,0 l/m² 4,8 km/h (1 Bft) O 94 ° 2 min 318 W/m² 13,1 °C 16,4 °C 9,7 km/h (2 Bft)
18.05.2024 10:26 22,3 °C 16,3 °C 56 % 80 % 1009,6 hPa 0,0 l/m² 5,5 km/h (2 Bft) NO 53 ° 1 min 306 W/m² 12,8 °C 16,3 °C 8,0 km/h (2 Bft)
18.05.2024 10:28 22,3 °C 16,4 °C 56 % 81 % 1009,8 hPa 0,0 l/m² 3,3 km/h (1 Bft) NO 34 ° 2 min 285 W/m² 13,1 °C 16,4 °C 6,4 km/h (2 Bft)
18.05.2024 10:30 22,2 °C 16,3 °C 56 % 81 % 1009,8 hPa 0,0 l/m² 4,7 km/h (1 Bft) O-NO 77 ° 2 min 265 W/m² 13,0 °C 16,3 °C 8,0 km/h (2 Bft)
18.05.2024 10:32 22,2 °C 16,2 °C 56 % 81 % 1009,8 hPa 0,0 l/m² 5,7 km/h (2 Bft) O-NO 63 ° 2 min 265 W/m² 12,9 °C 16,2 °C 11,3 km/h (2 Bft)
18.05.2024 10:34 22,3 °C 16,2 °C 56 % 82 % 1009,8 hPa 0,0 l/m² 3,0 km/h (1 Bft) O 88 ° 2 min 271 W/m² 13,1 °C 16,2 °C 4,8 km/h (1 Bft)
18.05.2024 10:36 22,3 °C 16,2 °C 56 % 83 % 1009,7 hPa 0,0 l/m² 3,0 km/h (1 Bft) O 88 ° 2 min 279 W/m² 13,3 °C 16,2 °C 6,4 km/h (2 Bft)
18.05.2024 10:38 22,3 °C 16,1 °C 56 % 83 % 1009,8 hPa 0,0 l/m² 6,0 km/h (2 Bft) O 82 ° 2 min 288 W/m² 13,2 °C 16,1 °C 8,0 km/h (2 Bft)
18.05.2024 10:40 22,3 °C 16,1 °C 56 % 83 % 1009,8 hPa 0,0 l/m² 5,3 km/h (1 Bft) O 86 ° 2 min 301 W/m² 13,2 °C 16,1 °C 6,4 km/h (2 Bft)
18.05.2024 10:42 22,2 °C 16,0 °C 56 % 83 % 1009,8 hPa 0,0 l/m² 10,1 km/h (2 Bft) O 81 ° 2 min 323 W/m² 13,1 °C 14,2 °C 14,5 km/h (3 Bft)
18.05.2024 10:44 22,2 °C 15,9 °C 56 % 83 % 1009,8 hPa 0,0 l/m² 9,3 km/h (2 Bft) O-NO 76 ° 2 min 346 W/m² 13,0 °C 14,4 °C 14,5 km/h (3 Bft)
18.05.2024 10:46 22,2 °C 15,9 °C 56 % 85 % 1009,8 hPa 0,0 l/m² 6,1 km/h (2 Bft) O-NO 67 ° 2 min 469 W/m² 13,4 °C 15,9 °C 11,3 km/h (2 Bft)
18.05.2024 10:48 22,3 °C 16,2 °C 56 % 85 % 1009,8 hPa 0,0 l/m² 5,5 km/h (2 Bft) O-NO 67 ° 2 min 487 W/m² 13,7 °C 16,2 °C 11,3 km/h (2 Bft)
18.05.2024 10:50 22,3 °C 16,4 °C 56 % 85 % 1009,8 hPa 0,0 l/m² 4,9 km/h (1 Bft) O-NO 67 ° 2 min 464 W/m² 13,9 °C 16,4 °C 8,0 km/h (2 Bft)
18.05.2024 10:52 22,3 °C 16,6 °C 56 % 84 % 1009,8 hPa 0,0 l/m² 9,6 km/h (2 Bft) O 81 ° 2 min 557 W/m² 13,9 °C 15,1 °C 14,5 km/h (3 Bft)
18.05.2024 10:54 22,2 °C 16,6 °C 56 % 83 % 1009,8 hPa 0,0 l/m² 6,1 km/h (2 Bft) O 98 ° 2 min 557 W/m² 13,7 °C 16,6 °C 11,3 km/h (2 Bft)
18.05.2024 10:56 22,2 °C 16,9 °C 56 % 85 % 1009,8 hPa 0,0 l/m² 6,0 km/h (2 Bft) N-NO 31 ° 2 min 766 W/m² 14,4 °C 16,9 °C 11,3 km/h (2 Bft)
18.05.2024 10:58 22,3 °C 17,3 °C 56 % 82 % 1009,8 hPa 0,0 l/m² 6,1 km/h (2 Bft) NO 39 ° 2 min 761 W/m² 14,2 °C 17,3 °C 11,3 km/h (2 Bft)
18.05.2024 11:00 22,3 °C 17,4 °C 56 % 82 % 1009,9 hPa 0,0 l/m² 4,8 km/h (1 Bft) O-NO 67 ° 2 min 582 W/m² 14,3 °C 17,4 °C 11,3 km/h (2 Bft)
18.05.2024 11:02 22,3 °C 17,6 °C 56 % 82 % 1009,9 hPa 0,0 l/m² 6,4 km/h (2 Bft) O 82 ° 2 min 621 W/m² 14,5 °C 17,6 °C 12,9 km/h (3 Bft)
18.05.2024 11:04 22,3 °C 17,4 °C 56 % 79 % 1009,8 hPa 0,0 l/m² 9,5 km/h (2 Bft) O 83 ° 2 min 517 W/m² 13,7 °C 16,0 °C 12,9 km/h (3 Bft)
18.05.2024 11:06 22,3 °C 17,2 °C 56 % 79 % 1009,8 hPa 0,0 l/m² 6,1 km/h (2 Bft) O-NO 60 ° 2 min 930 W/m² 13,5 °C 17,2 °C 9,7 km/h (2 Bft)
18.05.2024 11:08 22,3 °C 17,4 °C 57 % 80 % 1009,8 hPa 0,0 l/m² 2,3 km/h (1 Bft) O-SO 105 ° 2 min 963 W/m² 13,9 °C 17,4 °C 12,9 km/h (3 Bft)
18.05.2024 11:10 22,3 °C 17,6 °C 57 % 80 % 1009,9 hPa 0,0 l/m² 6,4 km/h (2 Bft) O-SO 123 ° 2 min 963 W/m² 14,1 °C 17,6 °C 11,3 km/h (2 Bft)
18.05.2024 11:12 22,4 °C 17,5 °C 57 % 80 % 1009,8 hPa 0,0 l/m² 7,5 km/h (2 Bft) O 95 ° 2 min 512 W/m² 14,0 °C 17,0 °C 11,3 km/h (2 Bft)
18.05.2024 11:14 22,4 °C 17,8 °C 57 % 79 % 1009,9 hPa 0,0 l/m² 8,0 km/h (2 Bft) O 99 ° 2 min 1048 W/m² 14,1 °C 17,0 °C 11,3 km/h (2 Bft)
18.05.2024 11:16 22,4 °C 17,9 °C 57 % 77 % 1009,9 hPa 0,0 l/m² 8,0 km/h (2 Bft) O-SO 118 ° 2 min 904 W/m² 13,8 °C 17,1 °C 12,9 km/h (3 Bft)
18.05.2024 11:18 22,4 °C 17,9 °C 57 % 78 % 1009,9 hPa 0,0 l/m² 7,9 km/h (2 Bft) SO 126 ° 2 min 884 W/m² 14,0 °C 17,2 °C 12,9 km/h (3 Bft)
18.05.2024 11:20 22,4 °C 18,3 °C 57 % 79 % 1009,9 hPa 0,0 l/m² 11,1 km/h (2 Bft) O-NO 72 ° 2 min 1034 W/m² 14,6 °C 16,4 °C 14,5 km/h (3 Bft)
18.05.2024 11:21 22,5 °C 18,3 °C 57 % 79 % 1009,8 hPa 0,0 l/m² 8,2 km/h (2 Bft) O 89 ° 1 min 1002 W/m² 14,6 °C 17,5 °C 12,9 km/h (3 Bft)
18.05.2024 11:22 22,5 °C 18,3 °C 57 % 77 % 1009,8 hPa 0,0 l/m² 8,4 km/h (2 Bft) O-SO 118 ° 1 min 962 W/m² 14,2 °C 17,4 °C 11,3 km/h (2 Bft)
18.05.2024 11:24 22,5 °C 18,1 °C 57 % 77 % 1009,8 hPa 0,0 l/m² 5,8 km/h (2 Bft) O-NO 67 ° 2 min 919 W/m² 14,0 °C 18,1 °C 9,7 km/h (2 Bft)
18.05.2024 11:26 22,6 °C 18,2 °C 56 % 77 % 1009,8 hPa 0,0 l/m² 4,5 km/h (1 Bft) O 88 ° 2 min 919 W/m² 14,1 °C 18,2 °C 11,3 km/h (2 Bft)
18.05.2024 11:28 22,6 °C 18,1 °C 57 % 76 % 1009,9 hPa 0,0 l/m² 7,2 km/h (2 Bft) O 90 ° 2 min 701 W/m² 13,8 °C 17,7 °C 9,7 km/h (2 Bft)
18.05.2024 11:30 22,6 °C 17,7 °C 56 % 75 % 1009,9 hPa 0,0 l/m² 4,5 km/h (1 Bft) O-NO 63 ° 2 min 468 W/m² 13,2 °C 17,7 °C 11,3 km/h (2 Bft)
18.05.2024 11:32 22,6 °C 17,6 °C 57 % 76 % 1009,9 hPa 0,0 l/m² 7,3 km/h (2 Bft) O 90 ° 2 min 536 W/m² 13,3 °C 17,2 °C 12,9 km/h (3 Bft)
18.05.2024 11:34 22,6 °C 17,6 °C 56 % 78 % 1009,9 hPa 0,0 l/m² 7,4 km/h (2 Bft) O 86 ° 2 min 459 W/m² 13,7 °C 17,1 °C 11,3 km/h (2 Bft)
18.05.2024 11:36 22,6 °C 17,4 °C 56 % 78 % 1009,9 hPa 0,0 l/m² 5,9 km/h (2 Bft) O-NO 77 ° 2 min 478 W/m² 13,5 °C 17,4 °C 8,0 km/h (2 Bft)
18.05.2024 11:38 22,6 °C 17,4 °C 56 % 77 % 1009,8 hPa 0,0 l/m² 4,1 km/h (1 Bft) O-NO 71 ° 2 min 492 W/m² 13,3 °C 17,4 °C 6,4 km/h (2 Bft)
18.05.2024 11:40 22,6 °C 17,2 °C 56 % 77 % 1009,8 hPa 0,0 l/m² 0,1 km/h (0 Bft) O-NO 71 ° 2 min 455 W/m² 13,1 °C 17,2 °C 1,6 km/h (1 Bft)
18.05.2024 11:42 22,6 °C 17,2 °C 56 % 78 % 1009,8 hPa 0,0 l/m² 7,8 km/h (2 Bft) O 84 ° 2 min 410 W/m² 13,3 °C 16,5 °C 12,9 km/h (3 Bft)
18.05.2024 11:44 22,6 °C 17,2 °C 56 % 77 % 1009,8 hPa 0,0 l/m² 4,8 km/h (1 Bft) O 84 ° 2 min 366 W/m² 13,1 °C 17,2 °C 8,0 km/h (2 Bft)
18.05.2024 11:46 22,6 °C 17,1 °C 56 % 79 % 1009,8 hPa 0,0 l/m² 10,5 km/h (2 Bft) O-SO 112 ° 2 min 322 W/m² 13,4 °C 15,2 °C 14,5 km/h (3 Bft)
18.05.2024 11:48 22,6 °C 16,9 °C 56 % 78 % 1009,8 hPa 0,0 l/m² 3,9 km/h (1 Bft) O-SO 113 ° 2 min 283 W/m² 13,0 °C 16,9 °C 6,4 km/h (2 Bft)
18.05.2024 11:50 22,6 °C 16,8 °C 57 % 80 % 1009,9 hPa 0,0 l/m² 5,1 km/h (1 Bft) SO 126 ° 2 min 258 W/m² 13,3 °C 16,8 °C 9,7 km/h (2 Bft)
18.05.2024 11:52 22,6 °C 16,6 °C 57 % 80 % 1009,9 hPa 0,0 l/m² 5,2 km/h (1 Bft) O 101 ° 2 min 225 W/m² 13,1 °C 16,6 °C 9,7 km/h (2 Bft)
18.05.2024 11:54 22,6 °C 16,5 °C 57 % 79 % 1009,8 hPa 0,0 l/m² 3,4 km/h (1 Bft) O 101 ° 2 min 202 W/m² 12,8 °C 16,5 °C 4,8 km/h (1 Bft)
18.05.2024 11:56 22,6 °C 16,4 °C 57 % 79 % 1009,9 hPa 0,0 l/m² 5,2 km/h (1 Bft) O 101 ° 2 min 176 W/m² 12,7 °C 16,4 °C 9,7 km/h (2 Bft)
18.05.2024 11:58 22,6 °C 16,3 °C 58 % 81 % 1009,9 hPa 0,0 l/m² 3,0 km/h (1 Bft) O 101 ° 2 min 146 W/m² 13,0 °C 16,3 °C 4,8 km/h (1 Bft)
18.05.2024 12:00 22,6 °C 16,2 °C 58 % 81 % 1009,8 hPa 0,0 l/m² 3,4 km/h (1 Bft) O 101 ° 2 min 132 W/m² 12,9 °C 16,2 °C 6,4 km/h (2 Bft)
18.05.2024 12:02 22,6 °C 16,1 °C 58 % 82 % 1009,9 hPa 0,0 l/m² 2,9 km/h (1 Bft) O-SO 108 ° 2 min 123 W/m² 13,0 °C 16,1 °C 6,4 km/h (2 Bft)
18.05.2024 12:04 22,6 °C 16,1 °C 59 % 82 % 1009,9 hPa 0,0 l/m² 3,0 km/h (1 Bft) O-SO 123 ° 2 min 113 W/m² 13,0 °C 16,1 °C 6,4 km/h (2 Bft)
18.05.2024 12:05 22,6 °C 16,1 °C 59 % 83 % 1010,0 hPa 0,0 l/m² 1,6 km/h (1 Bft) O-SO 123 ° 1 min 111 W/m² 13,2 °C 16,1 °C 3,2 km/h (1 Bft)
18.05.2024 12:07 22,6 °C 16,0 °C 59 % 83 % 1009,9 hPa 0,0 l/m² 3,8 km/h (1 Bft) O-SO 123 ° 2 min 105 W/m² 13,1 °C 16,0 °C 4,8 km/h (1 Bft)
18.05.2024 12:09 22,6 °C 15,9 °C 59 % 82 % 1009,9 hPa 0,0 l/m² 3,0 km/h (1 Bft) O-SO 123 ° 2 min 102 W/m² 12,8 °C 15,9 °C 4,8 km/h (1 Bft)
18.05.2024 12:11 22,6 °C 15,9 °C 59 % 83 % 1009,8 hPa 0,0 l/m² 2,6 km/h (1 Bft) O-SO 122 ° 2 min 100 W/m² 13,0 °C 15,9 °C 4,8 km/h (1 Bft)
18.05.2024 12:13 22,6 °C 15,9 °C 59 % 83 % 1009,9 hPa 0,0 l/m² 0,3 km/h (0 Bft) O-SO 122 ° 2 min 102 W/m² 13,0 °C 15,9 °C 1,6 km/h (1 Bft)
18.05.2024 12:14 22,6 °C 15,9 °C 59 % 83 % 1009,9 hPa 0,0 l/m² 2,8 km/h (1 Bft) O-SO 122 ° 1 min 105 W/m² 13,0 °C 15,9 °C 4,8 km/h (1 Bft)
18.05.2024 12:15 22,6 °C 15,9 °C 59 % 83 % 1009,9 hPa 0,0 l/m² 4,5 km/h (1 Bft) O-SO 122 ° 1 min 107 W/m² 13,0 °C 15,9 °C 6,4 km/h (2 Bft)
18.05.2024 12:17 22,6 °C 15,8 °C 59 % 83 % 1009,9 hPa 0,0 l/m² 3,4 km/h (1 Bft) O-SO 122 ° 2 min 114 W/m² 12,9 °C 15,8 °C 6,4 km/h (2 Bft)
18.05.2024 12:19 22,6 °C 15,7 °C 59 % 82 % 1009,9 hPa 0,0 l/m² 0,7 km/h (0 Bft) O-SO 122 ° 2 min 120 W/m² 12,6 °C 15,7 °C 3,2 km/h (1 Bft)
18.05.2024 12:21 22,6 °C 15,8 °C 58 % 82 % 1010,0 hPa 0,0 l/m² 0,0 km/h (0 Bft) O-SO 122 ° 2 min 130 W/m² 12,7 °C 15,8 °C 0,0 km/h (0 Bft)
18.05.2024 12:23 22,6 °C 15,9 °C 58 % 84 % 1010,0 hPa 0,0 l/m² 0,2 km/h (0 Bft) O-SO 122 ° 2 min 137 W/m² 13,2 °C 15,9 °C 3,2 km/h (1 Bft)
18.05.2024 12:25 22,6 °C 15,9 °C 57 % 83 % 1009,9 hPa 0,0 l/m² 0,9 km/h (0 Bft) O-SO 122 ° 2 min 142 W/m² 13,0 °C 15,9 °C 3,2 km/h (1 Bft)
18.05.2024 12:27 22,5 °C 16,0 °C 57 % 83 % 1009,9 hPa 0,0 l/m² 0,6 km/h (0 Bft) O-SO 122 ° 2 min 144 W/m² 13,1 °C 16,0 °C 1,6 km/h (1 Bft)
18.05.2024 12:29 22,5 °C 16,1 °C 57 % 82 % 1009,9 hPa 0,0 l/m² 1,0 km/h (0 Bft) O-SO 122 ° 2 min 148 W/m² 13,0 °C 16,1 °C 1,6 km/h (1 Bft)
18.05.2024 12:31 22,5 °C 16,1 °C 57 % 83 % 1009,9 hPa 0,0 l/m² 0,9 km/h (0 Bft) O-SO 122 ° 2 min 151 W/m² 13,2 °C 16,1 °C 1,6 km/h (1 Bft)
18.05.2024 12:33 22,4 °C 16,1 °C 57 % 80 % 1009,9 hPa 0,0 l/m² 0,3 km/h (0 Bft) O-SO 122 ° 2 min 160 W/m² 12,6 °C 16,1 °C 1,6 km/h (1 Bft)
18.05.2024 12:35 22,4 °C 16,1 °C 57 % 81 % 1009,9 hPa 0,0 l/m² 0,8 km/h (0 Bft) O-SO 122 ° 2 min 162 W/m² 12,8 °C 16,1 °C 3,2 km/h (1 Bft)
18.05.2024 12:37 22,4 °C 16,2 °C 57 % 81 % 1009,9 hPa 0,0 l/m² 4,8 km/h (1 Bft) W-SW 251 ° 2 min 162 W/m² 12,9 °C 16,2 °C 14,5 km/h (3 Bft)
18.05.2024 12:39 22,4 °C 16,1 °C 57 % 82 % 1010,0 hPa 0,0 l/m² 10,3 km/h (2 Bft) W-SW 248 ° 2 min 171 W/m² 13,0 °C 14,2 °C 16,1 km/h (3 Bft)
18.05.2024 12:41 22,4 °C 16,1 °C 57 % 82 % 1010,0 hPa 0,0 l/m² 7,0 km/h (2 Bft) SW 232 ° 2 min 176 W/m² 13,0 °C 15,8 °C 14,5 km/h (3 Bft)
18.05.2024 12:43 22,4 °C 16,1 °C 57 % 83 % 1009,9 hPa 0,0 l/m² 7,1 km/h (2 Bft) W-SW 238 ° 2 min 185 W/m² 13,2 °C 15,7 °C 12,9 km/h (3 Bft)
18.05.2024 12:45 22,4 °C 16,1 °C 57 % 83 % 1010,0 hPa 0,0 l/m² 9,5 km/h (2 Bft) W 259 ° 2 min 178 W/m² 13,2 °C 14,6 °C 14,5 km/h (3 Bft)
18.05.2024 12:47 22,4 °C 16,1 °C 57 % 84 % 1010,0 hPa 0,0 l/m² 8,3 km/h (2 Bft) W-SW 249 ° 2 min 172 W/m² 13,4 °C 15,1 °C 14,5 km/h (3 Bft)
18.05.2024 12:48 22,4 °C 16,0 °C 57 % 83 % 1010,0 hPa 0,0 l/m² 13,1 km/h (3 Bft) SW 234 ° 1 min 171 W/m² 13,1 °C 13,0 °C 16,1 km/h (3 Bft)
18.05.2024 12:50 22,4 °C 15,9 °C 57 % 84 % 1010,0 hPa 0,0 l/m² 10,5 km/h (2 Bft) W-SW 252 ° 2 min 156 W/m² 13,2 °C 13,9 °C 14,5 km/h (3 Bft)
18.05.2024 12:52 22,4 °C 15,8 °C 57 % 84 % 1010,1 hPa 0,0 l/m² 6,8 km/h (2 Bft) W-SW 247 ° 2 min 146 W/m² 13,1 °C 15,6 °C 12,9 km/h (3 Bft)
18.05.2024 12:54 22,4 °C 15,8 °C 57 % 84 % 1010,1 hPa 0,0 l/m² 7,7 km/h (2 Bft) W-SW 248 ° 2 min 139 W/m² 13,1 °C 15,1 °C 12,9 km/h (3 Bft)
18.05.2024 12:56 22,4 °C 15,8 °C 57 % 84 % 1010,1 hPa 0,0 l/m² 8,7 km/h (2 Bft) W-SW 237 ° 2 min 127 W/m² 13,1 °C 14,6 °C 16,1 km/h (3 Bft)
18.05.2024 12:58 22,4 °C 15,8 °C 57 % 84 % 1010,1 hPa 0,0 l/m² 11,6 km/h (2 Bft) W-SW 246 ° 2 min 113 W/m² 13,1 °C 13,3 °C 16,1 km/h (3 Bft)
18.05.2024 13:00 22,4 °C 15,7 °C 57 % 84 % 1010,1 hPa 0,0 l/m² 10,0 km/h (2 Bft) W-SW 252 ° 2 min 98 W/m² 13,0 °C 13,9 °C 12,9 km/h (3 Bft)
18.05.2024 13:02 22,4 °C 15,6 °C 57 % 85 % 1010,1 hPa 0,0 l/m² 10,0 km/h (2 Bft) SW 225 ° 2 min 86 W/m² 13,1 °C 13,8 °C 14,5 km/h (3 Bft)
18.05.2024 13:04 22,4 °C 15,6 °C 57 % 85 % 1010,1 hPa 0,0 l/m² 7,4 km/h (2 Bft) SW 227 ° 2 min 81 W/m² 13,1 °C 15,1 °C 11,3 km/h (2 Bft)
18.05.2024 13:06 22,4 °C 15,4 °C 57 % 85 % 1010,1 hPa 0,0 l/m² 7,1 km/h (2 Bft) SW 226 ° 2 min 79 W/m² 12,9 °C 15,0 °C 11,3 km/h (2 Bft)
18.05.2024 13:08 22,4 °C 15,3 °C 57 % 86 % 1010,1 hPa 0,0 l/m² 6,9 km/h (2 Bft) W-SW 237 ° 2 min 76 W/m² 13,0 °C 15,0 °C 9,7 km/h (2 Bft)
18.05.2024 13:10 22,4 °C 15,3 °C 57 % 86 % 1010,2 hPa 0,0 l/m² 6,5 km/h (2 Bft) SW 236 ° 2 min 76 W/m² 13,0 °C 15,3 °C 11,3 km/h (2 Bft)
18.05.2024 13:12 22,4 °C 15,2 °C 57 % 87 % 1010,1 hPa 0,0 l/m² 5,2 km/h (1 Bft) W-SW 245 ° 2 min 74 W/m² 13,0 °C 15,2 °C 9,7 km/h (2 Bft)
18.05.2024 13:14 22,4 °C 15,2 °C 57 % 87 % 1010,1 hPa 0,0 l/m² 6,0 km/h (2 Bft) W-SW 245 ° 2 min 74 W/m² 13,0 °C 15,2 °C 9,7 km/h (2 Bft)
18.05.2024 13:16 22,4 °C 15,2 °C 57 % 88 % 1010,1 hPa 0,0 l/m² 5,7 km/h (2 Bft) W-SW 248 ° 2 min 74 W/m² 13,2 °C 15,2 °C 6,4 km/h (2 Bft)
18.05.2024 13:18 22,4 °C 15,1 °C 57 % 88 % 1010,2 hPa 0,0 l/m² 4,9 km/h (1 Bft) W-SW 240 ° 2 min 74 W/m² 13,1 °C 15,1 °C 6,4 km/h (2 Bft)
18.05.2024 13:20 22,4 °C 15,1 °C 57 % 88 % 1010,2 hPa 0,0 l/m² 6,4 km/h (2 Bft) W-SW 241 ° 2 min 72 W/m² 13,1 °C 15,1 °C 8,0 km/h (2 Bft)
18.05.2024 13:22 22,4 °C 14,9 °C 57 % 89 % 1010,2 hPa 0,0 l/m² 6,3 km/h (2 Bft) W-SW 252 ° 2 min 74 W/m² 13,1 °C 14,9 °C 8,0 km/h (2 Bft)
18.05.2024 13:24 22,4 °C 14,9 °C 57 % 89 % 1010,2 hPa 0,0 l/m² 5,8 km/h (2 Bft) W-SW 250 ° 2 min 74 W/m² 13,1 °C 14,9 °C 8,0 km/h (2 Bft)
18.05.2024 13:26 22,4 °C 14,9 °C 57 % 89 % 1010,2 hPa 0,0 l/m² 6,4 km/h (2 Bft) W-SW 252 ° 2 min 74 W/m² 13,1 °C 14,9 °C 8,0 km/h (2 Bft)
18.05.2024 13:28 22,4 °C 14,9 °C 57 % 89 % 1010,2 hPa 0,0 l/m² 6,3 km/h (2 Bft) W 262 ° 2 min 76 W/m² 13,1 °C 14,9 °C 11,3 km/h (2 Bft)
18.05.2024 13:30 22,4 °C 14,9 °C 57 % 89 % 1010,2 hPa 0,0 l/m² 4,4 km/h (1 Bft) W 260 ° 2 min 76 W/m² 13,1 °C 14,9 °C 9,7 km/h (2 Bft)
18.05.2024 13:32 22,4 °C 14,9 °C 57 % 89 % 1010,2 hPa 0,0 l/m² 5,8 km/h (2 Bft) W-SW 255 ° 2 min 74 W/m² 13,1 °C 14,9 °C 9,7 km/h (2 Bft)
18.05.2024 13:34 22,4 °C 14,9 °C 57 % 90 % 1010,3 hPa 0,0 l/m² 4,3 km/h (1 Bft) W-SW 254 ° 2 min 72 W/m² 13,3 °C 14,9 °C 6,4 km/h (2 Bft)
18.05.2024 13:36 22,3 °C 14,9 °C 57 % 90 % 1010,3 hPa 0,0 l/m² 4,3 km/h (1 Bft) W-SW 254 ° 2 min 70 W/m² 13,3 °C 14,9 °C 6,4 km/h (2 Bft)
18.05.2024 13:38 22,4 °C 14,9 °C 57 % 90 % 1010,4 hPa 0,0 l/m² 3,3 km/h (1 Bft) W-SW 255 ° 2 min 67 W/m² 13,3 °C 14,9 °C 4,8 km/h (1 Bft)
18.05.2024 13:40 22,4 °C 14,9 °C 57 % 90 % 1010,4 hPa 0,0 l/m² 2,3 km/h (1 Bft) W-SW 254 ° 2 min 63 W/m² 13,3 °C 14,9 °C 4,8 km/h (1 Bft)
18.05.2024 13:42 22,4 °C 14,9 °C 58 % 90 % 1010,4 hPa 0,0 l/m² 1,1 km/h (1 Bft) W-SW 254 ° 2 min 63 W/m² 13,3 °C 14,9 °C 3,2 km/h (1 Bft)
18.05.2024 13:44 22,3 °C 14,8 °C 57 % 90 % 1010,4 hPa 0,0 l/m² 1,0 km/h (0 Bft) W-SW 255 ° 2 min 63 W/m² 13,2 °C 14,8 °C 3,2 km/h (1 Bft)
18.05.2024 13:46 22,3 °C 14,9 °C 57 % 91 % 1010,4 hPa 0,0 l/m² 0,3 km/h (0 Bft) W-SW 255 ° 2 min 63 W/m² 13,4 °C 14,9 °C 1,6 km/h (1 Bft)
18.05.2024 13:48 22,3 °C 14,8 °C 58 % 90 % 1010,4 hPa 0,0 l/m² 2,3 km/h (1 Bft) W-SW 255 ° 2 min 65 W/m² 13,2 °C 14,8 °C 4,8 km/h (1 Bft)
18.05.2024 13:50 22,4 °C 14,8 °C 57 % 90 % 1010,5 hPa 0,0 l/m² 1,3 km/h (1 Bft) W-SW 254 ° 2 min 67 W/m² 13,2 °C 14,8 °C 4,8 km/h (1 Bft)
18.05.2024 13:52 22,3 °C 14,8 °C 57 % 90 % 1010,5 hPa 0,0 l/m² 0,3 km/h (0 Bft) W-SW 255 ° 2 min 70 W/m² 13,2 °C 14,8 °C 1,6 km/h (1 Bft)
18.05.2024 13:54 22,3 °C 14,8 °C 57 % 91 % 1010,4 hPa 0,2 l/m² 0,4 km/h (0 Bft) W-SW 254 ° 2 min 74 W/m² 13,3 °C 14,8 °C 1,6 km/h (1 Bft)
18.05.2024 13:56 22,3 °C 14,7 °C 57 % 90 % 1010,5 hPa 0,0 l/m² 2,2 km/h (1 Bft) W-SW 255 ° 2 min 81 W/m² 13,1 °C 14,7 °C 4,8 km/h (1 Bft)
18.05.2024 13:58 22,3 °C 14,7 °C 57 % 90 % 1010,4 hPa 0,0 l/m² 1,2 km/h (1 Bft) W-SW 255 ° 2 min 86 W/m² 13,1 °C 14,7 °C 3,2 km/h (1 Bft)
18.05.2024 14:00 22,3 °C 14,8 °C 57 % 90 % 1010,4 hPa 0,0 l/m² 2,2 km/h (1 Bft) W 274 ° 2 min 93 W/m² 13,2 °C 14,8 °C 4,8 km/h (1 Bft)
18.05.2024 14:02 22,3 °C 14,8 °C 57 % 90 % 1010,5 hPa 0,0 l/m² 1,5 km/h (1 Bft) W 274 ° 2 min 98 W/m² 13,2 °C 14,8 °C 4,8 km/h (1 Bft)
18.05.2024 14:04 22,3 °C 14,8 °C 57 % 89 % 1010,4 hPa 0,0 l/m² 1,0 km/h (0 Bft) W 274 ° 2 min 104 W/m² 13,0 °C 14,8 °C 3,2 km/h (1 Bft)
18.05.2024 14:06 22,3 °C 14,8 °C 57 % 89 % 1010,4 hPa 0,0 l/m² 1,8 km/h (1 Bft) W 275 ° 2 min 113 W/m² 13,0 °C 14,8 °C 3,2 km/h (1 Bft)
18.05.2024 14:08 22,3 °C 14,9 °C 57 % 89 % 1010,4 hPa 0,0 l/m² 1,4 km/h (1 Bft) W 274 ° 2 min 120 W/m² 13,1 °C 14,9 °C 3,2 km/h (1 Bft)
18.05.2024 14:10 22,3 °C 15,1 °C 57 % 89 % 1010,5 hPa 0,0 l/m² 0,0 km/h (0 Bft) W 274 ° 2 min 127 W/m² 13,3 °C 15,1 °C 0,0 km/h (0 Bft)
18.05.2024 14:12 22,3 °C 15,1 °C 57 % 89 % 1010,5 hPa 0,0 l/m² 0,0 km/h (0 Bft) W 274 ° 2 min 141 W/m² 13,3 °C 15,1 °C 0,0 km/h (0 Bft)
18.05.2024 14:14 22,3 °C 15,1 °C 58 % 89 % 1010,5 hPa 0,0 l/m² 0,0 km/h (0 Bft) W 274 ° 2 min 149 W/m² 13,3 °C 15,1 °C 0,0 km/h (0 Bft)
18.05.2024 14:16 22,3 °C 15,1 °C 58 % 89 % 1010,4 hPa 0,0 l/m² 0,0 km/h (0 Bft) W 274 ° 2 min 160 W/m² 13,3 °C 15,1 °C 0,0 km/h (0 Bft)
18.05.2024 14:18 22,3 °C 15,1 °C 57 % 89 % 1010,5 hPa 0,0 l/m² 0,0 km/h (0 Bft) W 274 ° 2 min 171 W/m² 13,3 °C 15,1 °C 0,0 km/h (0 Bft)
18.05.2024 14:20 22,3 °C 15,3 °C 57 % 90 % 1010,5 hPa 0,0 l/m² 0,0 km/h (0 Bft) W 274 ° 2 min 176 W/m² 13,7 °C 15,3 °C 0,0 km/h (0 Bft)
18.05.2024 14:22 22,3 °C 15,3 °C 57 % 89 % 1010,4 hPa 0,0 l/m² 0,0 km/h (0 Bft) W 274 ° 2 min 185 W/m² 13,5 °C 15,3 °C 0,0 km/h (0 Bft)
18.05.2024 14:24 22,3 °C 15,3 °C 57 % 88 % 1010,4 hPa 0,0 l/m² 0,0 km/h (0 Bft) W 274 ° 2 min 200 W/m² 13,3 °C 15,3 °C 0,0 km/h (0 Bft)
18.05.2024 14:26 22,3 °C 15,3 °C 57 % 88 % 1010,4 hPa 0,0 l/m² 0,0 km/h (0 Bft) W 274 ° 2 min 213 W/m² 13,3 °C 15,3 °C 0,0 km/h (0 Bft)
18.05.2024 14:28 22,3 °C 15,4 °C 57 % 88 % 1010,3 hPa 0,0 l/m² 0,0 km/h (0 Bft) W 274 ° 2 min 227 W/m² 13,4 °C 15,4 °C 0,0 km/h (0 Bft)
18.05.2024 14:30 22,3 °C 15,4 °C 57 % 88 % 1010,3 hPa 0,0 l/m² 0,0 km/h (0 Bft) W 275 ° 2 min 253 W/m² 13,4 °C 15,4 °C 1,6 km/h (1 Bft)
18.05.2024 14:32 22,3 °C 15,4 °C 57 % 87 % 1010,2 hPa 0,0 l/m² 0,1 km/h (0 Bft) W 274 ° 2 min 271 W/m² 13,2 °C 15,4 °C 1,6 km/h (1 Bft)
18.05.2024 14:34 22,3 °C 15,6 °C 57 % 88 % 1010,2 hPa 0,0 l/m² 0,0 km/h (0 Bft) W 274 ° 2 min 281 W/m² 13,6 °C 15,6 °C 0,0 km/h (0 Bft)
18.05.2024 14:36 22,3 °C 15,7 °C 57 % 88 % 1010,2 hPa 0,0 l/m² 0,8 km/h (0 Bft) W 274 ° 2 min 276 W/m² 13,7 °C 15,7 °C 3,2 km/h (1 Bft)
18.05.2024 14:38 22,3 °C 15,7 °C 57 % 86 % 1010,2 hPa 0,0 l/m² 1,3 km/h (1 Bft) W 275 ° 2 min 264 W/m² 13,4 °C 15,7 °C 3,2 km/h (1 Bft)
18.05.2024 14:40 22,3 °C 15,6 °C 57 % 87 % 1010,1 hPa 0,0 l/m² 0,3 km/h (0 Bft) W 274 ° 2 min 255 W/m² 13,4 °C 15,6 °C 1,6 km/h (1 Bft)
18.05.2024 14:42 22,3 °C 15,6 °C 57 % 86 % 1010,2 hPa 0,2 l/m² 0,1 km/h (0 Bft) W 274 ° 2 min 246 W/m² 13,3 °C 15,6 °C 1,6 km/h (1 Bft)
18.05.2024 14:44 22,3 °C 15,7 °C 57 % 87 % 1010,2 hPa 0,0 l/m² 0,0 km/h (0 Bft) W 274 ° 2 min 244 W/m² 13,5 °C 15,7 °C 0,0 km/h (0 Bft)
18.05.2024 14:46 22,3 °C 15,6 °C 57 % 85 % 1010,2 hPa 0,0 l/m² 0,0 km/h (0 Bft) W 274 ° 2 min 244 W/m² 13,1 °C 15,6 °C 0,0 km/h (0 Bft)
18.05.2024 14:48 22,3 °C 15,6 °C 57 % 86 % 1010,2 hPa 0,0 l/m² 0,8 km/h (0 Bft) W 274 ° 2 min 244 W/m² 13,3 °C 15,6 °C 3,2 km/h (1 Bft)
18.05.2024 14:50 22,3 °C 15,7 °C 57 % 87 % 1010,3 hPa 0,0 l/m² 0,6 km/h (0 Bft) W 274 ° 2 min 244 W/m² 13,5 °C 15,7 °C 1,6 km/h (1 Bft)
18.05.2024 14:52 22,3 °C 15,7 °C 57 % 86 % 1010,3 hPa 0,0 l/m² 0,6 km/h (0 Bft) W 275 ° 2 min 239 W/m² 13,4 °C 15,7 °C 1,6 km/h (1 Bft)
18.05.2024 14:54 22,3 °C 15,7 °C 57 % 87 % 1010,3 hPa 0,0 l/m² 0,1 km/h (0 Bft) W 274 ° 2 min 230 W/m² 13,5 °C 15,7 °C 1,6 km/h (1 Bft)
18.05.2024 14:56 22,3 °C 15,7 °C 57 % 86 % 1010,3 hPa 0,0 l/m² 0,0 km/h (0 Bft) W 274 ° 2 min 227 W/m² 13,4 °C 15,7 °C 1,6 km/h (1 Bft)
18.05.2024 14:58 22,3 °C 15,7 °C 57 % 86 % 1010,3 hPa 0,0 l/m² 0,0 km/h (0 Bft) W 274 ° 2 min 227 W/m² 13,4 °C 15,7 °C 0,0 km/h (0 Bft)
18.05.2024 15:00 22,3 °C 15,8 °C 57 % 88 % 1010,2 hPa 0,0 l/m² 1,6 km/h (1 Bft) W 274 ° 2 min 229 W/m² 13,8 °C 15,8 °C 4,8 km/h (1 Bft)
18.05.2024 15:02 22,3 °C 15,7 °C 57 % 88 % 1010,3 hPa 0,0 l/m² 0,1 km/h (0 Bft) W 274 ° 2 min 232 W/m² 13,7 °C 15,7 °C 1,6 km/h (1 Bft)
18.05.2024 15:04 22,3 °C 15,6 °C 57 % 86 % 1010,3 hPa 0,0 l/m² 0,0 km/h (0 Bft) W 274 ° 2 min 237 W/m² 13,3 °C 15,6 °C 0,0 km/h (0 Bft)
18.05.2024 15:06 22,3 °C 15,7 °C 57 % 87 % 1010,4 hPa 0,0 l/m² 0,7 km/h (0 Bft) W 274 ° 2 min 248 W/m² 13,5 °C 15,7 °C 1,6 km/h (1 Bft)
18.05.2024 15:08 22,3 °C 15,7 °C 57 % 86 % 1010,3 hPa 0,0 l/m² 0,0 km/h (0 Bft) W 274 ° 2 min 253 W/m² 13,4 °C 15,7 °C 0,0 km/h (0 Bft)
18.05.2024 15:10 22,3 °C 15,7 °C 57 % 86 % 1010,4 hPa 0,0 l/m² 0,8 km/h (0 Bft) W 275 ° 2 min 260 W/m² 13,4 °C 15,7 °C 3,2 km/h (1 Bft)
18.05.2024 15:12 22,3 °C 15,8 °C 57 % 87 % 1010,5 hPa 0,0 l/m² 1,4 km/h (1 Bft) W 274 ° 2 min 276 W/m² 13,6 °C 15,8 °C 3,2 km/h (1 Bft)
18.05.2024 15:14 22,3 °C 15,9 °C 57 % 87 % 1010,4 hPa 0,0 l/m² 1,1 km/h (1 Bft) W 274 ° 2 min 290 W/m² 13,7 °C 15,9 °C 1,6 km/h (1 Bft)
18.05.2024 15:16 22,3 °C 15,9 °C 57 % 85 % 1010,5 hPa 0,0 l/m² 1,5 km/h (1 Bft) W 274 ° 2 min 299 W/m² 13,4 °C 15,9 °C 3,2 km/h (1 Bft)
18.05.2024 15:18 22,3 °C 16,1 °C 57 % 86 % 1010,4 hPa 0,0 l/m² 1,9 km/h (1 Bft) W 274 ° 2 min 297 W/m² 13,8 °C 16,1 °C 3,2 km/h (1 Bft)
18.05.2024 15:20 22,3 °C 16,2 °C 57 % 86 % 1010,4 hPa 0,0 l/m² 0,9 km/h (0 Bft) W 274 ° 2 min 288 W/m² 13,9 °C 16,2 °C 1,6 km/h (1 Bft)
18.05.2024 15:22 22,3 °C 16,2 °C 57 % 85 % 1010,4 hPa 0,0 l/m² 1,7 km/h (1 Bft) W 275 ° 2 min 281 W/m² 13,7 °C 16,2 °C 3,2 km/h (1 Bft)
18.05.2024 15:24 22,3 °C 16,3 °C 57 % 85 % 1010,4 hPa 0,0 l/m² 0,5 km/h (0 Bft) W 275 ° 2 min 272 W/m² 13,8 °C 16,3 °C 1,6 km/h (1 Bft)
18.05.2024 15:26 22,3 °C 16,2 °C 57 % 83 % 1010,4 hPa 0,0 l/m² 0,7 km/h (0 Bft) W 275 ° 2 min 267 W/m² 13,3 °C 16,2 °C 3,2 km/h (1 Bft)
18.05.2024 15:28 22,3 °C 16,2 °C 57 % 85 % 1010,4 hPa 0,0 l/m² 0,3 km/h (0 Bft) W 275 ° 2 min 260 W/m² 13,7 °C 16,2 °C 1,6 km/h (1 Bft)
18.05.2024 15:30 22,3 °C 16,2 °C 57 % 84 % 1010,3 hPa 0,0 l/m² 0,1 km/h (0 Bft) W 275 ° 2 min 255 W/m² 13,5 °C 16,2 °C 1,6 km/h (1 Bft)
18.05.2024 15:32 22,3 °C 16,2 °C 57 % 83 % 1010,4 hPa 0,0 l/m² 1,7 km/h (1 Bft) W 275 ° 2 min 250 W/m² 13,3 °C 16,2 °C 4,8 km/h (1 Bft)
18.05.2024 15:34 22,3 °C 16,3 °C 57 % 83 % 1010,4 hPa 0,0 l/m² 2,0 km/h (1 Bft) W 275 ° 2 min 243 W/m² 13,4 °C 16,3 °C 3,2 km/h (1 Bft)
18.05.2024 15:36 22,3 °C 16,4 °C 57 % 82 % 1010,4 hPa 0,0 l/m² 1,2 km/h (1 Bft) W 275 ° 2 min 239 W/m² 13,3 °C 16,4 °C 3,2 km/h (1 Bft)
18.05.2024 15:38 22,3 °C 16,4 °C 57 % 83 % 1010,4 hPa 0,0 l/m² 0,5 km/h (0 Bft) W 275 ° 2 min 237 W/m² 13,5 °C 16,4 °C 1,6 km/h (1 Bft)
18.05.2024 15:40 22,3 °C 16,5 °C 57 % 84 % 1010,5 hPa 0,0 l/m² 1,2 km/h (1 Bft) W 275 ° 2 min 236 W/m² 13,8 °C 16,5 °C 3,2 km/h (1 Bft)
18.05.2024 15:42 22,3 °C 16,4 °C 57 % 83 % 1010,4 hPa 0,0 l/m² 0,7 km/h (0 Bft) W 275 ° 2 min 237 W/m² 13,5 °C 16,4 °C 3,2 km/h (1 Bft)
18.05.2024 15:44 22,3 °C 16,4 °C 57 % 83 % 1010,5 hPa 0,0 l/m² 3,0 km/h (1 Bft) W 275 ° 2 min 243 W/m² 13,5 °C 16,4 °C 6,4 km/h (2 Bft)
18.05.2024 15:46 22,3 °C 16,4 °C 57 % 83 % 1010,4 hPa 0,0 l/m² 3,9 km/h (1 Bft) W 274 ° 2 min 248 W/m² 13,5 °C 16,4 °C 6,4 km/h (2 Bft)
18.05.2024 15:47 22,3 °C 16,4 °C 57 % 82 % 1010,4 hPa 0,0 l/m² 3,0 km/h (1 Bft) W 274 ° 1 min 250 W/m² 13,3 °C 16,4 °C 4,8 km/h (1 Bft)
18.05.2024 15:49 22,3 °C 16,3 °C 57 % 81 % 1010,4 hPa 0,0 l/m² 4,2 km/h (1 Bft) W 274 ° 2 min 253 W/m² 13,0 °C 16,3 °C 6,4 km/h (2 Bft)
18.05.2024 15:51 22,3 °C 16,3 °C 57 % 81 % 1010,4 hPa 0,0 l/m² 4,3 km/h (1 Bft) W 274 ° 2 min 260 W/m² 13,0 °C 16,3 °C 9,7 km/h (2 Bft)
18.05.2024 15:53 22,3 °C 16,3 °C 57 % 80 % 1010,4 hPa 0,0 l/m² 3,1 km/h (1 Bft) W 274 ° 2 min 276 W/m² 12,8 °C 16,3 °C 4,8 km/h (1 Bft)
18.05.2024 15:55 22,3 °C 16,4 °C 57 % 82 % 1010,4 hPa 0,0 l/m² 3,2 km/h (1 Bft) W 274 ° 2 min 279 W/m² 13,3 °C 16,4 °C 4,8 km/h (1 Bft)
18.05.2024 15:57 22,3 °C 16,4 °C 57 % 82 % 1010,5 hPa 0,0 l/m² 4,1 km/h (1 Bft) W 274 ° 2 min 279 W/m² 13,3 °C 16,4 °C 6,4 km/h (2 Bft)
18.05.2024 15:59 22,3 °C 16,4 °C 57 % 83 % 1010,4 hPa 0,0 l/m² 3,4 km/h (1 Bft) W 275 ° 2 min 272 W/m² 13,5 °C 16,4 °C 9,7 km/h (2 Bft)
18.05.2024 16:01 22,3 °C 16,4 °C 57 % 81 % 1010,5 hPa 0,0 l/m² 4,4 km/h (1 Bft) W 274 ° 2 min 265 W/m² 13,1 °C 16,4 °C 6,4 km/h (2 Bft)
18.05.2024 16:03 22,3 °C 16,5 °C 57 % 81 % 1010,4 hPa 0,0 l/m² 3,2 km/h (1 Bft) W 274 ° 2 min 258 W/m² 13,2 °C 16,5 °C 6,4 km/h (2 Bft)
18.05.2024 16:05 22,3 °C 16,6 °C 57 % 80 % 1010,4 hPa 0,0 l/m² 3,4 km/h (1 Bft) W 275 ° 2 min 248 W/m² 13,1 °C 16,6 °C 6,4 km/h (2 Bft)
18.05.2024 16:07 22,3 °C 16,4 °C 57 % 79 % 1010,4 hPa 0,0 l/m² 5,4 km/h (2 Bft) W 274 ° 2 min 243 W/m² 12,7 °C 16,4 °C 6,4 km/h (2 Bft)
18.05.2024 16:09 22,3 °C 16,4 °C 57 % 79 % 1010,3 hPa 0,0 l/m² 3,5 km/h (1 Bft) W 274 ° 2 min 237 W/m² 12,7 °C 16,4 °C 4,8 km/h (1 Bft)
18.05.2024 16:11 22,3 °C 16,5 °C 57 % 79 % 1010,3 hPa 0,0 l/m² 4,0 km/h (1 Bft) W 274 ° 2 min 227 W/m² 12,8 °C 16,5 °C 6,4 km/h (2 Bft)
18.05.2024 16:13 22,3 °C 16,5 °C 57 % 82 % 1010,3 hPa 0,0 l/m² 3,8 km/h (1 Bft) W 274 ° 2 min 220 W/m² 13,4 °C 16,5 °C 6,4 km/h (2 Bft)
18.05.2024 16:15 22,3 °C 16,4 °C 57 % 82 % 1010,3 hPa 0,0 l/m² 3,3 km/h (1 Bft) W 274 ° 2 min 216 W/m² 13,3 °C 16,4 °C 6,4 km/h (2 Bft)
18.05.2024 16:17 22,3 °C 16,4 °C 57 % 82 % 1010,2 hPa 0,0 l/m² 2,5 km/h (1 Bft) W 274 ° 2 min 214 W/m² 13,3 °C 16,4 °C 4,8 km/h (1 Bft)
18.05.2024 16:19 22,3 °C 16,4 °C 57 % 82 % 1010,2 hPa 0,0 l/m² 2,0 km/h (1 Bft) W 274 ° 2 min 211 W/m² 13,3 °C 16,4 °C 3,2 km/h (1 Bft)
18.05.2024 16:21 22,3 °C 16,3 °C 57 % 80 % 1010,1 hPa 0,0 l/m² 1,6 km/h (1 Bft) W 274 ° 2 min 200 W/m² 12,8 °C 16,3 °C 4,8 km/h (1 Bft)
18.05.2024 16:23 22,3 °C 16,4 °C 57 % 81 % 1010,1 hPa 0,0 l/m² 1,1 km/h (1 Bft) W 274 ° 2 min 190 W/m² 13,1 °C 16,4 °C 4,8 km/h (1 Bft)
18.05.2024 16:25 22,3 °C 16,4 °C 57 % 80 % 1010,1 hPa 0,0 l/m² 2,4 km/h (1 Bft) W 274 ° 2 min 176 W/m² 12,9 °C 16,4 °C 4,8 km/h (1 Bft)
18.05.2024 16:27 22,3 °C 16,4 °C 57 % 82 % 1010,1 hPa 0,0 l/m² 0,4 km/h (0 Bft) W 274 ° 2 min 158 W/m² 13,3 °C 16,4 °C 3,2 km/h (1 Bft)
18.05.2024 16:29 22,3 °C 16,4 °C 57 % 82 % 1010,1 hPa 0,0 l/m² 3,0 km/h (1 Bft) W 275 ° 2 min 149 W/m² 13,3 °C 16,4 °C 4,8 km/h (1 Bft)
18.05.2024 16:31 22,3 °C 16,4 °C 57 % 79 % 1010,3 hPa 0,0 l/m² 2,4 km/h (1 Bft) W 274 ° 2 min 144 W/m² 12,7 °C 16,4 °C 3,2 km/h (1 Bft)
18.05.2024 16:33 22,3 °C 16,4 °C 57 % 80 % 1010,2 hPa 0,0 l/m² 3,5 km/h (1 Bft) W 274 ° 2 min 137 W/m² 12,9 °C 16,4 °C 4,8 km/h (1 Bft)
18.05.2024 16:35 22,3 °C 16,4 °C 57 % 80 % 1010,2 hPa 0,0 l/m² 4,2 km/h (1 Bft) W 274 ° 2 min 135 W/m² 12,9 °C 16,4 °C 6,4 km/h (2 Bft)
18.05.2024 16:37 22,3 °C 16,4 °C 57 % 80 % 1010,2 hPa 0,0 l/m² 2,5 km/h (1 Bft) W 275 ° 2 min 132 W/m² 12,9 °C 16,4 °C 4,8 km/h (1 Bft)
18.05.2024 16:39 22,3 °C 16,6 °C 57 % 81 % 1010,2 hPa 0,0 l/m² 1,5 km/h (1 Bft) W 275 ° 2 min 130 W/m² 13,3 °C 16,6 °C 4,8 km/h (1 Bft)
18.05.2024 16:41 22,3 °C 16,6 °C 57 % 80 % 1010,1 hPa 0,0 l/m² 2,4 km/h (1 Bft) W 275 ° 2 min 128 W/m² 13,1 °C 16,6 °C 4,8 km/h (1 Bft)
18.05.2024 16:43 22,3 °C 16,7 °C 57 % 81 % 1010,1 hPa 0,0 l/m² 3,6 km/h (1 Bft) W 275 ° 2 min 128 W/m² 13,4 °C 16,7 °C 6,4 km/h (2 Bft)
18.05.2024 16:45 22,3 °C 16,6 °C 57 % 81 % 1010,0 hPa 0,0 l/m² 1,8 km/h (1 Bft) W 274 ° 2 min 128 W/m² 13,3 °C 16,6 °C 4,8 km/h (1 Bft)
18.05.2024 16:47 22,3 °C 16,6 °C 57 % 81 % 1010,1 hPa 0,0 l/m² 2,3 km/h (1 Bft) W 274 ° 2 min 130 W/m² 13,3 °C 16,6 °C 6,4 km/h (2 Bft)
18.05.2024 16:49 22,3 °C 16,6 °C 57 % 81 % 1010,0 hPa 0,0 l/m² 2,4 km/h (1 Bft) W 274 ° 2 min 132 W/m² 13,3 °C 16,6 °C 4,8 km/h (1 Bft)
18.05.2024 16:51 22,3 °C 16,5 °C 57 % 81 % 1010,1 hPa 0,0 l/m² 1,9 km/h (1 Bft) W 275 ° 2 min 134 W/m² 13,2 °C 16,5 °C 4,8 km/h (1 Bft)
18.05.2024 16:53 22,3 °C 16,6 °C 57 % 82 % 1010,0 hPa 0,0 l/m² 2,7 km/h (1 Bft) W 275 ° 2 min 137 W/m² 13,5 °C 16,6 °C 9,7 km/h (2 Bft)
18.05.2024 16:55 22,3 °C 16,6 °C 57 % 82 % 1010,0 hPa 0,0 l/m² 1,9 km/h (1 Bft) W 275 ° 2 min 141 W/m² 13,5 °C 16,6 °C 4,8 km/h (1 Bft)
18.05.2024 16:57 22,3 °C 16,6 °C 57 % 82 % 1010,0 hPa 0,0 l/m² 3,0 km/h (1 Bft) W 275 ° 2 min 144 W/m² 13,5 °C 16,6 °C 4,8 km/h (1 Bft)
18.05.2024 16:59 22,3 °C 16,6 °C 57 % 82 % 1010,0 hPa 0,0 l/m² 2,9 km/h (1 Bft) W 274 ° 2 min 146 W/m² 13,5 °C 16,6 °C 6,4 km/h (2 Bft)
18.05.2024 17:01 22,3 °C 16,6 °C 57 % 81 % 1010,0 hPa 0,0 l/m² 1,7 km/h (1 Bft) W 275 ° 2 min 148 W/m² 13,3 °C 16,6 °C 4,8 km/h (1 Bft)
18.05.2024 17:03 22,3 °C 16,4 °C 57 % 81 % 1009,9 hPa 0,0 l/m² 3,5 km/h (1 Bft) W 274 ° 2 min 151 W/m² 13,1 °C 16,4 °C 6,4 km/h (2 Bft)
18.05.2024 17:05 22,3 °C 16,4 °C 57 % 81 % 1009,9 hPa 0,0 l/m² 7,1 km/h (2 Bft) W 274 ° 2 min 155 W/m² 13,1 °C 16,0 °C 9,7 km/h (2 Bft)
18.05.2024 17:07 22,3 °C 16,3 °C 57 % 80 % 1010,0 hPa 0,0 l/m² 4,6 km/h (1 Bft) W 275 ° 2 min 158 W/m² 12,8 °C 16,3 °C 6,4 km/h (2 Bft)
18.05.2024 17:09 22,3 °C 16,3 °C 57 % 80 % 1010,0 hPa 0,0 l/m² 1,9 km/h (1 Bft) W 274 ° 2 min 160 W/m² 12,8 °C 16,3 °C 4,8 km/h (1 Bft)
18.05.2024 17:11 22,3 °C 16,3 °C 57 % 80 % 1010,1 hPa 0,0 l/m² 2,2 km/h (1 Bft) W 274 ° 2 min 163 W/m² 12,8 °C 16,3 °C 6,4 km/h (2 Bft)
18.05.2024 17:13 22,3 °C 16,3 °C 57 % 80 % 1010,0 hPa 0,0 l/m² 2,2 km/h (1 Bft) W 274 ° 2 min 167 W/m² 12,8 °C 16,3 °C 6,4 km/h (2 Bft)
18.05.2024 17:15 22,3 °C 16,4 °C 57 % 81 % 1010,0 hPa 0,0 l/m² 2,4 km/h (1 Bft) W 274 ° 2 min 174 W/m² 13,1 °C 16,4 °C 4,8 km/h (1 Bft)
18.05.2024 17:17 22,3 °C 16,4 °C 57 % 81 % 1010,0 hPa 0,0 l/m² 1,7 km/h (1 Bft) W 274 ° 2 min 179 W/m² 13,1 °C 16,4 °C 4,8 km/h (1 Bft)
18.05.2024 17:19 22,3 °C 16,4 °C 57 % 81 % 1009,9 hPa 0,0 l/m² 1,6 km/h (1 Bft) W 275 ° 2 min 183 W/m² 13,1 °C 16,4 °C 4,8 km/h (1 Bft)
18.05.2024 17:21 22,3 °C 16,6 °C 57 % 80 % 1009,9 hPa 0,0 l/m² 3,4 km/h (1 Bft) W 274 ° 2 min 193 W/m² 13,1 °C 16,6 °C 6,4 km/h (2 Bft)
18.05.2024 17:23 22,3 °C 16,5 °C 57 % 80 % 1009,9 hPa 0,0 l/m² 4,2 km/h (1 Bft) W 275 ° 2 min 202 W/m² 13,0 °C 16,5 °C 6,4 km/h (2 Bft)
18.05.2024 17:25 22,3 °C 16,4 °C 57 % 80 % 1009,9 hPa 0,0 l/m² 3,4 km/h (1 Bft) W 275 ° 2 min 214 W/m² 12,9 °C 16,4 °C 6,4 km/h (2 Bft)
18.05.2024 17:27 22,3 °C 16,6 °C 57 % 81 % 1009,9 hPa 0,0 l/m² 3,3 km/h (1 Bft) W 275 ° 2 min 237 W/m² 13,3 °C 16,6 °C 9,7 km/h (2 Bft)
18.05.2024 17:29 22,3 °C 16,6 °C 57 % 80 % 1009,8 hPa 0,0 l/m² 3,2 km/h (1 Bft) W 275 ° 2 min 267 W/m² 13,1 °C 16,6 °C 4,8 km/h (1 Bft)
18.05.2024 17:31 22,3 °C 16,7 °C 57 % 79 % 1009,9 hPa 0,0 l/m² 3,9 km/h (1 Bft) W 274 ° 2 min 276 W/m² 13,0 °C 16,7 °C 4,8 km/h (1 Bft)
18.05.2024 17:33 22,3 °C 16,9 °C 57 % 80 % 1009,8 hPa 0,0 l/m² 2,4 km/h (1 Bft) W 275 ° 2 min 357 W/m² 13,4 °C 16,9 °C 4,8 km/h (1 Bft)
18.05.2024 17:35 22,3 °C 17,1 °C 57 % 80 % 1009,8 hPa 0,0 l/m² 1,3 km/h (1 Bft) W 274 ° 2 min 422 W/m² 13,6 °C 17,1 °C 3,2 km/h (1 Bft)
18.05.2024 17:37 22,3 °C 17,3 °C 57 % 78 % 1009,8 hPa 0,0 l/m² 4,0 km/h (1 Bft) W 275 ° 2 min 366 W/m² 13,4 °C 17,3 °C 6,4 km/h (2 Bft)
18.05.2024 17:39 22,3 °C 17,3 °C 57 % 78 % 1009,7 hPa 0,0 l/m² 2,5 km/h (1 Bft) W 275 ° 2 min 488 W/m² 13,4 °C 17,3 °C 4,8 km/h (1 Bft)
18.05.2024 17:41 22,3 °C 17,4 °C 57 % 77 % 1009,7 hPa 0,0 l/m² 4,1 km/h (1 Bft) W 275 ° 2 min 652 W/m² 13,3 °C 17,4 °C 9,7 km/h (2 Bft)
18.05.2024 17:43 22,3 °C 17,6 °C 57 % 76 % 1009,7 hPa 0,0 l/m² 3,3 km/h (1 Bft) W 275 ° 2 min 533 W/m² 13,3 °C 17,6 °C 9,7 km/h (2 Bft)
18.05.2024 17:45 22,3 °C 17,9 °C 57 % 76 % 1009,7 hPa 0,0 l/m² 3,8 km/h (1 Bft) W-NW 291 ° 2 min 533 W/m² 13,6 °C 17,9 °C 8,0 km/h (2 Bft)
18.05.2024 17:47 22,3 °C 17,9 °C 57 % 75 % 1009,7 hPa 0,0 l/m² 3,9 km/h (1 Bft) W-NW 298 ° 2 min 626 W/m² 13,4 °C 17,9 °C 8,0 km/h (2 Bft)
18.05.2024 17:49 22,3 °C 17,9 °C 57 % 73 % 1009,6 hPa 0,0 l/m² 4,8 km/h (1 Bft) NW 306 ° 2 min 575 W/m² 13,0 °C 17,9 °C 8,0 km/h (2 Bft)
18.05.2024 17:51 22,3 °C 18,0 °C 57 % 74 % 1009,6 hPa 0,0 l/m² 2,4 km/h (1 Bft) NW 306 ° 2 min 552 W/m² 13,3 °C 18,0 °C 8,0 km/h (2 Bft)
18.05.2024 17:53 22,3 °C 18,1 °C 57 % 73 % 1009,6 hPa 0,0 l/m² 3,3 km/h (1 Bft) NW 306 ° 2 min 519 W/m² 13,2 °C 18,1 °C 8,0 km/h (2 Bft)
18.05.2024 17:55 22,3 °C 18,2 °C 56 % 75 % 1009,6 hPa 0,0 l/m² 1,6 km/h (1 Bft) NW 306 ° 2 min 432 W/m² 13,7 °C 18,2 °C 4,8 km/h (1 Bft)
18.05.2024 17:57 22,3 °C 18,2 °C 56 % 75 % 1009,5 hPa 0,0 l/m² 0,4 km/h (0 Bft) NW 306 ° 2 min 515 W/m² 13,7 °C 18,2 °C 1,6 km/h (1 Bft)
18.05.2024 17:59 22,3 °C 18,1 °C 56 % 75 % 1009,7 hPa 0,0 l/m² 0,6 km/h (0 Bft) NW 306 ° 2 min 420 W/m² 13,6 °C 18,1 °C 3,2 km/h (1 Bft)
18.05.2024 18:01 22,3 °C 18,1 °C 56 % 75 % 1009,7 hPa 0,0 l/m² 4,3 km/h (1 Bft) W-NW 300 ° 2 min 376 W/m² 13,6 °C 18,1 °C 8,0 km/h (2 Bft)
18.05.2024 18:03 22,3 °C 17,9 °C 56 % 74 % 1009,6 hPa 0,0 l/m² 4,3 km/h (1 Bft) NW 315 ° 2 min 410 W/m² 13,2 °C 17,9 °C 6,4 km/h (2 Bft)
18.05.2024 18:05 22,3 °C 17,9 °C 57 % 73 % 1009,6 hPa 0,0 l/m² 2,3 km/h (1 Bft) NW 315 ° 2 min 461 W/m² 13,0 °C 17,9 °C 3,2 km/h (1 Bft)
18.05.2024 18:07 22,3 °C 17,8 °C 56 % 74 % 1009,5 hPa 0,0 l/m² 0,3 km/h (0 Bft) NW 315 ° 2 min 422 W/m² 13,1 °C 17,8 °C 1,6 km/h (1 Bft)
18.05.2024 18:09 22,3 °C 18,1 °C 56 % 80 % 1009,6 hPa 0,0 l/m² 0,9 km/h (0 Bft) NW 315 ° 2 min 417 W/m² 14,6 °C 18,1 °C 3,2 km/h (1 Bft)
18.05.2024 18:11 22,2 °C 18,1 °C 56 % 73 % 1009,6 hPa 0,0 l/m² 0,6 km/h (0 Bft) NW 315 ° 2 min 431 W/m² 13,2 °C 18,1 °C 1,6 km/h (1 Bft)
18.05.2024 18:13 22,3 °C 18,1 °C 56 % 76 % 1009,5 hPa 0,0 l/m² 1,0 km/h (0 Bft) NW 315 ° 2 min 420 W/m² 13,8 °C 18,1 °C 3,2 km/h (1 Bft)
18.05.2024 18:15 22,3 °C 18,0 °C 56 % 74 % 1009,5 hPa 0,0 l/m² 1,2 km/h (1 Bft) NW 315 ° 2 min 397 W/m² 13,3 °C 18,0 °C 4,8 km/h (1 Bft)
18.05.2024 18:17 22,3 °C 18,1 °C 57 % 73 % 1009,5 hPa 0,0 l/m² 2,7 km/h (1 Bft) NW 315 ° 2 min 385 W/m² 13,2 °C 18,1 °C 4,8 km/h (1 Bft)
18.05.2024 18:19 22,3 °C 18,1 °C 56 % 76 % 1009,5 hPa 0,0 l/m² 2,4 km/h (1 Bft) NW 315 ° 2 min 258 W/m² 13,8 °C 18,1 °C 4,8 km/h (1 Bft)
18.05.2024 18:21 22,3 °C 17,9 °C 56 % 76 % 1009,5 hPa 0,0 l/m² 3,9 km/h (1 Bft) NW 314 ° 2 min 123 W/m² 13,6 °C 17,9 °C 4,8 km/h (1 Bft)
18.05.2024 18:23 22,3 °C 17,7 °C 56 % 75 % 1009,5 hPa 0,0 l/m² 2,7 km/h (1 Bft) NW 314 ° 2 min 120 W/m² 13,2 °C 17,7 °C 4,8 km/h (1 Bft)
18.05.2024 18:25 22,2 °C 17,5 °C 56 % 75 % 1009,4 hPa 0,0 l/m² 0,8 km/h (0 Bft) NW 314 ° 2 min 109 W/m² 13,0 °C 17,5 °C 3,2 km/h (1 Bft)
18.05.2024 18:27 22,2 °C 17,3 °C 57 % 77 % 1009,5 hPa 0,0 l/m² 1,3 km/h (1 Bft) NW 314 ° 2 min 107 W/m² 13,2 °C 17,3 °C 3,2 km/h (1 Bft)
18.05.2024 18:29 22,3 °C 17,2 °C 56 % 78 % 1009,4 hPa 0,0 l/m² 1,6 km/h (1 Bft) NW 314 ° 2 min 104 W/m² 13,3 °C 17,2 °C 3,2 km/h (1 Bft)
18.05.2024 18:31 22,2 °C 17,0 °C 56 % 78 % 1009,4 hPa 0,0 l/m² 1,7 km/h (1 Bft) NW 314 ° 2 min 102 W/m² 13,1 °C 17,0 °C 4,8 km/h (1 Bft)
18.05.2024 18:33 22,2 °C 16,9 °C 56 % 79 % 1009,5 hPa 0,0 l/m² 1,6 km/h (1 Bft) NW 314 ° 2 min 104 W/m² 13,2 °C 16,9 °C 3,2 km/h (1 Bft)
18.05.2024 18:35 22,3 °C 16,8 °C 56 % 80 % 1009,5 hPa 0,0 l/m² 1,0 km/h (0 Bft) NW 314 ° 2 min 149 W/m² 13,3 °C 16,8 °C 3,2 km/h (1 Bft)
18.05.2024 18:37 22,2 °C 16,7 °C 56 % 80 % 1009,5 hPa 0,0 l/m² 3,8 km/h (1 Bft) NW 314 ° 2 min 253 W/m² 13,2 °C 16,7 °C 4,8 km/h (1 Bft)
18.05.2024 18:39 22,2 °C 16,8 °C 57 % 80 % 1009,6 hPa 0,0 l/m² 3,2 km/h (1 Bft) NW 314 ° 2 min 111 W/m² 13,3 °C 16,8 °C 4,8 km/h (1 Bft)
18.05.2024 18:41 22,2 °C 16,8 °C 56 % 82 % 1009,6 hPa 0,0 l/m² 3,7 km/h (1 Bft) NW 314 ° 2 min 111 W/m² 13,7 °C 16,8 °C 4,8 km/h (1 Bft)
18.05.2024 18:43 22,2 °C 16,7 °C 57 % 81 % 1009,6 hPa 0,0 l/m² 5,1 km/h (1 Bft) W-SW 247 ° 2 min 179 W/m² 13,4 °C 16,7 °C 8,0 km/h (2 Bft)
18.05.2024 18:45 22,2 °C 16,8 °C 56 % 81 % 1009,7 hPa 0,0 l/m² 1,6 km/h (1 Bft) W-SW 247 ° 2 min 251 W/m² 13,5 °C 16,8 °C 4,8 km/h (1 Bft)
18.05.2024 18:46 22,2 °C 16,9 °C 56 % 80 % 1009,7 hPa 0,0 l/m² 0,0 km/h (0 Bft) W-SW 248 ° 1 min 229 W/m² 13,4 °C 16,9 °C 0,0 km/h (0 Bft)
18.05.2024 18:48 22,2 °C 17,2 °C 57 % 80 % 1009,5 hPa 0,0 l/m² 1,0 km/h (0 Bft) W-SW 254 ° 2 min 144 W/m² 13,7 °C 17,2 °C 6,4 km/h (2 Bft)
18.05.2024 18:50 22,2 °C 17,3 °C 57 % 79 % 1009,6 hPa 0,0 l/m² 1,9 km/h (1 Bft) W-SW 254 ° 2 min 148 W/m² 13,6 °C 17,3 °C 4,8 km/h (1 Bft)
18.05.2024 18:52 22,3 °C 17,4 °C 56 % 78 % 1009,7 hPa 0,0 l/m² 0,9 km/h (0 Bft) W-SW 254 ° 2 min 179 W/m² 13,5 °C 17,4 °C 4,8 km/h (1 Bft)
18.05.2024 18:54 22,3 °C 17,4 °C 57 % 77 % 1009,6 hPa 0,0 l/m² 1,8 km/h (1 Bft) W-SW 254 ° 2 min 128 W/m² 13,3 °C 17,4 °C 4,8 km/h (1 Bft)
18.05.2024 18:56 22,2 °C 17,3 °C 56 % 77 % 1009,7 hPa 0,0 l/m² 1,8 km/h (1 Bft) W-SW 254 ° 2 min 118 W/m² 13,2 °C 17,3 °C 3,2 km/h (1 Bft)
18.05.2024 18:58 22,2 °C 17,3 °C 57 % 77 % 1009,7 hPa 0,0 l/m² 1,6 km/h (1 Bft) W-SW 254 ° 2 min 111 W/m² 13,2 °C 17,3 °C 4,8 km/h (1 Bft)
18.05.2024 19:00 22,3 °C 17,2 °C 57 % 77 % 1009,7 hPa 0,0 l/m² 3,8 km/h (1 Bft) W-SW 254 ° 2 min 105 W/m² 13,1 °C 17,2 °C 4,8 km/h (1 Bft)
18.05.2024 19:02 22,3 °C 17,1 °C 57 % 77 % 1009,7 hPa 0,0 l/m² 3,7 km/h (1 Bft) W-SW 254 ° 2 min 104 W/m² 13,0 °C 17,1 °C 6,4 km/h (2 Bft)
18.05.2024 19:04 22,2 °C 17,1 °C 57 % 77 % 1009,5 hPa 0,0 l/m² 4,4 km/h (1 Bft) W-SW 254 ° 2 min 102 W/m² 13,0 °C 17,1 °C 6,4 km/h (2 Bft)
18.05.2024 19:06 22,2 °C 17,0 °C 57 % 78 % 1009,7 hPa 0,0 l/m² 2,2 km/h (1 Bft) W-SW 254 ° 2 min 104 W/m² 13,1 °C 17,0 °C 4,8 km/h (1 Bft)
18.05.2024 19:08 22,2 °C 17,0 °C 57 % 78 % 1009,7 hPa 0,0 l/m² 4,0 km/h (1 Bft) W-SW 254 ° 2 min 113 W/m² 13,1 °C 17,0 °C 6,4 km/h (2 Bft)
18.05.2024 19:10 22,2 °C 16,9 °C 57 % 78 % 1009,7 hPa 0,0 l/m² 3,8 km/h (1 Bft) W-SW 254 ° 2 min 105 W/m² 13,0 °C 16,9 °C 6,4 km/h (2 Bft)
18.05.2024 19:12 22,2 °C 16,9 °C 57 % 77 % 1009,5 hPa 0,0 l/m² 3,5 km/h (1 Bft) W-SW 254 ° 2 min 113 W/m² 12,8 °C 16,9 °C 4,8 km/h (1 Bft)
18.05.2024 19:14 22,2 °C 16,9 °C 56 % 77 % 1009,7 hPa 0,0 l/m² 2,8 km/h (1 Bft) W-SW 254 ° 2 min 114 W/m² 12,8 °C 16,9 °C 4,8 km/h (1 Bft)
18.05.2024 19:16 22,2 °C 17,0 °C 56 % 77 % 1009,6 hPa 0,0 l/m² 1,8 km/h (1 Bft) W-SW 254 ° 2 min 107 W/m² 12,9 °C 17,0 °C 4,8 km/h (1 Bft)
18.05.2024 19:18 22,2 °C 17,1 °C 56 % 77 % 1009,6 hPa 0,0 l/m² 1,2 km/h (1 Bft) W-SW 254 ° 2 min 97 W/m² 13,0 °C 17,1 °C 3,2 km/h (1 Bft)
18.05.2024 19:20 22,2 °C 17,1 °C 56 % 76 % 1009,6 hPa 0,0 l/m² 2,0 km/h (1 Bft) W-SW 254 ° 2 min 93 W/m² 12,8 °C 17,1 °C 3,2 km/h (1 Bft)
18.05.2024 19:22 22,2 °C 17,0 °C 56 % 76 % 1009,6 hPa 0,0 l/m² 1,5 km/h (1 Bft) W-SW 254 ° 2 min 98 W/m² 12,7 °C 17,0 °C 3,2 km/h (1 Bft)
18.05.2024 19:24 22,2 °C 17,0 °C 56 % 78 % 1009,6 hPa 0,0 l/m² 2,1 km/h (1 Bft) W-SW 254 ° 2 min 142 W/m² 13,1 °C 17,0 °C 4,8 km/h (1 Bft)
18.05.2024 19:26 22,2 °C 17,1 °C 56 % 78 % 1009,6 hPa 0,0 l/m² 2,8 km/h (1 Bft) W-SW 254 ° 2 min 123 W/m² 13,2 °C 17,1 °C 4,8 km/h (1 Bft)
18.05.2024 19:28 22,2 °C 17,1 °C 56 % 79 % 1009,6 hPa 0,0 l/m² 1,8 km/h (1 Bft) W-SW 254 ° 2 min 107 W/m² 13,4 °C 17,1 °C 3,2 km/h (1 Bft)
18.05.2024 19:30 22,2 °C 17,1 °C 56 % 79 % 1009,6 hPa 0,0 l/m² 0,2 km/h (0 Bft) W-SW 254 ° 2 min 100 W/m² 13,4 °C 17,1 °C 1,6 km/h (1 Bft)
18.05.2024 19:32 22,2 °C 17,0 °C 57 % 78 % 1009,6 hPa 0,0 l/m² 1,9 km/h (1 Bft) W-SW 254 ° 2 min 104 W/m² 13,1 °C 17,0 °C 3,2 km/h (1 Bft)
18.05.2024 19:34 22,2 °C 17,0 °C 57 % 79 % 1009,5 hPa 0,0 l/m² 0,0 km/h (0 Bft) W-SW 254 ° 2 min 107 W/m² 13,3 °C 17,0 °C 0,0 km/h (0 Bft)
18.05.2024 19:36 22,2 °C 16,9 °C 57 % 78 % 1009,6 hPa 0,0 l/m² 0,7 km/h (0 Bft) W-SW 254 ° 2 min 114 W/m² 13,0 °C 16,9 °C 3,2 km/h (1 Bft)
18.05.2024 19:38 22,2 °C 16,9 °C 57 % 79 % 1009,5 hPa 0,0 l/m² 0,2 km/h (0 Bft) W-SW 254 ° 2 min 127 W/m² 13,2 °C 16,9 °C 1,6 km/h (1 Bft)
18.05.2024 19:40 22,2 °C 16,9 °C 57 % 78 % 1009,5 hPa 0,0 l/m² 0,0 km/h (0 Bft) W-SW 254 ° 2 min 114 W/m² 13,0 °C 16,9 °C 0,0 km/h (0 Bft)
18.05.2024 19:42 22,2 °C 16,8 °C 57 % 79 % 1009,5 hPa 0,0 l/m² 0,0 km/h (0 Bft) W-SW 254 ° 2 min 97 W/m² 13,1 °C 16,8 °C 0,0 km/h (0 Bft)
18.05.2024 19:44 22,2 °C 16,9 °C 57 % 80 % 1009,6 hPa 0,0 l/m² 0,0 km/h (0 Bft) W-SW 254 ° 2 min 111 W/m² 13,4 °C 16,9 °C 0,0 km/h (0 Bft)
18.05.2024 19:46 22,2 °C 16,9 °C 57 % 80 % 1009,5 hPa 0,0 l/m² 0,0 km/h (0 Bft) W-SW 254 ° 2 min 93 W/m² 13,4 °C 16,9 °C 0,0 km/h (0 Bft)
18.05.2024 19:48 22,2 °C 16,9 °C 57 % 80 % 1009,5 hPa 0,0 l/m² 0,0 km/h (0 Bft) W-SW 254 ° 2 min 88 W/m² 13,4 °C 16,9 °C 0,0 km/h (0 Bft)
18.05.2024 19:50 22,2 °C 16,8 °C 57 % 80 % 1009,4 hPa 0,0 l/m² 0,0 km/h (0 Bft) W-SW 254 ° 2 min 81 W/m² 13,3 °C 16,8 °C 0,0 km/h (0 Bft)
18.05.2024 19:52 22,2 °C 16,8 °C 57 % 80 % 1009,5 hPa 0,0 l/m² 0,0 km/h (0 Bft) W-SW 254 ° 2 min 90 W/m² 13,3 °C 16,8 °C 0,0 km/h (0 Bft)
18.05.2024 19:54 22,2 °C 16,8 °C 57 % 81 % 1009,5 hPa 0,0 l/m² 0,0 km/h (0 Bft) W-SW 254 ° 2 min 72 W/m² 13,5 °C 16,8 °C 0,0 km/h (0 Bft)
18.05.2024 19:56 22,2 °C 16,7 °C 57 % 80 % 1009,5 hPa 0,0 l/m² 0,0 km/h (0 Bft) W-SW 254 ° 2 min 67 W/m² 13,2 °C 16,7 °C 0,0 km/h (0 Bft)
18.05.2024 19:58 22,2 °C 16,7 °C 57 % 80 % 1009,5 hPa 0,0 l/m² 0,0 km/h (0 Bft) W-SW 254 ° 2 min 58 W/m² 13,2 °C 16,7 °C 0,0 km/h (0 Bft)
18.05.2024 20:00 22,2 °C 16,7 °C 57 % 80 % 1009,5 hPa 0,0 l/m² 0,4 km/h (0 Bft) W-SW 254 ° 2 min 53 W/m² 13,2 °C 16,7 °C 1,6 km/h (1 Bft)
18.05.2024 20:02 22,2 °C 16,7 °C 57 % 80 % 1009,5 hPa 0,0 l/m² 0,1 km/h (0 Bft) W-SW 254 ° 2 min 53 W/m² 13,2 °C 16,7 °C 1,6 km/h (1 Bft)
18.05.2024 20:04 22,2 °C 16,6 °C 57 % 80 % 1009,5 hPa 0,0 l/m² 0,0 km/h (0 Bft) W-SW 254 ° 0 min 42 W/m² 13,1 °C 16,6 °C 0,0 km/h (0 Bft)
18.05.2024 20:06 22,2 °C 16,6 °C 57 % 79 % 1009,6 hPa 0,0 l/m² 0,0 km/h (0 Bft) W-SW 254 ° 0 min 40 W/m² 12,9 °C 16,6 °C 0,0 km/h (0 Bft)
18.05.2024 20:08 22,2 °C 16,5 °C 57 % 79 % 1009,5 hPa 0,0 l/m² 0,0 km/h (0 Bft) W-SW 254 ° 0 min 37 W/m² 12,8 °C 16,5 °C 0,0 km/h (0 Bft)
18.05.2024 20:10 22,2 °C 16,4 °C 57 % 79 % 1009,5 hPa 0,0 l/m² 0,0 km/h (0 Bft) W-SW 254 ° 0 min 33 W/m² 12,7 °C 16,4 °C 0,0 km/h (0 Bft)
18.05.2024 20:12 22,2 °C 16,4 °C 57 % 78 % 1009,5 hPa 0,0 l/m² 0,4 km/h (0 Bft) W-SW 254 ° 0 min 32 W/m² 12,6 °C 16,4 °C 1,6 km/h (1 Bft)
18.05.2024 20:14 22,2 °C 16,4 °C 57 % 78 % 1009,5 hPa 0,0 l/m² 1,5 km/h (1 Bft) W-SW 254 ° 0 min 30 W/m² 12,6 °C 16,4 °C 3,2 km/h (1 Bft)
18.05.2024 20:16 22,2 °C 16,3 °C 57 % 79 % 1009,5 hPa 0,0 l/m² 0,1 km/h (0 Bft) W-SW 254 ° 0 min 28 W/m² 12,6 °C 16,3 °C 1,6 km/h (1 Bft)
18.05.2024 20:18 22,2 °C 16,3 °C 57 % 79 % 1009,4 hPa 0,0 l/m² 0,0 km/h (0 Bft) W-SW 254 ° 0 min 26 W/m² 12,6 °C 16,3 °C 0,0 km/h (0 Bft)
18.05.2024 20:20 22,2 °C 16,2 °C 57 % 80 % 1009,4 hPa 0,0 l/m² 0,0 km/h (0 Bft) W-SW 254 ° 0 min 25 W/m² 12,7 °C 16,2 °C 0,0 km/h (0 Bft)
18.05.2024 20:22 22,2 °C 16,1 °C 57 % 80 % 1009,5 hPa 0,0 l/m² 0,0 km/h (0 Bft) W-SW 254 ° 0 min 25 W/m² 12,6 °C 16,1 °C 0,0 km/h (0 Bft)
18.05.2024 20:24 22,2 °C 16,1 °C 57 % 80 % 1009,5 hPa 0,0 l/m² 0,0 km/h (0 Bft) W-SW 254 ° 0 min 23 W/m² 12,6 °C 16,1 °C 0,0 km/h (0 Bft)
18.05.2024 20:26 22,2 °C 15,9 °C 57 % 81 % 1009,5 hPa 0,0 l/m² 0,0 km/h (0 Bft) W-SW 254 ° 0 min 21 W/m² 12,6 °C 15,9 °C 0,0 km/h (0 Bft)
18.05.2024 20:28 22,2 °C 15,9 °C 57 % 81 % 1009,5 hPa 0,0 l/m² 0,0 km/h (0 Bft) W-SW 254 ° 0 min 19 W/m² 12,6 °C 15,9 °C 0,0 km/h (0 Bft)
18.05.2024 20:30 22,2 °C 15,9 °C 57 % 81 % 1009,4 hPa 0,0 l/m² 1,1 km/h (1 Bft) W-SW 254 ° 0 min 18 W/m² 12,6 °C 15,9 °C 3,2 km/h (1 Bft)
18.05.2024 20:32 22,2 °C 15,8 °C 57 % 81 % 1009,5 hPa 0,0 l/m² 1,7 km/h (1 Bft) W-SW 254 ° 0 min 16 W/m² 12,5 °C 15,8 °C 3,2 km/h (1 Bft)
18.05.2024 20:34 22,2 °C 15,8 °C 57 % 81 % 1009,5 hPa 0,0 l/m² 2,5 km/h (1 Bft) W-SW 254 ° 0 min 14 W/m² 12,5 °C 15,8 °C 3,2 km/h (1 Bft)
18.05.2024 20:36 22,2 °C 15,7 °C 57 % 82 % 1009,5 hPa 0,0 l/m² 1,2 km/h (1 Bft) W-SW 254 ° 0 min 14 W/m² 12,6 °C 15,7 °C 3,2 km/h (1 Bft)
18.05.2024 20:38 22,2 °C 15,7 °C 57 % 82 % 1009,5 hPa 0,0 l/m² 1,8 km/h (1 Bft) W-SW 254 ° 0 min 12 W/m² 12,6 °C 15,7 °C 3,2 km/h (1 Bft)
18.05.2024 20:40 22,3 °C 15,6 °C 57 % 82 % 1009,5 hPa 0,0 l/m² 1,8 km/h (1 Bft) W-SW 254 ° 0 min 11 W/m² 12,5 °C 15,6 °C 3,2 km/h (1 Bft)
18.05.2024 20:42 22,2 °C 15,4 °C 57 % 83 % 1009,4 hPa 0,0 l/m² 0,8 km/h (0 Bft) W-SW 254 ° 0 min 11 W/m² 12,5 °C 15,4 °C 1,6 km/h (1 Bft)
18.05.2024 20:44 22,2 °C 15,3 °C 57 % 83 % 1009,5 hPa 0,0 l/m² 0,0 km/h (0 Bft) W-SW 254 ° 0 min 9 W/m² 12,4 °C 15,3 °C 0,0 km/h (0 Bft)
18.05.2024 20:46 22,2 °C 15,2 °C 57 % 83 % 1009,5 hPa 0,0 l/m² 0,0 km/h (0 Bft) W-SW 254 ° 0 min 9 W/m² 12,3 °C 15,2 °C 0,0 km/h (0 Bft)
18.05.2024 20:48 22,2 °C 15,2 °C 57 % 84 % 1009,5 hPa 0,0 l/m² 0,0 km/h (0 Bft) W-SW 254 ° 0 min 9 W/m² 12,5 °C 15,2 °C 0,0 km/h (0 Bft)
18.05.2024 20:50 22,2 °C 15,1 °C 57 % 84 % 1009,5 hPa 0,0 l/m² 0,0 km/h (0 Bft) W-SW 254 ° 0 min 7 W/m² 12,4 °C 15,1 °C 0,0 km/h (0 Bft)
18.05.2024 20:52 22,2 °C 14,9 °C 57 % 84 % 1009,5 hPa 0,0 l/m² 0,0 km/h (0 Bft) W-SW 254 ° 0 min 7 W/m² 12,2 °C 14,9 °C 0,0 km/h (0 Bft)
18.05.2024 20:54 22,2 °C 14,9 °C 57 % 84 % 1009,6 hPa 0,0 l/m² 0,0 km/h (0 Bft) W-SW 254 ° 0 min 7 W/m² 12,2 °C 14,9 °C 0,0 km/h (0 Bft)
18.05.2024 20:56 22,2 °C 14,8 °C 57 % 85 % 1009,5 hPa 0,0 l/m² 0,0 km/h (0 Bft) W-SW 254 ° 0 min 5 W/m² 12,3 °C 14,8 °C 0,0 km/h (0 Bft)
18.05.2024 20:58 22,2 °C 14,6 °C 57 % 85 % 1009,6 hPa 0,0 l/m² 0,0 km/h (0 Bft) W-SW 254 ° 0 min 5 W/m² 12,1 °C 14,6 °C 0,0 km/h (0 Bft)
18.05.2024 21:00 22,2 °C 14,4 °C 57 % 86 % 1009,6 hPa 0,0 l/m² 0,0 km/h (0 Bft) W-SW 254 ° 0 min 5 W/m² 12,1 °C 14,4 °C 0,0 km/h (0 Bft)
18.05.2024 21:02 22,2 °C 14,2 °C 57 % 86 % 1009,6 hPa 0,0 l/m² 0,0 km/h (0 Bft) W-SW 254 ° 0 min 5 W/m² 11,9 °C 14,2 °C 0,0 km/h (0 Bft)
18.05.2024 21:04 22,2 °C 14,1 °C 57 % 86 % 1009,6 hPa 0,0 l/m² 0,0 km/h (0 Bft) W-SW 254 ° 0 min 0 W/m² 11,8 °C 14,1 °C 0,0 km/h (0 Bft)
18.05.2024 21:06 22,2 °C 14,1 °C 57 % 87 % 1009,7 hPa 0,0 l/m² 0,0 km/h (0 Bft) W-SW 254 ° 0 min 0 W/m² 12,0 °C 14,1 °C 0,0 km/h (0 Bft)
18.05.2024 21:08 22,2 °C 14,1 °C 57 % 87 % 1009,6 hPa 0,0 l/m² 0,0 km/h (0 Bft) W-SW 254 ° 0 min 0 W/m² 12,0 °C 14,1 °C 0,0 km/h (0 Bft)
18.05.2024 21:10 22,2 °C 14,1 °C 57 % 87 % 1009,6 hPa 0,0 l/m² 0,0 km/h (0 Bft) W-SW 254 ° 0 min 0 W/m² 12,0 °C 14,1 °C 0,0 km/h (0 Bft)
18.05.2024 21:12 22,2 °C 14,0 °C 57 % 87 % 1009,5 hPa 0,0 l/m² 0,0 km/h (0 Bft) W-SW 254 ° 0 min 0 W/m² 11,9 °C 14,0 °C 0,0 km/h (0 Bft)
18.05.2024 21:14 22,2 °C 14,1 °C 57 % 88 % 1009,6 hPa 0,0 l/m² 0,0 km/h (0 Bft) W-SW 254 ° 0 min 0 W/m² 12,1 °C 14,1 °C 0,0 km/h (0 Bft)
18.05.2024 21:16 22,2 °C 14,1 °C 57 % 87 % 1009,6 hPa 0,0 l/m² 0,0 km/h (0 Bft) W-SW 254 ° 0 min 0 W/m² 12,0 °C 14,1 °C 0,0 km/h (0 Bft)
18.05.2024 21:18 22,2 °C 13,9 °C 57 % 87 % 1009,6 hPa 0,0 l/m² 0,0 km/h (0 Bft) W-SW 254 ° 0 min 0 W/m² 11,8 °C 13,9 °C 0,0 km/h (0 Bft)
18.05.2024 21:20 22,2 °C 13,8 °C 57 % 88 % 1009,5 hPa 0,0 l/m² 0,0 km/h (0 Bft) W-SW 254 ° 0 min 0 W/m² 11,8 °C 13,8 °C 0,0 km/h (0 Bft)
18.05.2024 21:22 22,2 °C 13,7 °C 57 % 88 % 1009,6 hPa 0,0 l/m² 0,0 km/h (0 Bft) W-SW 254 ° 0 min 0 W/m² 11,7 °C 13,7 °C 0,0 km/h (0 Bft)
18.05.2024 21:24 22,2 °C 13,5 °C 57 % 88 % 1009,7 hPa 0,0 l/m² 0,0 km/h (0 Bft) W-SW 254 ° 0 min 0 W/m² 11,6 °C 13,5 °C 0,0 km/h (0 Bft)
18.05.2024 21:26 22,2 °C 13,3 °C 57 % 89 % 1009,6 hPa 0,0 l/m² 0,0 km/h (0 Bft) W-SW 254 ° 0 min 0 W/m² 11,5 °C 13,3 °C 0,0 km/h (0 Bft)
18.05.2024 21:28 22,2 °C 13,3 °C 57 % 89 % 1009,7 hPa 0,0 l/m² 0,0 km/h (0 Bft) W-SW 254 ° 0 min 0 W/m² 11,5 °C 13,3 °C 0,0 km/h (0 Bft)
18.05.2024 21:30 22,2 °C 13,3 °C 57 % 89 % 1009,7 hPa 0,0 l/m² 0,0 km/h (0 Bft) W-SW 254 ° 0 min 0 W/m² 11,5 °C 13,3 °C 0,0 km/h (0 Bft)
18.05.2024 21:32 22,3 °C 13,3 °C 57 % 89 % 1009,8 hPa 0,0 l/m² 0,0 km/h (0 Bft) W-SW 254 ° 0 min 0 W/m² 11,5 °C 13,3 °C 0,0 km/h (0 Bft)
18.05.2024 21:34 22,2 °C 13,3 °C 57 % 89 % 1009,7 hPa 0,0 l/m² 0,0 km/h (0 Bft) W-SW 254 ° 0 min 0 W/m² 11,5 °C 13,3 °C 0,0 km/h (0 Bft)
18.05.2024 21:36 22,2 °C 13,2 °C 57 % 89 % 1009,8 hPa 0,0 l/m² 0,0 km/h (0 Bft) W-SW 254 ° 0 min 0 W/m² 11,4 °C 13,2 °C 0,0 km/h (0 Bft)
18.05.2024 21:38 22,2 °C 13,2 °C 57 % 89 % 1009,8 hPa 0,0 l/m² 0,0 km/h (0 Bft) W-SW 254 ° 0 min 0 W/m² 11,4 °C 13,2 °C 0,0 km/h (0 Bft)
18.05.2024 21:40 22,3 °C 13,1 °C 57 % 89 % 1009,8 hPa 0,0 l/m² 0,0 km/h (0 Bft) W-SW 254 ° 0 min 0 W/m² 11,3 °C 13,1 °C 0,0 km/h (0 Bft)
18.05.2024 21:42 22,2 °C 13,1 °C 57 % 89 % 1009,9 hPa 0,0 l/m² 0,0 km/h (0 Bft) W-SW 254 ° 0 min 0 W/m² 11,3 °C 13,1 °C 0,0 km/h (0 Bft)
18.05.2024 21:44 22,3 °C 13,0 °C 57 % 89 % 1009,9 hPa 0,0 l/m² 0,0 km/h (0 Bft) W-SW 254 ° 0 min 0 W/m² 11,2 °C 13,0 °C 0,0 km/h (0 Bft)
18.05.2024 21:46 22,3 °C 12,9 °C 57 % 89 % 1009,9 hPa 0,0 l/m² 0,0 km/h (0 Bft) W-SW 254 ° 0 min 0 W/m² 11,1 °C 12,9 °C 0,0 km/h (0 Bft)
18.05.2024 21:47 22,3 °C 12,9 °C 57 % 89 % 1009,9 hPa 0,0 l/m² 0,0 km/h (0 Bft) W-SW 254 ° 0 min 0 W/m² 11,1 °C 12,9 °C 0,0 km/h (0 Bft)
18.05.2024 21:49 22,3 °C 12,9 °C 57 % 89 % 1009,9 hPa 0,0 l/m² 0,0 km/h (0 Bft) W-SW 254 ° 0 min 0 W/m² 11,1 °C 12,9 °C 0,0 km/h (0 Bft)
18.05.2024 21:51 22,3 °C 12,8 °C 57 % 89 % 1010,0 hPa 0,0 l/m² 0,0 km/h (0 Bft) W-SW 254 ° 0 min 0 W/m² 11,0 °C 12,8 °C 0,0 km/h (0 Bft)
18.05.2024 21:53 22,3 °C 12,8 °C 57 % 89 % 1010,0 hPa 0,0 l/m² 0,0 km/h (0 Bft) W-SW 254 ° 0 min 0 W/m² 11,0 °C 12,8 °C 0,0 km/h (0 Bft)
18.05.2024 21:55 22,3 °C 12,8 °C 57 % 89 % 1009,9 hPa 0,0 l/m² 0,0 km/h (0 Bft) W-SW 254 ° 0 min 0 W/m² 11,0 °C 12,8 °C 0,0 km/h (0 Bft)
18.05.2024 21:57 22,3 °C 12,7 °C 57 % 89 % 1010,0 hPa 0,0 l/m² 0,0 km/h (0 Bft) W-SW 254 ° 0 min 0 W/m² 10,9 °C 12,7 °C 0,0 km/h (0 Bft)
18.05.2024 21:59 22,3 °C 12,7 °C 56 % 89 % 1010,0 hPa 0,0 l/m² 0,0 km/h (0 Bft) W-SW 254 ° 0 min 0 W/m² 10,9 °C 12,7 °C 0,0 km/h (0 Bft)
18.05.2024 22:01 22,3 °C 12,5 °C 56 % 89 % 1010,0 hPa 0,0 l/m² 0,0 km/h (0 Bft) W-SW 254 ° 0 min 0 W/m² 10,7 °C 12,5 °C 0,0 km/h (0 Bft)
18.05.2024 22:03 22,3 °C 12,4 °C 56 % 89 % 1010,1 hPa 0,0 l/m² 0,0 km/h (0 Bft) W-SW 254 ° 0 min 0 W/m² 10,6 °C 12,4 °C 0,0 km/h (0 Bft)
18.05.2024 22:05 22,3 °C 12,3 °C 56 % 89 % 1010,0 hPa 0,0 l/m² 0,0 km/h (0 Bft) W-SW 254 ° 0 min 0 W/m² 10,5 °C 12,3 °C 0,0 km/h (0 Bft)
18.05.2024 22:07 22,3 °C 12,1 °C 56 % 89 % 1010,1 hPa 0,0 l/m² 0,0 km/h (0 Bft) W-SW 254 ° 0 min 0 W/m² 10,3 °C 12,1 °C 0,0 km/h (0 Bft)
18.05.2024 22:09 22,3 °C 12,0 °C 56 % 89 % 1010,1 hPa 0,0 l/m² 0,0 km/h (0 Bft) W-SW 254 ° 0 min 0 W/m² 10,2 °C 12,0 °C 0,0 km/h (0 Bft)
18.05.2024 22:11 22,3 °C 11,9 °C 56 % 90 % 1010,2 hPa 0,0 l/m² 0,0 km/h (0 Bft) W-SW 254 ° 0 min 0 W/m² 10,3 °C 11,9 °C 0,0 km/h (0 Bft)
18.05.2024 22:13 22,3 °C 12,0 °C 56 % 90 % 1010,2 hPa 0,0 l/m² 0,0 km/h (0 Bft) W-SW 254 ° 0 min 0 W/m² 10,4 °C 12,0 °C 0,0 km/h (0 Bft)
18.05.2024 22:15 22,3 °C 12,1 °C 56 % 90 % 1010,0 hPa 0,0 l/m² 0,0 km/h (0 Bft) W-SW 254 ° 0 min 0 W/m² 10,5 °C 12,1 °C 0,0 km/h (0 Bft)
18.05.2024 22:17 22,3 °C 12,1 °C 56 % 90 % 1010,2 hPa 0,0 l/m² 0,0 km/h (0 Bft) W-SW 254 ° 0 min 0 W/m² 10,5 °C 12,1 °C 0,0 km/h (0 Bft)
18.05.2024 22:19 22,3 °C 11,9 °C 56 % 90 % 1010,1 hPa 0,0 l/m² 0,0 km/h (0 Bft) W-SW 254 ° 0 min 0 W/m² 10,3 °C 11,9 °C 0,0 km/h (0 Bft)
18.05.2024 22:21 22,3 °C 11,7 °C 56 % 89 % 1010,2 hPa 0,0 l/m² 0,0 km/h (0 Bft) W-SW 254 ° 0 min 0 W/m² 9,9 °C 11,7 °C 0,0 km/h (0 Bft)
18.05.2024 22:23 22,3 °C 11,6 °C 56 % 90 % 1010,1 hPa 0,0 l/m² 0,0 km/h (0 Bft) W-SW 254 ° 0 min 0 W/m² 10,0 °C 11,6 °C 0,0 km/h (0 Bft)
18.05.2024 22:25 22,3 °C 11,5 °C 56 % 90 % 1010,2 hPa 0,0 l/m² 0,0 km/h (0 Bft) W-SW 254 ° 0 min 0 W/m² 9,9 °C 11,5 °C 0,0 km/h (0 Bft)
18.05.2024 22:27 22,3 °C 11,5 °C 56 % 90 % 1010,1 hPa 0,0 l/m² 0,0 km/h (0 Bft) W-SW 254 ° 0 min 0 W/m² 9,9 °C 11,5 °C 0,0 km/h (0 Bft)
18.05.2024 22:29 22,3 °C 11,6 °C 56 % 91 % 1010,2 hPa 0,0 l/m² 0,0 km/h (0 Bft) W-SW 254 ° 0 min 0 W/m² 10,2 °C 11,6 °C 0,0 km/h (0 Bft)
18.05.2024 22:31 22,3 °C 11,7 °C 56 % 91 % 1010,2 hPa 0,0 l/m² 0,0 km/h (0 Bft) W-SW 254 ° 0 min 0 W/m² 10,3 °C 11,7 °C 0,0 km/h (0 Bft)
18.05.2024 22:33 22,3 °C 11,8 °C 56 % 91 % 1010,1 hPa 0,0 l/m² 0,0 km/h (0 Bft) W-SW 254 ° 0 min 0 W/m² 10,4 °C 11,8 °C 0,0 km/h (0 Bft)
18.05.2024 22:35 22,3 °C 11,8 °C 56 % 91 % 1010,2 hPa 0,0 l/m² 0,0 km/h (0 Bft) W-SW 254 ° 0 min 0 W/m² 10,4 °C 11,8 °C 0,0 km/h (0 Bft)
18.05.2024 22:37 22,3 °C 11,9 °C 56 % 91 % 1010,1 hPa 0,0 l/m² 0,0 km/h (0 Bft) W-SW 254 ° 0 min 0 W/m² 10,5 °C 11,9 °C 0,0 km/h (0 Bft)
18.05.2024 22:39 22,3 °C 11,8 °C 56 % 91 % 1010,1 hPa 0,0 l/m² 0,0 km/h (0 Bft) W-SW 254 ° 0 min 0 W/m² 10,4 °C 11,8 °C 0,0 km/h (0 Bft)
18.05.2024 22:41 22,3 °C 11,8 °C 56 % 91 % 1010,1 hPa 0,0 l/m² 0,0 km/h (0 Bft) W-SW 254 ° 0 min 0 W/m² 10,4 °C 11,8 °C 0,0 km/h (0 Bft)
18.05.2024 22:43 22,3 °C 11,8 °C 56 % 91 % 1010,0 hPa 0,0 l/m² 0,0 km/h (0 Bft) W-SW 254 ° 0 min 0 W/m² 10,4 °C 11,8 °C 0,0 km/h (0 Bft)
18.05.2024 22:45 22,3 °C 11,8 °C 56 % 91 % 1010,1 hPa 0,0 l/m² 0,0 km/h (0 Bft) W-SW 254 ° 0 min 0 W/m² 10,4 °C 11,8 °C 0,0 km/h (0 Bft)
18.05.2024 22:47 22,3 °C 11,8 °C 56 % 91 % 1010,1 hPa 0,0 l/m² 0,0 km/h (0 Bft) W-SW 254 ° 0 min 0 W/m² 10,4 °C 11,8 °C 0,0 km/h (0 Bft)
18.05.2024 22:49 22,3 °C 11,8 °C 56 % 91 % 1010,2 hPa 0,0 l/m² 0,0 km/h (0 Bft) W-SW 254 ° 0 min 0 W/m² 10,4 °C 11,8 °C 0,0 km/h (0 Bft)
18.05.2024 22:51 22,3 °C 11,8 °C 56 % 91 % 1010,1 hPa 0,0 l/m² 0,0 km/h (0 Bft) W-SW 254 ° 0 min 0 W/m² 10,4 °C 11,8 °C 0,0 km/h (0 Bft)
18.05.2024 22:53 22,3 °C 11,8 °C 56 % 91 % 1010,1 hPa 0,0 l/m² 0,0 km/h (0 Bft) W-SW 254 ° 0 min 0 W/m² 10,4 °C 11,8 °C 0,0 km/h (0 Bft)
18.05.2024 22:55 22,2 °C 11,7 °C 56 % 91 % 1010,2 hPa 0,0 l/m² 0,0 km/h (0 Bft) W-SW 254 ° 0 min 0 W/m² 10,3 °C 11,7 °C 0,0 km/h (0 Bft)
18.05.2024 22:57 22,2 °C 11,6 °C 56 % 91 % 1010,3 hPa 0,0 l/m² 0,0 km/h (0 Bft) W-SW 254 ° 0 min 0 W/m² 10,2 °C 11,6 °C 0,0 km/h (0 Bft)
18.05.2024 22:59 22,2 °C 11,6 °C 56 % 91 % 1010,2 hPa 0,0 l/m² 0,0 km/h (0 Bft) W-SW 254 ° 0 min 0 W/m² 10,2 °C 11,6 °C 0,0 km/h (0 Bft)
18.05.2024 23:01 22,2 °C 11,5 °C 56 % 91 % 1010,2 hPa 0,0 l/m² 0,0 km/h (0 Bft) W-SW 254 ° 0 min 0 W/m² 10,1 °C 11,5 °C 0,0 km/h (0 Bft)
18.05.2024 23:03 22,2 °C 11,4 °C 56 % 91 % 1010,1 hPa 0,0 l/m² 0,0 km/h (0 Bft) W-SW 254 ° 0 min 0 W/m² 10,0 °C 11,4 °C 0,0 km/h (0 Bft)
18.05.2024 23:05 22,2 °C 11,4 °C 56 % 91 % 1010,2 hPa 0,0 l/m² 0,0 km/h (0 Bft) W-SW 254 ° 0 min 0 W/m² 10,0 °C 11,4 °C 0,0 km/h (0 Bft)
18.05.2024 23:07 22,2 °C 11,4 °C 56 % 91 % 1010,2 hPa 0,0 l/m² 0,0 km/h (0 Bft) W-SW 254 ° 0 min 0 W/m² 10,0 °C 11,4 °C 0,0 km/h (0 Bft)
18.05.2024 23:09 22,2 °C 11,4 °C 56 % 91 % 1010,1 hPa 0,0 l/m² 0,0 km/h (0 Bft) W-SW 254 ° 0 min 0 W/m² 10,0 °C 11,4 °C 0,0 km/h (0 Bft)
18.05.2024 23:11 22,2 °C 11,3 °C 56 % 91 % 1010,2 hPa 0,0 l/m² 0,0 km/h (0 Bft) W-SW 254 ° 0 min 0 W/m² 9,9 °C 11,3 °C 0,0 km/h (0 Bft)
18.05.2024 23:12 22,2 °C 11,3 °C 56 % 91 % 1010,2 hPa 0,0 l/m² 0,0 km/h (0 Bft) W-SW 254 ° 0 min 0 W/m² 9,9 °C 11,3 °C 0,0 km/h (0 Bft)
18.05.2024 23:13 22,2 °C 11,3 °C 56 % 91 % 1010,2 hPa 0,0 l/m² 0,0 km/h (0 Bft) W-SW 254 ° 0 min 0 W/m² 9,9 °C 11,3 °C 0,0 km/h (0 Bft)
18.05.2024 23:15 22,2 °C 11,2 °C 56 % 91 % 1010,2 hPa 0,0 l/m² 0,0 km/h (0 Bft) W-SW 254 ° 0 min 0 W/m² 9,8 °C 11,2 °C 0,0 km/h (0 Bft)
18.05.2024 23:16 22,2 °C 11,1 °C 56 % 91 % 1010,2 hPa 0,0 l/m² 0,0 km/h (0 Bft) N 0 ° 0 min 0 W/m² 9,7 °C 11,1 °C 0,0 km/h (0 Bft)
18.05.2024 23:17 22,2 °C 11,0 °C 56 % 91 % 1010,3 hPa 0,0 l/m² 0,0 km/h (0 Bft) N 0 ° 0 min 0 W/m² 9,6 °C 11,0 °C 0,0 km/h (0 Bft)
18.05.2024 23:22 22,1 °C 10,8 °C 56 % 91 % 1010,3 hPa 0,0 l/m² 0,0 km/h (0 Bft) W-SW 254 ° 0 min 0 W/m² 9,4 °C 10,8 °C 0,0 km/h (0 Bft)
18.05.2024 23:24 22,1 °C 10,7 °C 56 % 91 % 1010,2 hPa 0,0 l/m² 0,0 km/h (0 Bft) W-SW 254 ° 0 min 0 W/m² 9,3 °C 10,7 °C 0,0 km/h (0 Bft)
18.05.2024 23:25 22,1 °C 10,6 °C 56 % 91 % 1010,2 hPa 0,0 l/m² 0,0 km/h (0 Bft) W-SW 254 ° 0 min 0 W/m² 9,2 °C 10,6 °C 0,0 km/h (0 Bft)
18.05.2024 23:27 22,1 °C 10,5 °C 56 % 91 % 1010,2 hPa 0,0 l/m² 0,0 km/h (0 Bft) W-SW 254 ° 0 min 0 W/m² 9,1 °C 10,5 °C 0,0 km/h (0 Bft)
18.05.2024 23:29 22,1 °C 10,4 °C 56 % 91 % 1010,2 hPa 0,0 l/m² 0,0 km/h (0 Bft) W-SW 254 ° 0 min 0 W/m² 9,0 °C 10,4 °C 0,0 km/h (0 Bft)
18.05.2024 23:30 22,1 °C 10,4 °C 56 % 91 % 1010,2 hPa 0,0 l/m² 0,0 km/h (0 Bft) W-SW 254 ° 0 min 0 W/m² 9,0 °C 10,4 °C 0,0 km/h (0 Bft)
18.05.2024 23:31 22,1 °C 10,4 °C 56 % 91 % 1010,2 hPa 0,0 l/m² 0,0 km/h (0 Bft) W-SW 254 ° 0 min 0 W/m² 9,0 °C 10,4 °C 0,0 km/h (0 Bft)
18.05.2024 23:32 22,1 °C 10,4 °C 56 % 91 % 1010,2 hPa 0,0 l/m² 0,0 km/h (0 Bft) W-SW 254 ° 0 min 0 W/m² 9,0 °C 10,4 °C 0,0 km/h (0 Bft)
18.05.2024 23:34 22,1 °C 10,3 °C 56 % 91 % 1010,2 hPa 0,0 l/m² 0,0 km/h (0 Bft) W-SW 254 ° 0 min 0 W/m² 8,9 °C 10,3 °C 0,0 km/h (0 Bft)
18.05.2024 23:36 22,1 °C 10,3 °C 56 % 91 % 1010,2 hPa 0,0 l/m² 0,0 km/h (0 Bft) W-SW 254 ° 0 min 0 W/m² 8,9 °C 10,3 °C 0,0 km/h (0 Bft)
18.05.2024 23:38 22,1 °C 10,3 °C 56 % 91 % 1010,1 hPa 0,0 l/m² 0,0 km/h (0 Bft) W-SW 254 ° 0 min 0 W/m² 8,9 °C 10,3 °C 0,0 km/h (0 Bft)
18.05.2024 23:40 22,1 °C 10,3 °C 56 % 92 % 1010,1 hPa 0,0 l/m² 0,0 km/h (0 Bft) W-SW 254 ° 0 min 0 W/m² 9,1 °C 10,3 °C 0,0 km/h (0 Bft)
18.05.2024 23:41 22,1 °C 10,4 °C 56 % 92 % 1010,1 hPa 0,0 l/m² 0,0 km/h (0 Bft) W-SW 254 ° 0 min 0 W/m² 9,2 °C 10,4 °C 0,0 km/h (0 Bft)
18.05.2024 23:42 22,1 °C 10,4 °C 56 % 92 % 1010,1 hPa 0,0 l/m² 0,0 km/h (0 Bft) W-SW 254 ° 0 min 0 W/m² 9,2 °C 10,4 °C 0,0 km/h (0 Bft)
18.05.2024 23:44 22,1 °C 10,6 °C 56 % 92 % 1010,2 hPa 0,0 l/m² 0,0 km/h (0 Bft) W-SW 254 ° 0 min 0 W/m² 9,4 °C 10,6 °C 0,0 km/h (0 Bft)
18.05.2024 23:46 22,1 °C 10,4 °C 56 % 92 % 1010,2 hPa 0,0 l/m² 0,0 km/h (0 Bft) W-SW 254 ° 0 min 0 W/m² 9,2 °C 10,4 °C 0,0 km/h (0 Bft)
18.05.2024 23:48 22,1 °C 10,3 °C 56 % 91 % 1010,2 hPa 0,0 l/m² 0,0 km/h (0 Bft) W-SW 254 ° 0 min 0 W/m² 8,9 °C 10,3 °C 0,0 km/h (0 Bft)
18.05.2024 23:50 22,1 °C 10,2 °C 56 % 91 % 1010,2 hPa 0,0 l/m² 0,0 km/h (0 Bft) W-SW 254 ° 0 min 0 W/m² 8,8 °C 10,2 °C 0,0 km/h (0 Bft)
18.05.2024 23:51 22,1 °C 10,1 °C 56 % 91 % 1010,3 hPa 0,0 l/m² 0,0 km/h (0 Bft) W-SW 254 ° 0 min 0 W/m² 8,7 °C 10,1 °C 0,0 km/h (0 Bft)
18.05.2024 23:52 22,1 °C 10,1 °C 56 % 91 % 1010,3 hPa 0,0 l/m² 0,0 km/h (0 Bft) W-SW 254 ° 0 min 0 W/m² 8,7 °C 10,1 °C 0,0 km/h (0 Bft)
18.05.2024 23:53 22,1 °C 10,1 °C 56 % 92 % 1010,1 hPa 0,0 l/m² 0,0 km/h (0 Bft) W-SW 254 ° 0 min 0 W/m² 8,9 °C 10,1 °C 0,0 km/h (0 Bft)
18.05.2024 23:54 22,1 °C 10,2 °C 56 % 92 % 1010,2 hPa 0,0 l/m² 0,0 km/h (0 Bft) W-SW 254 ° 0 min 0 W/m² 9,0 °C 10,2 °C 0,0 km/h (0 Bft)
18.05.2024 23:56 22,1 °C 10,2 °C 56 % 92 % 1010,1 hPa 0,0 l/m² 0,0 km/h (0 Bft) W-SW 254 ° 0 min 0 W/m² 9,0 °C 10,2 °C 0,0 km/h (0 Bft)
18.05.2024 23:58 22,1 °C 10,2 °C 56 % 92 % 1010,2 hPa 0,0 l/m² 0,0 km/h (0 Bft) W-SW 254 ° 0 min 0 W/m² 9,0 °C 10,2 °C 0,0 km/h (0 Bft)
_ Min-Zeit 08:22 23:53 08:20 18:17 05:12 - 23:58 - - - - 23:52 23:53 23:58
Minimum _ 22,0 °C 10,1 °C 55 % 73 % 1008,4 hPa - 0,0 km/h (0 Bft) - - - - 8,7 °C 10,1 °C 0,0 km/h (0 Bft)
_ Max-Zeit 12:25 11:22 12:19 23:58 16:01 14:42 12:48 - - 20:02 11:14 18:09 17:57 12:58
Maximum _ 22,6 °C 18,3 °C 59 % 92 % 1010,5 hPa 0,2 l/m² 13,1 km/h
SW (3 Bft)
- - 2 min 1048 W/m² 14,6 °C 18,2 °C 16,1 km/h
W-SW (3 Bft)
Durchschnitt _ 22,2 °C 14,7 °C 56 % 84 % 1009,5 hPa #0,4 l/m² 2,6 km/h (1 Bft) O-NO - #13:11 h 129 W/m² 12,1 °C 14,6 °C 4,9 km/h (1 Bft)
© 2009 Mathias Hoßbach